[[{"header":{"parameterUnit":"m.s-1","parameterCategory":1,"la1":30.6,"la2":28.766,"lo1":-90.7593,"lo2":-88.6598,"dy":0.0162,"dx":0.0183,"nx":116,"ny":114,"refTime":"2023-03-27T18:00:00:Z","depth":0,"parameterNumber":2,"parameterNumberName":"U-component_of_WINDS"},"data":[0.0,0.0,0.0,0.0,0.0,0.0,0.0,0.0,0.0,0.0,0.0,0.0,0.0,0.0,0.0,0.0,0.0,0.0,0.0,0.0,0.0,0.0,0.0,0.0,0.0,0.0,0.0,0.0,0.0,0.0,0.0,0.0,0.0,0.0,0.0,0.0,0.0,0.0,0.0,0.0,0.0,0.0,0.0,0.0,0.0,0.0,0.0,0.0,0.0,0.0,0.0,0.0,0.0,0.0,0.0,0.0,0.0,0.0,0.0,0.0,0.0,0.0,0.0,0.0,0.0,0.0,0.0,0.0,0.0,0.0,0.0,0.0,0.0,0.0,0.0,0.0,0.0,0.0,0.0,0.0,0.0,0.0,0.0,0.0,0.0,0.0,0.0,0.0,0.0,0.0,0.0,0.0,0.0,0.0,0.0,0.0,0.0,0.0,0.0,0.0,0.0,0.0,0.0,0.0,0.0,0.0,0.0,0.0,0.0,0.0,0.0,0.0,0.0,0.0,0.0,0.0,0.0,0.0,0.0,0.0,0.0,0.0,0.0,0.0,0.0,0.0,0.0,0.0,0.0,0.0,0.0,0.0,0.0,0.0,0.0,0.0,0.0,0.0,0.0,0.0,0.0,0.0,0.0,0.0,0.0,0.0,0.0,0.0,0.0,0.0,0.0,0.0,0.0,0.0,0.0,0.0,0.0,0.0,0.0,0.0,0.0,0.0,0.0,0.0,0.0,0.0,0.0,0.0,0.0,0.0,0.0,0.0,0.0,0.0,0.0,0.0,0.0,0.0,0.0,0.0,0.0,0.0,0.0,0.0,0.0,0.0,0.0,0.0,0.0,0.0,0.0,0.0,0.0,0.0,0.0,0.0,0.0,0.0,0.0,0.0,0.0,0.0,0.0,0.0,0.0,0.0,0.0,0.0,0.0,0.0,0.0,0.0,0.0,0.0,0.0,0.0,0.0,0.0,0.0,0.0,0.0,0.0,0.0,0.0,0.0,0.0,0.0,0.0,0.0,0.0,0.0,0.0,0.0,0.0,0.0,0.0,0.0,0.0,0.0,0.0,0.0,0.0,0.0,0.0,0.0,0.0,0.0,0.0,0.0,0.0,0.0,0.0,0.0,0.0,0.0,0.0,0.0,0.0,0.0,0.0,0.0,0.0,0.0,0.0,0.0,0.0,0.0,0.0,0.0,0.0,0.0,0.0,0.0,0.0,0.0,0.0,0.0,0.0,0.0,0.0,0.0,0.0,0.0,0.0,0.0,0.0,0.0,0.0,0.0,0.0,0.0,0.0,0.0,0.0,0.0,0.0,0.0,0.0,0.0,0.0,0.0,0.0,0.0,0.0,0.0,0.0,0.0,0.0,0.0,0.0,0.0,0.0,0.0,0.0,0.0,0.0,0.0,0.0,0.0,0.0,0.0,0.0,0.0,0.0,0.0,0.0,0.0,0.0,0.0,0.0,0.0,0.0,0.0,0.0,0.0,0.0,0.0,0.0,0.0,0.0,0.0,0.0,0.0,0.0,0.0,0.0,0.0,0.0,0.0,0.0,0.0,0.0,0.0,0.0,0.0,0.0,0.0,0.0,0.0,0.0,0.0,0.0,0.0,0.0,0.0,0.0,0.0,0.0,0.0,0.0,0.0,0.0,0.0,0.0,0.0,0.0,0.0,0.0,0.0,0.0,0.0,0.0,0.0,0.0,0.0,0.0,0.0,0.0,0.0,0.0,0.0,0.0,0.0,0.0,0.0,0.0,0.0,0.0,0.0,0.0,0.0,0.0,0.0,0.0,0.0,0.0,0.0,0.0,0.0,0.0,0.0,0.0,0.0,0.0,0.0,0.0,0.0,0.0,0.0,0.0,0.0,0.0,0.0,0.0,0.0,0.0,0.0,0.0,0.0,0.0,0.0,0.0,0.0,0.0,0.0,0.0,0.0,0.0,0.0,0.0,0.0,0.0,0.0,0.0,0.0,0.0,0.0,0.0,0.0,0.0,0.0,0.0,0.0,0.0,0.0,0.0,0.0,0.0,0.0,0.0,0.0,0.0,0.0,0.0,0.0,0.0,0.0,0.0,0.0,0.0,0.0,0.0,0.0,0.0,0.0,0.0,0.0,0.0,0.0,0.0,0.0,0.0,0.0,0.0,0.0,0.0,0.0,0.0,0.0,0.0,0.0,0.0,0.0,0.0,0.0,0.0,0.0,0.0,0.0,0.0,0.0,0.0,0.0,0.0,0.0,0.0,0.0,0.0,0.0,0.0,0.0,0.0,0.0,0.0,0.0,0.0,0.0,0.0,0.0,0.0,0.0,0.0,0.0,0.0,0.0,0.0,0.0,0.0,0.0,0.0,0.0,0.0,0.0,0.0,0.0,0.0,0.0,0.0,0.0,0.0,0.0,0.0,0.0,0.0,0.0,0.0,0.0,0.0,0.0,0.0,0.0,0.0,0.0,0.0,0.0,0.0,0.0,0.0,0.0,0.0,0.0,0.0,0.0,0.0,0.0,0.0,0.0,0.0,0.0,0.0,0.0,0.0,0.0,0.0,0.0,0.0,0.0,0.0,0.0,0.0,0.0,0.0,0.0,0.0,0.0,0.0,0.0,0.0,0.0,0.0,0.0,0.0,0.0,0.0,0.0,0.0,0.0,0.0,0.0,0.0,0.0,0.0,0.0,0.0,0.0,0.0,0.0,0.0,0.0,0.0,0.0,0.0,0.0,0.0,0.0,0.0,0.0,0.0,0.0,0.0,0.0,0.0,0.0,0.0,0.0,0.0,0.0,0.0,0.0,0.0,0.0,0.0,0.0,0.0,0.0,0.0,0.0,0.0,0.0,0.0,0.0,0.0,0.0,0.0,0.0,0.0,0.0,0.0,0.0,0.0,0.0,0.0,0.0,0.0,0.0,0.0,0.0,0.0,0.0,0.0,0.0,0.0,0.0,0.0,0.0,0.0,0.0,0.0,0.0,0.0,0.0,0.0,0.0,0.0,0.0,0.0,0.0,0.0,0.0,0.0,0.0,0.0,0.0,0.0,0.0,0.0,0.0,0.0,0.0,0.0,0.0,0.0,0.0,0.0,0.0,0.0,0.0,0.0,0.0,0.0,0.0,0.0,0.0,0.0,0.0,0.0,0.0,0.0,0.0,0.0,0.0,0.0,0.0,0.0,0.0,0.0,0.0,0.0,0.0,0.0,0.0,0.0,0.0,0.0,0.0,0.0,0.0,0.0,0.0,0.0,0.0,0.0,0.0,0.0,0.0,0.0,0.0,0.0,0.0,0.0,0.0,0.0,0.0,0.0,0.0,0.0,0.0,0.0,0.0,0.0,0.0,0.0,0.0,0.0,0.0,0.0,0.0,0.0,0.0,0.0,0.0,0.0,0.0,0.0,0.0,0.0,0.0,0.0,0.0,0.0,0.0,0.0,0.0,0.0,0.0,0.0,0.0,0.0,0.0,0.0,0.0,0.0,0.0,0.0,0.0,0.0,0.0,0.0,0.0,0.0,0.0,0.0,0.0,0.0,0.0,0.0,0.0,0.0,0.0,0.0,0.0,0.0,0.0,0.0,0.0,0.0,0.0,0.0,0.0,0.0,0.0,0.0,0.0,0.0,0.0,0.0,0.0,0.0,0.0,0.0,0.0,0.0,0.0,0.0,0.0,0.0,0.0,0.0,0.0,0.0,0.0,0.0,0.0,0.0,0.0,0.0,0.0,0.0,0.0,0.0,0.0,0.0,0.0,0.0,0.0,0.0,0.0,0.0,0.0,0.0,0.0,0.0,0.0,0.0,0.0,0.0,0.0,0.0,0.0,0.0,0.0,0.0,0.0,0.0,0.0,0.0,0.0,0.0,0.0,0.0,0.0,0.0,0.0,0.0,0.0,0.0,0.0,0.0,0.0,0.0,0.0,0.0,0.0,0.0,0.0,0.0,0.0,0.0,0.0,0.0,0.0,0.0,0.0,0.0,0.0,0.0,0.0,0.0,0.0,0.0,0.0,0.0,0.0,0.0,0.0,0.0,0.0,0.0,0.0,0.0,0.0,0.0,0.0,0.0,0.0,0.0,0.0,0.0,0.0,0.0,0.0,0.0,0.0,0.0,0.0,0.0,0.0,0.0,0.0,0.0,0.0,0.0,0.0,0.0,0.0,0.0,0.0,0.0,0.0,0.0,0.0,0.0,0.0,0.0,0.0,0.0,0.0,0.0,0.0,0.0,0.0,0.0,0.0,0.0,0.0,0.0,0.0,0.0,0.0,0.0,0.0,0.0,0.0,0.0,0.0,0.0,0.0,0.0,0.0,0.0,0.0,0.0,0.0,0.0,0.0,0.0,0.0,0.0,0.0,0.0,0.0,0.0,0.0,0.0,0.0,0.0,0.0,0.0,0.0,0.0,0.0,0.0,0.0,0.0,0.0,0.0,0.0,0.0,0.0,0.0,0.0,0.0,0.0,0.0,0.0,0.0,0.0,0.0,0.0,0.0,0.0,0.0,0.0,0.0,0.0,0.0,0.0,0.0,0.0,0.0,0.0,0.0,0.0,0.0,0.0,0.0,0.0,0.0,0.0,0.0,0.0,0.0,0.0,0.0,0.0,0.0,0.0,0.0,0.0,0.0,0.0,0.0,0.0,0.0,0.0,0.0,0.0,0.0,0.0,0.0,0.0,0.0,0.0,0.0,0.0,0.0,0.0,0.0,0.0,0.0,0.0,0.0,0.0,0.0,0.0,0.0,0.0,0.0,0.0,0.0,0.0,0.0,0.0,0.0,0.0,0.0,0.0,0.0,0.0,0.0,0.0,0.0,0.0,0.0,0.0,0.0,0.0,0.0,0.0,0.0,0.0,0.0,0.0,0.0,0.0,0.0,0.0,0.0,0.0,0.0,0.0,0.0,0.0,0.0,0.0,0.0,0.0,0.0,0.0,0.0,0.0,0.0,0.0,0.0,0.0,0.0,0.0,0.0,0.0,0.0,0.0,0.0,0.0,0.0,0.0,0.0,0.0,0.0,0.0,0.0,0.0,0.0,0.0,0.0,0.0,0.0,0.0,0.0,0.0,0.0,0.0,0.0,0.0,0.0,0.0,0.0,0.0,0.0,0.0,0.0,0.0,0.0,0.0,0.0,0.0,0.0,0.0,0.0,0.0,0.0,0.0,0.0,0.0,0.0,0.0,0.0,0.0,0.0,0.0,0.0,0.0,0.0,0.0,0.0,0.0,0.0,0.0,0.0,0.0,0.0,0.0,0.0,0.0,0.0,0.0,0.0,0.0,0.0,0.0,0.0,0.0,0.0,0.0,0.0,0.0,0.0,0.0,0.0,0.0,0.0,0.0,0.0,0.0,0.0,0.0,0.0,0.0,0.0,0.0,0.0,0.0,0.0,0.0,0.0,0.0,0.0,0.0,0.0,0.0,0.0,0.0,0.0,0.0,0.0,0.0,0.0,0.0,0.0,0.0,0.0,0.0,0.0,0.0,0.0,0.0,0.0,0.0,0.0,0.0,0.0,0.0,0.0,0.0,0.0,0.0,0.0,0.0,0.0,0.0,0.0,0.0,0.0,0.0,0.0,0.0,0.0,0.0,0.0,0.0,0.0,0.0,0.0,0.0,0.0,0.0,0.0,0.0,0.0,0.0,0.0,0.0,0.0,0.0,0.0,0.0,0.0,0.0,0.0,0.0,0.0,0.0,0.0,0.0,0.0,0.0,0.0,0.0,0.0,0.0,0.0,0.0,0.0,0.0,0.0,0.0,0.0,0.0,0.0,0.0,0.0,0.0,0.0,0.0,0.0,0.0,0.0,0.0,0.0,0.0,0.0,0.0,0.0,0.0,0.0,0.0,0.0,0.0,0.0,0.0,0.0,0.0,0.0,0.0,0.0,0.0,0.0,0.0,0.0,0.0,0.0,0.0,0.0,0.0,0.0,0.0,0.0,0.0,0.0,0.0,0.0,0.0,0.0,0.0,0.0,0.0,0.0,0.0,0.0,0.0,0.0,0.0,0.0,0.0,0.0,0.0,0.0,0.0,0.0,0.0,0.0,0.0,0.0,0.0,0.0,0.0,0.0,0.0,0.0,0.0,0.0,0.0,0.0,0.0,0.0,0.0,0.0,0.0,0.0,0.0,0.0,-3.4414,0.0,0.0,0.0,0.0,0.0,0.0,0.0,0.0,0.0,0.0,0.0,0.0,0.0,0.0,0.0,0.0,0.0,0.0,0.0,0.0,0.0,0.0,0.0,0.0,0.0,0.0,0.0,0.0,0.0,0.0,0.0,0.0,0.0,0.0,0.0,0.0,0.0,0.0,0.0,-2.9588,-2.9882,-2.9931,-3.0219,-3.0605,-3.1076,0.0,0.0,0.0,0.0,0.0,0.0,0.0,0.0,0.0,0.0,0.0,0.0,0.0,0.0,0.0,0.0,0.0,0.0,0.0,0.0,0.0,0.0,0.0,0.0,0.0,0.0,0.0,0.0,0.0,0.0,0.0,0.0,0.0,0.0,0.0,0.0,0.0,0.0,0.0,0.0,0.0,0.0,0.0,0.0,0.0,0.0,0.0,0.0,0.0,0.0,0.0,0.0,0.0,0.0,0.0,0.0,0.0,0.0,0.0,0.0,0.0,0.0,0.0,0.0,0.0,0.0,0.0,0.0,0.0,0.0,0.0,-3.4414,0.0,0.0,0.0,0.0,0.0,0.0,0.0,0.0,0.0,0.0,0.0,0.0,0.0,0.0,0.0,0.0,0.0,0.0,0.0,0.0,0.0,0.0,0.0,0.0,-2.5347,-2.5347,-2.5476,-2.5581,0.0,0.0,0.0,0.0,0.0,0.0,0.0,-2.8661,-2.9089,-2.9341,-2.9851,-3.0249,-3.0598,-3.0598,-3.0598,-3.0627,-3.1119,0.0,0.0,0.0,0.0,0.0,0.0,0.0,0.0,0.0,0.0,0.0,0.0,0.0,0.0,0.0,0.0,0.0,0.0,0.0,0.0,0.0,0.0,0.0,0.0,0.0,0.0,0.0,0.0,0.0,0.0,0.0,0.0,0.0,0.0,0.0,0.0,0.0,0.0,0.0,0.0,0.0,0.0,0.0,0.0,0.0,0.0,0.0,0.0,0.0,0.0,0.0,0.0,0.0,0.0,0.0,0.0,0.0,0.0,0.0,0.0,0.0,0.0,0.0,-3.4414,-3.4414,-3.4414,-3.4414,-3.4414,-3.4414,-3.4414,-3.4414,-3.4414,0.0,0.0,0.0,0.0,0.0,0.0,0.0,0.0,0.0,0.0,0.0,0.0,0.0,0.0,0.0,0.0,0.0,0.0,0.0,0.0,0.0,0.0,-2.5465,-2.5571,-2.5571,-2.6264,-2.6684,-2.6684,0.0,0.0,0.0,0.0,0.0,-2.8693,-2.923,-2.9509,-2.9571,-2.9927,-3.0249,-3.0598,-3.0598,-3.0598,-3.0598,-3.0685,-3.0395,-2.9913,0.0,0.0,0.0,0.0,0.0,0.0,0.0,0.0,0.0,0.0,0.0,0.0,0.0,0.0,0.0,0.0,0.0,0.0,0.0,0.0,0.0,0.0,0.0,0.0,0.0,0.0,0.0,0.0,0.0,0.0,0.0,0.0,0.0,0.0,0.0,0.0,0.0,0.0,0.0,0.0,0.0,-3.3409,-3.377,0.0,0.0,0.0,0.0,0.0,0.0,0.0,0.0,0.0,0.0,0.0,0.0,0.0,-3.4414,-3.4414,-3.4414,-3.4414,-3.4414,-3.4414,-3.4414,-3.4414,-3.4414,-3.4414,-3.4414,-3.4414,0.0,-3.4414,-3.4414,0.0,0.0,0.0,0.0,0.0,0.0,0.0,0.0,0.0,0.0,0.0,0.0,0.0,0.0,0.0,0.0,0.0,0.0,0.0,0.0,0.0,-2.5814,-2.6148,-2.6148,-2.6989,-2.7324,-2.6934,-2.7491,0.0,0.0,0.0,-2.8785,-2.9526,-2.9571,-2.9696,-2.9896,-3.0233,-3.0462,-3.0598,-3.0598,-3.0598,-3.0598,-3.0598,-3.0341,-2.991,-3.0273,0.0,0.0,0.0,0.0,0.0,0.0,0.0,0.0,0.0,0.0,0.0,0.0,0.0,0.0,0.0,0.0,0.0,0.0,0.0,0.0,0.0,0.0,0.0,0.0,0.0,0.0,0.0,0.0,0.0,0.0,0.0,0.0,0.0,0.0,0.0,0.0,0.0,0.0,0.0,-3.3597,-3.3632,-3.377,-3.3991,-3.4196,0.0,0.0,0.0,0.0,0.0,0.0,0.0,0.0,0.0,-3.4414,-3.4414,-3.4414,-3.4414,-3.4414,-3.4414,-3.4414,-3.4414,-3.4414,-3.4414,-3.4414,-3.4414,-3.4414,-3.4414,-3.4414,-3.4414,-3.4414,-3.4414,-3.4414,0.0,0.0,0.0,0.0,-3.4414,-3.4457,0.0,0.0,0.0,0.0,0.0,0.0,0.0,0.0,0.0,0.0,0.0,0.0,-2.5604,-2.6308,-2.6807,-2.6997,-2.7874,-2.8182,-2.7624,-2.8149,0.0,0.0,-2.8785,-2.9289,-2.9958,-2.9634,-2.9727,-3.0233,-3.0401,-3.0522,-3.0598,-3.0598,-3.0598,-3.0598,-3.0522,-3.0341,-3.008,-2.9834,-2.9477,-2.9109,0.0,0.0,0.0,0.0,0.0,0.0,0.0,0.0,0.0,0.0,0.0,0.0,0.0,0.0,0.0,0.0,0.0,0.0,0.0,0.0,0.0,0.0,0.0,0.0,0.0,0.0,0.0,0.0,0.0,0.0,0.0,0.0,0.0,0.0,0.0,0.0,0.0,-3.3805,-3.3839,-3.3942,-3.423,-3.4414,0.0,0.0,0.0,0.0,0.0,0.0,-3.4414,-3.4414,-3.4414,-3.4414,-3.4414,-3.4414,-3.4414,-3.4414,-3.4414,-3.4414,-3.4414,-3.4414,-3.4414,-3.4414,-3.4414,-3.4414,-3.4414,-3.4414,-3.4414,-3.4414,-3.4414,-3.4414,-3.4414,-3.4414,-3.4414,-3.4414,-3.4414,-3.4501,0.0,0.0,0.0,0.0,0.0,0.0,0.0,0.0,0.0,0.0,0.0,-2.5826,-2.6467,-2.69,-2.7451,-2.8051,-2.8967,-2.9484,-2.9453,-3.0099,-3.0447,-3.0447,-3.0189,-2.9896,-2.9634,-2.9289,-2.9588,-3.0568,-3.0249,-3.028,-3.0598,-3.0598,-3.0598,-3.0582,-3.0264,-3.0111,-3.008,-3.008,-2.971,-2.9099,-2.9095,0.0,0.0,0.0,0.0,0.0,0.0,0.0,0.0,0.0,0.0,0.0,0.0,0.0,0.0,0.0,0.0,0.0,0.0,0.0,0.0,0.0,0.0,0.0,0.0,0.0,0.0,0.0,0.0,0.0,0.0,0.0,0.0,0.0,0.0,0.0,0.0,0.0,0.0,-3.4312,-3.438,0.0,0.0,0.0,0.0,-3.4414,-3.4414,-3.4414,-3.4414,-3.4414,-3.4414,-3.4414,-3.4414,-3.4414,-3.4414,-3.4414,-3.4414,-3.4414,-3.4414,-3.4414,-3.4414,-3.4414,-3.4414,-3.4414,-3.4414,-3.4414,-3.4414,-3.4414,-3.4414,-3.4414,-3.4414,-3.4414,-3.4414,-3.4414,-3.4414,-3.4501,0.0,0.0,0.0,0.0,0.0,0.0,0.0,0.0,-2.5347,-2.55,-2.5571,-2.5746,-2.6117,-2.679,-2.7484,-2.8149,-2.9062,-2.9591,-2.9591,-3.0021,-3.0005,-2.9338,-2.9602,-2.9741,-2.9602,-2.9696,-2.9927,-3.0294,-2.9958,-3.0066,-3.0612,-3.0371,-3.0294,-3.028,-3.0371,-3.0189,-2.9772,-2.954,-2.9194,-2.878,-2.878,-2.8716,0.0,0.0,0.0,0.0,0.0,0.0,0.0,0.0,0.0,0.0,0.0,0.0,0.0,0.0,0.0,0.0,0.0,0.0,0.0,0.0,0.0,0.0,0.0,0.0,0.0,0.0,0.0,0.0,0.0,0.0,0.0,0.0,0.0,0.0,0.0,0.0,0.0,-3.438,-3.4414,0.0,0.0,-3.4414,-3.4414,-3.4414,-3.4414,-3.4414,-3.4414,-3.4414,-3.4414,-3.4414,-3.4414,-3.4414,-3.4414,-3.4414,-3.4414,-3.4414,-3.4414,-3.4414,-3.4414,-3.4414,-3.4414,-3.4414,-3.4414,-3.4414,-3.4414,-3.4414,-3.4414,-3.4414,-3.4414,-3.4414,-3.4414,-3.4414,-3.4675,-3.5111,0.0,0.0,0.0,0.0,0.0,0.0,0.0,0.0,-2.5453,-2.5571,-2.5723,-2.5933,-2.6302,-2.7116,-2.7934,-2.8602,-2.9453,-2.9931,-2.9931,-3.0158,-2.9974,-2.9306,-2.9477,-2.9634,-2.9772,-2.9772,-2.9834,-2.9927,-2.971,-2.9882,-3.0431,-3.0203,-3.0172,-3.0249,-3.0371,-3.0189,-2.9741,-2.9289,-2.8972,-2.8748,-2.8651,-2.8587,-2.8587,0.0,0.0,0.0,0.0,0.0,0.0,0.0,0.0,0.0,0.0,0.0,0.0,0.0,0.0,0.0,0.0,0.0,0.0,0.0,0.0,0.0,0.0,0.0,0.0,0.0,0.0,0.0,0.0,0.0,0.0,0.0,0.0,0.0,0.0,0.0,-3.4414,-3.4414,-3.4414,-3.4414,-3.4414,-3.4414,-3.4414,-3.4414,-3.4414,-3.4414,-3.4414,-3.4414,-3.4414,-3.4414,-3.4414,-3.4414,-3.4414,-3.4414,-3.4414,-3.4414,-3.4414,-3.4414,-3.4414,-3.4414,-3.4414,-3.4414,-3.4414,-3.4414,-3.4414,-3.4414,-3.4414,-3.4414,-3.4414,-3.4414,-3.4414,-3.4414,-3.482,-3.5523,0.0,0.0,0.0,0.0,0.0,0.0,0.0,-2.5465,-2.5606,-2.5606,-2.5945,-2.6465,-2.7129,-2.7953,-2.8762,-2.9515,-3.019,-3.0568,-3.0598,-3.0598,-3.0612,-3.0568,-2.9974,-2.9772,-3.008,-2.9446,-2.9289,-2.9602,-2.9571,-2.9772,-3.0111,-3.0111,-3.0249,-3.0582,-3.0264,-3.0111,-3.005,-2.9383,-2.9131,-2.9099,-2.8748,-2.8619,-2.8619,0.0,0.0,0.0,0.0,0.0,0.0,0.0,0.0,0.0,0.0,0.0,0.0,0.0,0.0,0.0,0.0,0.0,0.0,0.0,0.0,0.0,0.0,0.0,0.0,0.0,0.0,0.0,0.0,0.0,0.0,0.0,0.0,0.0,-3.4414,-3.4414,-3.4414,-3.4414,-3.4414,-3.4414,-3.4414,-3.4414,-3.4414,-3.4414,-3.4414,-3.4414,-3.4414,-3.4414,-3.4414,-3.4414,-3.4414,-3.4414,-3.4414,-3.4414,-3.4414,-3.4414,-3.4414,-3.4414,-3.4414,-3.4428,-3.4443,-3.4443,-3.4457,-3.4472,-3.4472,-3.4472,-3.4472,-3.4472,-3.4428,-3.4414,-3.4414,-3.4428,-3.4864,-3.5639,0.0,0.0,0.0,0.0,0.0,0.0,0.0,-2.5347,-2.55,-2.5793,-2.591,-2.6349,-2.7317,-2.7637,-2.826,-2.9484,-2.9777,-3.0068,-3.0568,-3.0598,-3.0492,-3.0264,-3.005,-2.9896,-2.9741,-2.954,-2.9634,-2.9958,-2.9477,-2.9665,-3.0462,-3.0203,-3.0142,-3.0233,-3.0401,-3.0189,-2.9741,-2.9803,-2.9665,-2.9415,-2.8812,-2.8748,-2.894,0.0,0.0,0.0,0.0,0.0,0.0,0.0,0.0,0.0,0.0,0.0,0.0,0.0,0.0,0.0,0.0,0.0,0.0,0.0,0.0,0.0,0.0,0.0,0.0,0.0,0.0,0.0,0.0,0.0,0.0,0.0,0.0,-3.3891,-3.4356,-3.4414,-3.4414,-3.4414,-3.4414,-3.4414,-3.4414,-3.4414,-3.4414,-3.4414,-3.4414,-3.4414,-3.4414,-3.4414,-3.4414,-3.4414,-3.4414,-3.4414,-3.4414,-3.4414,-3.4414,-3.4414,-3.4414,-3.4414,-3.4428,-3.4893,-3.5145,-3.516,-3.559,-3.5793,-3.5793,-3.5793,-3.5793,-3.5691,-3.4777,-3.4414,-3.4472,-3.4936,-3.5807,-3.6881,0.0,0.0,0.0,0.0,0.0,0.0,0.0,-2.5382,-2.5535,-2.5875,-2.6211,-2.6688,-2.7417,-2.8032,-2.8712,-2.9529,-2.987,-3.019,-3.0568,-3.0598,-3.0507,-3.0325,-3.0172,-3.0019,-2.9803,-2.9665,-2.971,-2.9896,-2.9509,-2.9696,-3.0371,-3.0203,-3.0172,-3.0325,-3.0507,-3.0387,-3.0036,-3.008,-2.9988,-2.9741,-2.9067,-2.894,-2.9067,-2.8876,-2.8716,-2.8587,-2.8587,-2.8587,-2.8587,-2.8587,0.0,0.0,0.0,0.0,0.0,0.0,0.0,0.0,0.0,0.0,0.0,0.0,0.0,0.0,0.0,0.0,0.0,0.0,0.0,0.0,0.0,0.0,0.0,0.0,-3.305,-3.3721,-3.4327,-3.4414,-3.4414,-3.4414,-3.4414,-3.4414,-3.4414,-3.4414,-3.4414,-3.4414,-3.4414,-3.4414,-3.4414,-3.4414,-3.4414,-3.4414,-3.4414,-3.4414,-3.4414,-3.4414,-3.4545,-3.482,-3.482,-3.4951,-3.5212,-3.559,-3.5799,0.0,-3.6156,-3.6301,-3.6301,-3.6301,-3.6301,0.0,0.0,0.0,0.0,0.0,-3.6649,-3.7404,0.0,0.0,0.0,0.0,0.0,0.0,0.0,-2.5643,-2.5819,-2.598,-2.6701,-2.7317,-2.7703,-2.8839,-2.9623,-2.9716,-3.0251,-3.0598,-3.0598,-3.0598,-3.0568,-3.0552,-3.028,-3.0111,-3.005,-2.9803,-2.9665,-2.9665,-2.9665,-2.9834,-3.0172,-3.0172,-3.0325,-3.0598,-3.0552,-3.0552,-3.0507,-3.0203,-3.005,-2.9988,-2.9383,-2.9131,-2.9099,-2.9067,-2.8844,-2.8587,-2.8587,-2.8587,-2.8587,-2.8587,0.0,0.0,0.0,0.0,0.0,0.0,0.0,0.0,0.0,0.0,0.0,0.0,0.0,0.0,0.0,0.0,0.0,0.0,0.0,0.0,0.0,0.0,0.0,0.0,-3.3006,-3.3707,-3.4225,-3.437,-3.4414,-3.4414,-3.4414,-3.4414,-3.4414,-3.4414,-3.4414,-3.4414,-3.4414,-3.4414,-3.4414,0.0,0.0,0.0,0.0,-3.4443,-3.4516,-3.4516,-3.4835,-3.5508,-3.5508,-3.5799,-3.6301,-3.6388,-3.6417,-3.6417,-3.6489,-3.6519,-3.6519,-3.6519,-3.6519,-3.6504,-3.6359,-3.6359,-3.6489,-3.7085,-3.7346,-3.7491,0.0,0.0,0.0,0.0,0.0,0.0,0.0,-2.6701,-2.6716,-2.6692,-2.6833,-2.7524,-2.903,-2.9435,-2.9808,-3.0357,-3.0538,-3.0598,-3.0598,-3.0598,-3.0492,-3.0203,-3.0401,-3.0249,-2.971,-2.9896,-2.9988,-2.9988,-2.9988,-3.0158,-3.0492,-3.0492,-3.0552,-3.0598,-3.0325,-3.0203,-3.0172,-2.9834,-2.971,-2.9696,-2.954,-2.9352,-2.9067,-2.8812,-2.8651,-2.8587,-2.8587,-2.8587,-2.8587,-2.8587,-2.8587,-2.8651,-2.8908,-2.9277,0.0,0.0,0.0,0.0,0.0,0.0,0.0,0.0,0.0,0.0,0.0,0.0,0.0,0.0,0.0,0.0,0.0,0.0,0.0,-3.1683,-3.2701,-3.3547,-3.3663,-3.4095,-3.4414,-3.4414,-3.4414,-3.4414,-3.4414,-3.4414,-3.4414,-3.4414,-3.4414,-3.4414,-3.4414,-3.4414,0.0,-3.4414,-3.4414,-3.4661,-3.5203,-3.5218,-3.5537,-3.6127,0.0,0.0,-3.633,-3.6867,-3.7114,-3.7143,-3.7622,-3.7839,-3.7839,-3.7839,-3.7839,-3.7738,-3.6707,-3.6635,-3.7128,-3.7259,-3.7607,-3.8043,0.0,0.0,0.0,0.0,0.0,0.0,0.0,-2.7681,-2.7706,-2.7123,-2.7631,-2.8332,-2.9004,-2.9387,-2.9744,-3.0052,-3.0249,-3.0431,-3.0598,-3.0598,-3.0522,-3.0341,-3.0522,-3.0447,-3.0127,-3.0249,-3.0341,-3.0341,-3.0341,-3.0431,-3.0598,-3.0598,-3.0598,-3.0582,-3.0264,-3.008,-3.008,-2.9741,-2.9509,-2.9352,-2.954,-2.9289,-2.8844,-2.8844,-2.8748,-2.8587,-2.8587,-2.8587,-2.8587,-2.8587,-2.8716,-2.8876,-2.9035,-2.932,-2.9602,0.0,0.0,0.0,0.0,0.0,0.0,0.0,0.0,0.0,0.0,0.0,0.0,0.0,0.0,-3.1047,0.0,0.0,-3.2121,-3.244,-3.3067,-3.362,-3.3891,-3.4211,-3.4414,-3.4414,-3.4414,-3.4414,-3.4414,-3.4414,-3.4414,-3.4414,-3.4414,-3.4414,-3.4414,-3.4414,-3.4559,-3.4878,-3.4893,-3.5198,-3.5822,-3.5836,-3.6156,-3.6809,-3.6809,-3.6968,-3.7259,-3.7607,-3.7752,-3.7781,-3.8072,-3.8202,-3.8202,-3.8202,-3.8202,-3.8144,-3.7506,-3.7462,-3.7752,-3.7752,-3.7941,-3.8202,0.0,0.0,0.0,0.0,0.0,0.0,0.0,-2.8758,-2.8805,-2.7895,-2.871,-2.9287,-2.8993,-2.9438,-2.9729,-2.971,-2.9927,-3.0233,-3.0582,-3.0598,-3.0598,-3.0598,-3.0598,-3.0598,-3.0598,-3.0598,-3.0598,-3.0598,-3.0598,-3.0598,-3.0598,-3.0598,-3.0598,-3.0582,-3.0264,-3.005,-2.9988,-2.9634,-2.932,-2.9035,-2.9289,-2.9067,-2.8619,-2.8908,-2.8844,-2.8619,-2.8651,-2.8683,-2.8716,-2.878,-2.8972,-2.9194,-2.9257,-2.9477,-2.9634,-2.9383,-2.954,0.0,0.0,0.0,0.0,0.0,0.0,0.0,0.0,0.0,-3.0641,-3.0757,-3.1163,-3.1524,-3.1654,-3.2251,-3.2875,-3.3416,-3.3605,-3.3819,-3.4341,-3.4414,-3.4414,-3.4414,-3.4414,-3.4414,-3.4414,-3.4414,-3.4414,-3.4414,-3.4414,-3.4414,-3.4414,-3.453,-3.4835,-3.5378,-3.5508,-3.5886,-3.6504,-3.6504,-3.6823,-3.7476,-3.7476,-3.7738,-3.8202,-3.8202,-3.8202,-3.8202,-3.8202,-3.8202,-3.8202,-3.8202,-3.8202,-3.8202,-3.8202,-3.8202,-3.8202,-3.8202,-3.8202,-3.8202,0.0,0.0,0.0,0.0,0.0,0.0,0.0,0.0,-3.0192,-2.9814,-2.9906,-3.0065,-3.0262,-3.0353,-3.0302,-3.0062,-3.008,-3.0233,-3.0582,-3.0598,-3.0598,-3.0598,-3.0598,-3.0598,-3.0598,-3.0598,-3.0598,-3.0598,-3.0598,-3.0598,-3.0598,-3.0598,-3.0598,-3.0582,-3.0264,-2.9927,-2.9634,-2.9289,-2.8972,-2.8651,-2.8683,-2.8651,-2.8587,-2.8651,-2.8619,-2.8651,-2.894,-2.9035,-2.9099,-2.9383,-2.9509,-2.9602,-2.9896,-3.0019,-3.005,-2.9988,-3.0219,-3.0417,-3.008,-3.005,-3.0111,-3.0142,-3.0172,-3.0233,0.0,0.0,-3.0757,-3.1293,-3.1437,-3.1669,-3.2263,-3.2933,-3.3416,-3.3489,-3.3935,-3.4327,-3.4399,-3.4414,-3.4414,-3.4414,-3.4414,-3.4414,-3.4414,-3.4414,-3.4414,-3.4414,-3.4414,-3.4414,-3.4414,-3.4951,-3.5319,-3.5392,-3.5909,-3.6519,-3.7186,-3.7201,-3.7491,-3.8101,-3.8101,-3.813,-3.8202,-3.8202,-3.8202,-3.8202,-3.8202,-3.8202,-3.8202,-3.8202,-3.8202,-3.8202,-3.8202,-3.8202,-3.8202,-3.8202,-3.8202,-3.8202,0.0,0.0,0.0,0.0,0.0,0.0,0.0,0.0,0.0,-3.0383,-3.0564,-3.0697,-3.0484,-3.0284,-3.0307,-3.0591,-3.0311,-3.0233,-3.0582,-3.0598,-3.0598,-3.0598,-3.0598,-3.0598,-3.0598,-3.0598,-3.0598,-3.0598,-3.0598,-3.0598,-3.0598,-3.0598,-3.0598,-3.0582,-3.0264,-2.9927,-2.9571,-2.9226,-2.8908,-2.8619,-2.8812,-2.878,-2.8619,-2.8812,-2.878,-2.8619,-2.8748,-2.8812,0.0,-2.8972,-2.9162,-2.9383,-2.971,-2.9803,-2.9865,-3.005,-3.008,-3.0036,-3.008,-3.008,0.0,0.0,-3.0401,-3.0533,-3.1002,-3.1119,-3.1308,-3.193,-3.2396,-3.2745,-3.3021,-3.3587,-3.4008,0.0,-3.424,-3.4414,-3.4414,-3.4414,-3.4414,-3.4414,-3.4414,-3.4414,-3.4414,-3.4414,-3.4414,-3.4414,-3.4414,-3.4574,-3.4951,-3.5261,-3.5741,-3.6475,-3.6751,-3.7186,-3.7825,-3.7825,-3.7955,-3.8202,-3.8202,-3.8202,-3.8202,-3.8202,-3.8202,-3.8202,-3.8202,-3.8202,-3.8202,-3.8202,-3.8202,-3.8202,-3.8202,-3.8434,-3.8739,-3.8347,-3.8202,-3.826,0.0,0.0,0.0,0.0,0.0,0.0,0.0,0.0,0.0,0.0,-3.1375,-3.1512,-3.1014,-3.0618,-3.0639,-3.1236,-3.0711,-3.0477,-3.0829,-3.0699,-3.0598,-3.0598,-3.0598,-3.0598,-3.0598,-3.0598,-3.0598,-3.0598,-3.0598,-3.0598,-3.0598,-3.0598,-3.0598,-3.0582,-3.0264,-2.9927,-2.9571,-2.9226,-2.8908,-2.8619,-2.8844,-2.8812,-2.8619,-2.8876,-2.8812,-2.8619,-2.8683,-2.8748,-2.8748,-2.8844,-2.9035,-2.9289,-2.9509,-2.9665,-2.9772,-2.9927,-2.9865,-2.982,-3.0142,0.0,0.0,-3.0552,-3.0743,-3.0945,-3.1409,-3.1625,-3.1975,-3.2643,-3.3151,-3.3547,-3.3736,-3.4109,-3.4414,-3.4414,-3.4414,-3.4414,-3.4414,-3.4414,-3.4414,-3.4414,-3.4414,-3.4414,-3.4414,-3.4414,-3.4414,-3.4414,-3.4574,-3.4878,-3.5378,-3.5741,-3.633,-3.7273,-3.7462,-3.7767,-3.8202,-3.8202,-3.8202,-3.8202,-3.8202,-3.8202,-3.8202,-3.8202,-3.8202,-3.8202,-3.8202,-3.8202,-3.8202,-3.8202,-3.8318,-3.8478,-3.8478,-3.887,-3.9392,-3.8899,-3.8725,-3.8797,0.0,0.0,0.0,0.0,0.0,0.0,0.0,0.0,0.0,0.0,0.0,0.0,0.0,-3.1814,-3.158,-3.1954,-3.1354,-3.1094,-3.1451,-3.0916,-3.0598,-3.0598,-3.0598,-3.0598,-3.0598,-3.0598,-3.0598,-3.0598,-3.0598,-3.0598,-3.0598,-3.0598,-3.0598,-3.0582,-3.0264,-2.9927,-2.9571,-2.9226,-2.8908,-2.8587,-2.8619,-2.8619,-2.8587,-2.8619,-2.8619,-2.8651,-2.8972,-2.9067,-2.9131,-2.9446,-2.9571,-2.9571,-2.9602,-2.9834,-3.0019,-2.971,-2.9834,-3.0172,0.0,0.0,-3.0582,-3.0598,-3.1032,-3.1466,-3.1495,-3.1988,-3.2672,-3.3344,-3.3489,-3.3692,-3.4269,-3.4399,-3.4414,-3.4414,-3.4414,-3.4414,-3.4414,-3.4414,-3.4414,-3.4414,-3.4414,-3.4414,0.0,-3.4414,-3.4414,-3.4414,-3.498,-3.5378,-3.5392,-3.6562,-3.7259,-3.7302,-3.7868,-3.8188,-3.8202,-3.8202,-3.8202,-3.8202,-3.8202,-3.8202,-3.8202,-3.8202,-3.8202,-3.8202,-3.8202,-3.8202,-3.8202,-3.8202,-3.858,-3.9175,-3.9175,-3.9538,-4.006,-4.0046,-4.0046,-4.0046,0.0,0.0,0.0,0.0,0.0,0.0,0.0,0.0,0.0,0.0,0.0,0.0,0.0,0.0,0.0,0.0,-3.2381,-3.2052,-3.2147,-3.1569,-3.1206,-3.1206,-3.083,-3.0598,-3.0598,-3.0598,-3.0598,-3.0598,-3.0598,-3.0598,-3.0598,-3.0598,-3.0492,-3.0249,-3.0142,-2.9927,-2.9571,-2.9477,-2.9383,-2.9257,-2.9257,-2.9257,-2.9226,-2.9004,-2.894,-2.8908,0.0,-2.878,-2.878,-2.8908,-2.9067,-2.932,-2.954,-2.9665,-2.9803,-2.9896,0.0,0.0,0.0,0.0,-3.0714,-3.1105,-3.1366,-3.1743,-3.2614,-3.2991,-3.3325,-3.3964,-3.4095,-3.4167,-3.437,-3.4414,-3.4414,-3.4414,-3.4414,-3.4414,-3.4414,-3.4414,-3.4414,-3.4414,-3.4414,0.0,0.0,0.0,0.0,-3.5043,-3.5276,-3.577,-3.6606,-3.707,-3.7491,-3.7883,-3.8101,-3.8202,-3.8202,-3.8202,-3.8202,-3.8202,-3.8202,-3.8202,-3.8202,-3.8202,-3.8202,-3.8202,-3.8202,-3.8449,-3.887,-3.887,-3.9233,-3.9799,-3.9799,-4.0191,-4.0757,-4.0757,-4.1047,-4.1366,0.0,0.0,0.0,0.0,0.0,0.0,0.0,0.0,0.0,0.0,0.0,0.0,0.0,0.0,0.0,0.0,0.0,-3.2861,-3.2861,-3.2237,-3.1843,-3.1843,-3.1482,-3.1163,-3.0916,-3.0916,-3.083,-3.0598,-3.0598,-3.0552,-3.0431,-3.0552,-3.0431,-3.008,-3.008,-2.9988,-2.9772,-2.9634,-2.9666,-2.9722,-2.9512,-2.9491,-2.9531,-2.9214,-2.9099,0.0,-2.9004,-2.8972,-2.894,-2.8812,-2.8908,-2.9162,-2.9477,-2.9665,-2.982,0.0,0.0,0.0,0.0,-3.0772,-3.1003,-3.1409,-3.1874,-3.244,-3.33,-3.3678,-3.392,-3.4327,-3.4414,-3.4414,-3.4414,-3.4414,-3.4414,-3.4414,-3.4414,-3.4414,-3.4414,-3.4414,-3.4414,-3.4414,-3.4414,-3.4414,0.0,0.0,0.0,-3.5363,-3.561,-3.617,-3.7244,-3.7506,-3.7796,-3.8188,-3.8202,-3.8202,-3.8202,-3.8202,-3.8318,-3.8565,-3.8783,-3.8768,-3.8565,-3.8565,-3.8434,-3.8217,-3.8449,-3.8797,-3.9218,-3.9436,-3.9886,-4.0452,-4.0452,-4.0858,-4.1453,-4.152,-4.1797,-4.2034,0.0,0.0,0.0,0.0,0.0,0.0,0.0,0.0,0.0,0.0,0.0,0.0,0.0,0.0,0.0,0.0,0.0,0.0,-3.3547,-3.2919,-3.2571,-3.2571,-3.2527,-3.2191,-3.1553,-3.1538,-3.1279,-3.0699,-3.0699,-3.0533,-3.0211,-3.0533,-3.0472,-3.015,-3.015,-3.015,-3.0119,-2.9826,-2.9847,-3.0062,-2.9495,-2.9444,-2.9621,-2.9352,-2.9259,-2.9291,-2.9575,-2.9687,-2.9582,-2.924,0.0,0.0,0.0,0.0,0.0,0.0,0.0,-3.0612,-3.0641,-3.1061,-3.154,-3.1598,-3.2556,-3.3518,-3.3547,-3.3964,-3.4356,-3.4356,-3.4341,-3.4327,0.0,0.0,-3.437,-3.4399,-3.4414,-3.4414,-3.4414,-3.4414,-3.4414,0.0,0.0,0.0,0.0,0.0,0.0,-3.5494,0.0,-3.6649,-3.7317,-3.7897,-3.8202,-3.8202,-3.8202,-3.8217,-3.826,-3.8275,-3.8623,-3.9247,-3.9828,-3.9799,-3.9247,-3.9247,-3.8899,-3.8333,-3.8971,-3.9276,-3.9349,-3.9915,-4.0539,-4.1149,-4.1149,-4.1541,-4.2133,-4.2325,-4.2284,-4.2133,0.0,0.0,0.0,0.0,0.0,0.0,0.0,0.0,0.0,0.0,0.0,0.0,0.0,0.0,0.0,0.0,0.0,0.0,-3.4134,-3.3572,-3.3256,-3.3256,-3.2774,-3.2408,-3.2234,-3.2234,-3.2162,-3.2019,-3.2019,-3.1815,-3.1422,-3.1518,-3.1275,-3.0717,-3.0717,-3.0717,-3.0717,-3.0867,-3.1115,-3.1423,-3.1554,-3.1661,-3.1693,-3.1361,-3.1272,-3.1239,-3.1077,-3.0688,-3.0193,0.0,0.0,0.0,0.0,0.0,-3.0492,0.0,0.0,-3.0714,-3.1148,-3.1395,-3.1743,-3.273,-3.3256,-3.3634,-3.4066,-3.3935,-3.3736,-3.3736,-3.3325,-3.3151,0.0,0.0,0.0,-3.4341,-3.4414,0.0,-3.4414,-3.4414,0.0,-3.4414,0.0,-3.4603,-3.5116,-3.5305,0.0,0.0,-3.6954,-3.7317,-3.7941,-3.813,-3.8202,-3.8202,-3.8202,-3.8449,-3.8942,-3.9392,-3.9697,-3.9871,-4.0017,-4.0017,-3.9871,-3.9871,-3.977,-3.9625,-3.9799,-4.0147,-4.0626,-4.0771,-4.1236,-4.1845,-4.1845,-4.1947,-4.2133,-4.2325,-4.2351,-4.2351,0.0,0.0,0.0,0.0,0.0,0.0,0.0,0.0,0.0,0.0,0.0,0.0,0.0,0.0,0.0,0.0,0.0,0.0,0.0,-3.408,-3.3877,-3.3877,-3.3543,-3.3224,-3.2933,-3.2933,-3.2803,-3.2481,-3.2338,-3.2065,-3.1678,-3.1828,-3.1533,-3.0894,-3.1216,-3.1349,-3.1349,-3.1547,-3.1914,0.0,0.0,-3.2349,-3.2419,-3.2115,-3.2015,-3.1982,-3.195,-3.1522,0.0,0.0,0.0,-3.0142,-3.031,-3.0492,-3.0598,-3.0598,0.0,-3.1061,-3.1424,-3.1946,-3.2556,-3.3314,-3.3707,-3.3978,-3.4327,-3.392,-3.3503,-3.3503,-3.2962,0.0,-3.2977,0.0,0.0,0.0,0.0,0.0,-3.4414,-3.4414,-3.4414,0.0,-3.4414,0.0,-3.5334,-3.5654,-3.6199,0.0,-3.7302,-3.7564,-3.8173,-3.8202,-3.8202,-3.8202,-3.8202,-3.8522,-3.9189,-4.0089,-4.0539,-4.0539,-4.0829,-4.0815,-4.0539,-4.0539,-4.0379,-4.0118,0.0,-4.0782,-4.1266,-4.1558,-4.1907,-4.2242,-4.2242,-4.2242,-4.2242,-4.2474,-4.2541,-4.2622,0.0,0.0,0.0,0.0,0.0,0.0,0.0,0.0,0.0,0.0,-3.2266,0.0,0.0,0.0,0.0,0.0,0.0,0.0,0.0,0.0,-3.4414,-3.4414,-3.4414,-3.4167,-3.3634,-3.3634,-3.3325,-3.2742,-3.236,-3.1999,-3.1715,-3.1952,-3.1787,-3.1231,-3.182,-3.2084,-3.2084,-3.215,-3.2478,-3.2982,-3.252,-3.2454,-3.2631,0.0,-3.2323,-3.2356,-3.2576,0.0,0.0,0.0,-3.0931,-3.0172,-3.0172,-3.0371,-3.0598,-3.0598,-3.1032,-3.1509,-3.1596,-3.2542,-3.3518,-3.3605,-3.4008,-3.4385,-3.4312,-3.3804,-3.3344,-3.3256,0.0,-3.2249,-3.2336,-3.2919,-3.3402,-3.3489,0.0,-3.4414,-3.4414,-3.4414,-3.4414,-3.4414,-3.4486,-3.4791,-3.5465,-3.6069,-3.6722,-3.7375,-3.7418,-3.7688,-3.8173,-3.8202,-3.8246,-3.8333,-3.8405,-3.8783,-3.9489,-4.0641,-4.1276,-4.1276,-4.1816,-4.1787,-4.1262,-4.1221,-4.0942,-4.0434,0.0,0.0,-4.1573,-4.2117,-4.2392,-4.2433,-4.2392,-4.2433,-4.2474,-4.2769,-4.2915,-4.3021,0.0,0.0,0.0,0.0,0.0,0.0,0.0,0.0,0.0,0.0,-3.0946,-3.1105,0.0,0.0,0.0,0.0,0.0,0.0,0.0,0.0,0.0,-3.4414,-3.4414,-3.4356,-3.4254,-3.424,-3.4196,-3.408,-3.3661,-3.3443,-3.3374,-3.3154,-3.2981,-3.2891,-3.3016,-3.305,-3.3085,-3.334,-3.3548,-3.3668,-3.3888,-3.4004,-3.4057,-3.3989,0.0,0.0,0.0,0.0,0.0,0.0,-3.1305,-3.0507,-3.0507,-3.0552,-3.0598,-3.0598,-3.1032,-3.1611,-3.2162,-3.289,-3.3634,-3.4124,-3.4327,-3.4283,-3.3779,-3.3137,0.0,0.0,-3.1351,-3.1061,-3.1598,-3.2237,0.0,-3.3416,0.0,0.0,0.0,0.0,-3.4414,0.0,0.0,0.0,0.0,0.0,0.0,0.0,0.0,0.0,-3.8202,-3.8202,-3.8449,-3.9015,-3.9509,-4.0153,-4.1007,-4.1607,-4.2,-4.219,-4.2117,-4.2117,-4.219,-4.2,-4.1927,-4.2015,-4.1942,0.0,-4.2231,-4.2158,-4.2366,-4.2607,-4.2459,-4.25,-4.2729,-4.36,-4.3935,-4.4029,0.0,0.0,0.0,0.0,0.0,0.0,0.0,-3.0598,-3.0598,-3.0598,-3.0598,-3.0714,-3.0988,-3.0879,-3.1108,0.0,0.0,0.0,0.0,0.0,0.0,0.0,0.0,0.0,0.0,-3.4414,0.0,0.0,0.0,-3.3632,-3.3805,0.0,0.0,0.0,-3.3479,-3.3563,-3.3563,-3.3736,-3.3908,-3.4128,-3.4312,-3.4414,-3.4414,0.0,0.0,0.0,0.0,0.0,0.0,0.0,-3.224,-3.1495,-3.0978,-3.0707,-3.0598,-3.0598,-3.1264,-3.2075,-3.2394,-3.3224,-3.4037,-3.4341,-3.4167,-3.3848,-3.3576,0.0,0.0,0.0,-3.1018,-3.0786,-3.1409,0.0,0.0,0.0,0.0,0.0,0.0,0.0,0.0,0.0,0.0,0.0,0.0,0.0,0.0,0.0,0.0,0.0,-3.8366,-3.8366,-3.8635,-3.9175,-3.993,-4.0596,-4.1237,-4.1907,-4.2242,-4.2242,-4.2133,-4.2216,-4.2392,-4.2216,-4.2201,-4.2392,-4.2216,0.0,-4.2541,-4.2474,-4.2581,-4.2835,-4.2769,-4.2769,-4.2955,-4.3873,-4.3999,-4.3921,0.0,0.0,0.0,0.0,0.0,0.0,0.0,-3.0598,-3.0598,-3.0598,-3.0598,-3.0598,-3.0598,-3.0598,-3.0801,0.0,0.0,0.0,0.0,0.0,0.0,0.0,0.0,0.0,0.0,0.0,0.0,0.0,0.0,0.0,0.0,0.0,0.0,0.0,0.0,0.0,-3.3908,-3.3908,-3.4128,0.0,0.0,0.0,0.0,0.0,0.0,0.0,0.0,0.0,0.0,0.0,-3.3253,-3.2597,-3.176,-3.1209,-3.0786,-3.0641,-3.1395,-3.2278,-3.2278,-3.3104,-3.3974,-3.3974,-3.363,-3.3256,-3.3111,-3.2251,0.0,0.0,-3.1032,-3.093,-3.1424,0.0,0.0,0.0,0.0,0.0,0.0,0.0,0.0,0.0,0.0,0.0,0.0,0.0,0.0,0.0,0.0,0.0,-3.8516,-3.8441,-3.871,-3.9252,-4.0062,-4.0744,-4.1277,-4.2056,-4.2392,-4.2242,-4.2242,-4.2284,-4.2392,-4.2284,-4.2284,-4.2392,-4.2242,0.0,0.0,-4.2648,-4.2915,-4.3299,-4.3101,-4.326,-4.3663,-4.4282,-4.4324,-4.4313,0.0,0.0,0.0,0.0,0.0,0.0,0.0,-3.0598,-3.0598,-3.0598,-3.0598,-3.0598,-3.0598,-3.0598,-3.0627,0.0,0.0,0.0,0.0,0.0,0.0,0.0,0.0,0.0,0.0,0.0,0.0,0.0,0.0,0.0,0.0,0.0,0.0,0.0,0.0,0.0,0.0,0.0,0.0,0.0,0.0,0.0,0.0,0.0,0.0,0.0,0.0,0.0,0.0,0.0,0.0,-3.3402,-3.3311,-3.244,-3.1322,-3.0772,0.0,0.0,-3.1582,-3.2104,-3.2655,-3.2655,-3.2643,-3.244,-3.183,0.0,0.0,-3.0816,-3.1061,-3.1438,-3.148,-3.2542,-3.3431,0.0,0.0,-3.4414,0.0,0.0,0.0,0.0,0.0,0.0,0.0,0.0,0.0,0.0,0.0,0.0,0.0,-3.8329,-3.862,-3.9452,-4.0139,-4.0964,-4.1898,-4.2404,-4.2648,-4.2648,-4.2648,-4.2541,-4.2392,-4.2581,-4.2541,-4.2392,-4.2392,0.0,0.0,-4.25,-4.3195,-4.4282,-4.3379,-4.3997,-4.5478,-4.5551,-4.5937,-4.6609,0.0,0.0,0.0,0.0,0.0,0.0,-3.0598,-3.0598,-3.0598,-3.0598,-3.0598,-3.0598,-3.0598,-3.0598,-3.0598,-3.0598,0.0,0.0,0.0,0.0,0.0,0.0,0.0,0.0,0.0,0.0,0.0,-3.3805,0.0,0.0,0.0,0.0,0.0,0.0,0.0,0.0,0.0,0.0,0.0,0.0,0.0,0.0,0.0,0.0,0.0,0.0,0.0,0.0,0.0,0.0,0.0,0.0,-3.362,-3.314,0.0,0.0,-3.1322,-3.1495,-3.1495,-3.1973,-3.2481,-3.2481,-3.2191,-3.1814,-3.1553,0.0,0.0,-3.1119,-3.1337,-3.1758,-3.2556,-3.3155,-3.3634,-3.3978,0.0,0.0,0.0,0.0,0.0,0.0,0.0,0.0,0.0,0.0,0.0,0.0,0.0,0.0,0.0,-3.8811,-3.9032,-3.9656,-4.005,-4.0746,-4.1819,-4.202,-4.2225,-4.25,-4.2392,-4.2433,-4.2581,-4.2541,-4.2622,-4.2769,-4.2607,0.0,0.0,-4.3299,-4.3873,-4.451,-4.4571,-4.5058,-4.5769,-4.6198,-4.6435,-4.6716,0.0,0.0,0.0,0.0,0.0,-3.0598,-3.0598,-3.0598,-3.0598,-3.0598,-3.0598,-3.0598,-3.0598,-3.0598,-3.0598,-3.0598,-3.0598,0.0,0.0,0.0,0.0,0.0,0.0,0.0,0.0,0.0,-3.3736,-3.3667,-3.3632,0.0,0.0,0.0,0.0,0.0,0.0,0.0,0.0,0.0,0.0,0.0,0.0,0.0,0.0,0.0,0.0,0.0,0.0,0.0,0.0,0.0,0.0,0.0,0.0,0.0,0.0,0.0,-3.1495,-3.1451,-3.1293,-3.1584,-3.1946,-3.1946,-3.1584,-3.1235,0.0,0.0,0.0,-3.1424,-3.183,-3.2382,-3.3329,-3.3663,-3.3891,-3.4341,0.0,-3.4414,0.0,0.0,0.0,0.0,0.0,0.0,0.0,0.0,0.0,0.0,0.0,0.0,0.0,-3.9177,-3.9327,-3.9564,-3.9906,-4.0492,-4.1296,-4.1642,-4.1911,-4.2181,-4.2304,-4.2474,-4.2622,-4.2662,-4.2769,-4.2915,0.0,0.0,0.0,-4.3873,-4.445,-4.4924,-4.5478,-4.5985,-4.641,-4.6689,-4.685,-4.6972,0.0,0.0,0.0,0.0,0.0,0.0,-3.0598,-3.0598,-3.0598,-3.0598,-3.0598,-3.0598,-3.0598,-3.0598,-3.0598,-3.0598,-3.0598,0.0,0.0,0.0,0.0,0.0,0.0,0.0,0.0,0.0,-3.3632,-3.3304,-3.4025,-3.4196,-3.3805,-3.4196,0.0,0.0,0.0,0.0,0.0,0.0,0.0,0.0,0.0,0.0,0.0,0.0,0.0,0.0,0.0,0.0,0.0,0.0,0.0,0.0,0.0,0.0,0.0,0.0,-3.1495,-3.138,-3.0786,-3.0612,-3.0627,-3.0627,-3.0612,-3.0612,0.0,0.0,-3.148,-3.1495,-3.2556,-3.3489,-3.3503,-3.3978,-3.4399,-3.4414,-3.4414,0.0,0.0,0.0,0.0,0.0,0.0,0.0,0.0,0.0,0.0,0.0,0.0,0.0,0.0,-3.9388,-3.9301,-3.9119,-3.9728,-4.0196,-4.0427,-4.1454,-4.1912,-4.1705,-4.2564,-4.2769,-4.2433,-4.3025,-4.309,0.0,0.0,0.0,0.0,-4.3873,-4.4774,-4.5697,-4.5697,-4.6636,-4.7886,-4.7067,-4.7303,-4.7968,0.0,0.0,0.0,0.0,0.0,0.0,0.0,-3.0598,-3.0598,-3.0598,-3.0598,-3.0598,-3.0598,-3.0598,-3.0598,-3.0598,-3.0598,0.0,0.0,0.0,0.0,0.0,0.0,0.0,0.0,-3.3304,-3.3409,-3.3304,-3.377,-3.4059,-3.4196,-3.4059,-3.4059,-3.4196,0.0,0.0,0.0,0.0,0.0,0.0,0.0,0.0,0.0,0.0,0.0,0.0,0.0,0.0,0.0,0.0,0.0,0.0,0.0,0.0,0.0,-3.3093,-3.2222,0.0,-3.1279,-3.0901,-3.0598,-3.0598,-3.0598,-3.0714,-3.1119,0.0,-3.1772,-3.2672,-3.3213,-3.3634,-3.4037,-3.4283,-3.4414,-3.4414,-3.4414,0.0,0.0,0.0,0.0,0.0,0.0,0.0,0.0,0.0,0.0,0.0,0.0,0.0,0.0,-3.9388,-3.9373,-3.9301,-3.951,-3.986,-4.0397,-4.0591,-4.0908,-4.1276,-4.139,-4.1661,-4.2144,-4.2327,0.0,0.0,0.0,0.0,0.0,-4.5447,-4.6166,-4.6499,-4.7066,-4.7571,-4.7968,-4.7704,-4.777,-4.8001,0.0,0.0,0.0,0.0,0.0,0.0,0.0,-3.0598,-3.0598,-3.0598,-3.0598,-3.0598,-3.0598,-3.0598,-3.0598,-3.0598,-3.0598,0.0,0.0,0.0,0.0,0.0,0.0,0.0,-3.2889,-3.3164,-3.3304,-3.3304,-3.3805,-3.4162,-3.438,-3.4128,-3.4094,-3.4162,-3.4059,-3.4094,0.0,0.0,0.0,0.0,0.0,0.0,-3.4414,0.0,0.0,0.0,0.0,0.0,0.0,0.0,0.0,0.0,0.0,0.0,0.0,0.0,-3.3079,0.0,0.0,-3.1424,-3.093,-3.093,-3.0786,0.0,0.0,0.0,0.0,-3.3285,-3.3692,-3.3935,-3.4341,-3.4414,-3.4414,-3.4414,-3.4414,0.0,0.0,0.0,0.0,0.0,0.0,0.0,0.0,0.0,0.0,0.0,0.0,0.0,0.0,-3.9388,-3.9388,-3.9388,-3.9388,-3.9582,-3.9913,-4.0033,-4.0299,-4.0738,-4.0808,-4.1252,-4.2015,-4.2093,0.0,0.0,0.0,0.0,0.0,-4.6288,-4.6811,-4.688,-4.7671,-4.8001,-4.8001,-4.8001,-4.8001,-4.8001,0.0,0.0,0.0,0.0,0.0,0.0,0.0,-3.0598,-3.0598,-3.0598,-3.0598,-3.0598,-3.0598,-3.0598,-3.0598,-3.0598,0.0,0.0,0.0,0.0,0.0,0.0,0.0,0.0,-3.3276,-3.3304,-3.3339,-3.3339,-3.4025,-3.4346,-3.4346,-3.4346,-3.4128,-3.377,-3.4196,-3.4196,-3.3908,-3.423,-3.438,-3.4414,-3.4414,-3.4414,0.0,0.0,0.0,0.0,0.0,0.0,0.0,0.0,0.0,0.0,0.0,0.0,0.0,0.0,0.0,0.0,0.0,-3.206,-3.1495,-3.1495,0.0,0.0,0.0,0.0,0.0,0.0,-3.4008,-3.4414,-3.4414,-3.4414,-3.4414,-3.4414,0.0,0.0,0.0,0.0,0.0,0.0,0.0,0.0,0.0,0.0,0.0,0.0,0.0,0.0,0.0,-3.9313,-3.9328,-3.9388,-3.9388,-3.9301,-3.9104,-3.9728,-4.0055,-4.007,-4.0664,-4.1288,-4.1882,-4.2175,0.0,0.0,0.0,0.0,0.0,-4.6569,-4.6896,-4.6965,-4.7704,-4.8001,-4.8001,-4.8001,-4.8001,-4.8001,0.0,0.0,0.0,0.0,0.0,0.0,0.0,0.0,0.0,0.0,-3.0598,-3.0598,-3.0598,-3.0598,-3.0598,0.0,0.0,0.0,0.0,0.0,0.0,0.0,0.0,0.0,-3.3276,-3.3563,-3.3667,-3.3667,-3.3874,-3.3942,-3.3942,-3.3667,-3.3514,-3.3444,-3.4099,-3.4486,-3.462,-3.4147,-3.4128,-3.4414,-3.4414,-3.4414,0.0,0.0,0.0,0.0,-3.4414,-3.4414,0.0,0.0,0.0,0.0,0.0,0.0,0.0,0.0,-3.4312,-3.4153,-3.4008,0.0,-3.1495,-3.1495,-3.1047,-3.0903,0.0,0.0,0.0,0.0,0.0,0.0,0.0,0.0,0.0,0.0,0.0,0.0,0.0,0.0,0.0,0.0,0.0,0.0,0.0,0.0,0.0,0.0,0.0,0.0,0.0,-3.8631,-3.8799,-3.9162,-3.9301,-3.9388,-3.9337,-3.9501,-3.954,-3.9591,-3.974,-4.0144,-4.0801,-4.1384,0.0,0.0,0.0,0.0,-4.6604,-4.7371,-4.7704,-4.7737,-4.7935,-4.8001,-4.8001,-4.8001,-4.8001,-4.8001,0.0,0.0,0.0,0.0,0.0,0.0,0.0,0.0,0.0,0.0,0.0,-3.0598,-3.0598,-3.0598,0.0,0.0,0.0,0.0,0.0,0.0,0.0,0.0,0.0,-3.224,-3.35,-3.3701,-3.3805,-3.3805,-3.3991,-3.4094,-3.4094,-3.4133,-3.4119,-3.4065,-3.4725,-3.4971,-3.4902,-3.4572,-3.4419,-3.4414,-3.4414,0.0,0.0,0.0,0.0,0.0,-3.4414,-3.4414,0.0,-3.4414,-3.4414,-3.4414,0.0,0.0,0.0,0.0,-3.4414,-3.4414,-3.4414,-3.3224,-3.1944,-3.1944,-3.1264,-3.0916,-3.2222,0.0,0.0,0.0,0.0,0.0,0.0,0.0,0.0,0.0,0.0,0.0,0.0,0.0,0.0,0.0,0.0,0.0,0.0,0.0,0.0,0.0,0.0,0.0,0.0,-3.8392,-3.8671,-3.9199,-3.9337,-3.9337,-3.9265,-3.9337,-3.9388,-3.9409,-3.9753,-4.0248,-4.09,-4.1576,-4.288,0.0,0.0,0.0,-4.7371,-4.782,-4.8001,-4.8001,-4.8001,-4.8001,-4.8001,-4.8001,-4.8001,-4.8001,0.0,0.0,0.0,0.0,0.0,0.0,0.0,0.0,0.0,0.0,0.0,0.0,0.0,0.0,0.0,0.0,0.0,0.0,0.0,0.0,0.0,0.0,-3.2281,-3.2706,-3.3894,-3.3874,-3.3874,-3.3874,-3.4162,-3.4312,-3.4312,-3.4773,-3.4953,-3.492,-3.5201,-3.5169,-3.4887,-3.4938,-3.4754,-3.4414,-3.4414,0.0,0.0,0.0,0.0,0.0,0.0,0.0,0.0,-3.4414,-3.4414,-3.4414,-3.4414,0.0,0.0,0.0,0.0,0.0,-3.4414,-3.3452,-3.2481,-3.2481,-3.154,-3.0917,-3.2092,0.0,0.0,0.0,0.0,0.0,0.0,0.0,0.0,0.0,0.0,0.0,0.0,0.0,0.0,0.0,0.0,0.0,0.0,0.0,0.0,0.0,0.0,0.0,0.0,-3.8392,-3.8706,-3.9394,-3.932,-3.9196,-3.9141,-3.9301,-3.9445,-3.9589,-4.0216,-4.0824,-4.1453,-4.2166,-4.3637,0.0,0.0,0.0,-4.8001,-4.8001,-4.8001,-4.8001,-4.8001,-4.8001,-4.8001,-4.8001,-4.8001,-4.8001,0.0,0.0,0.0,0.0,0.0,0.0,0.0,0.0,0.0,0.0,0.0,0.0,0.0,0.0,0.0,0.0,0.0,0.0,0.0,0.0,0.0,-3.2452,-3.2988,-3.3593,-3.4283,-3.4312,-3.4312,-3.4312,-3.4025,-3.3874,-3.3874,-3.3977,-3.4351,-3.4868,-3.4031,-3.4133,-3.4868,-3.4283,-3.4147,-3.4414,-3.4414,0.0,0.0,0.0,0.0,0.0,0.0,0.0,0.0,-3.4414,-3.4414,-3.4414,-3.4414,0.0,0.0,0.0,0.0,0.0,-3.4414,-3.3452,-3.2481,-3.2481,-3.154,-3.0786,-3.1496,0.0,0.0,0.0,0.0,0.0,0.0,0.0,0.0,0.0,0.0,0.0,0.0,0.0,0.0,0.0,0.0,0.0,0.0,0.0,0.0,0.0,0.0,0.0,0.0,0.0,-3.8706,-3.9394,-3.8856,-3.8826,-3.9337,-3.9388,-3.9717,-4.032,-4.0443,-4.0867,-4.15,-4.2183,-4.3382,-4.4966,0.0,-4.6584,-4.8001,-4.8001,-4.8001,-4.8001,-4.8001,-4.8001,-4.8001,-4.8001,-4.8001,-4.8001,0.0,0.0,0.0,0.0,0.0,0.0,0.0,0.0,0.0,0.0,0.0,0.0,0.0,0.0,0.0,0.0,0.0,0.0,0.0,0.0,-3.2162,-3.2481,-3.3456,-3.4124,-3.4399,-3.4414,-3.4414,-3.4414,-3.4196,-3.4128,-3.4128,-3.4317,-3.4887,-3.5735,-3.4957,-3.4691,-3.4887,-3.4639,-3.4486,-3.4414,0.0,0.0,0.0,0.0,0.0,0.0,0.0,0.0,0.0,0.0,-3.4414,-3.4414,-3.4414,0.0,0.0,0.0,0.0,0.0,-3.3891,-3.2962,-3.2031,-3.2394,-3.154,-3.0772,-3.1366,0.0,0.0,0.0,0.0,0.0,0.0,0.0,0.0,0.0,0.0,0.0,0.0,0.0,0.0,0.0,0.0,0.0,0.0,0.0,0.0,0.0,0.0,0.0,0.0,0.0,-3.8706,-3.9394,-3.8751,-3.8702,-3.9404,-3.9039,-3.9429,-4.0512,-4.0873,-4.1393,-4.2126,-4.2782,-4.391,-4.5355,0.0,-4.6618,-4.8001,-4.8001,-4.8001,-4.8001,-4.8001,-4.8001,-4.8001,-4.8001,-4.8001,-4.8001,0.0,0.0,0.0,0.0,0.0,0.0,0.0,0.0,0.0,0.0,0.0,0.0,0.0,0.0,0.0,0.0,0.0,0.0,0.0,-3.1787,-3.2481,-3.2481,-3.3732,-3.4414,-3.4414,-3.4414,-3.4414,-3.4414,-3.4414,-3.4467,-3.4601,-3.4854,-3.5412,-3.6163,-3.5623,-3.5184,-3.4802,-3.4953,-3.4787,-3.4414,0.0,0.0,0.0,0.0,0.0,0.0,0.0,0.0,0.0,0.0,0.0,0.0,0.0,0.0,0.0,-3.3692,-3.3503,-3.3474,-3.3314,-3.2396,-3.1611,-3.215,-3.1424,-3.0728,0.0,0.0,0.0,0.0,0.0,0.0,0.0,0.0,0.0,0.0,0.0,0.0,0.0,0.0,0.0,0.0,0.0,0.0,0.0,0.0,0.0,0.0,0.0,0.0,0.0,0.0,-3.8871,-3.9373,-3.8601,-3.856,-3.9395,-3.8598,-3.9025,-4.0725,-4.124,-4.1949,-4.2851,-4.3372,-4.4324,-4.5533,-4.5715,-4.6527,-4.7752,-4.7934,-4.8001,-4.8001,-4.8001,-4.8001,-4.8001,-4.8001,-4.8001,-4.8001,0.0,0.0,0.0,0.0,0.0,0.0,0.0,0.0,0.0,0.0,0.0,0.0,0.0,0.0,0.0,0.0,0.0,0.0,0.0,-3.1787,-3.2481,-3.2481,-3.3732,-3.4414,-3.4414,-3.4414,-3.4414,-3.4414,-3.4414,-3.4668,-3.5136,-3.5169,-3.5234,-3.5267,-3.4735,-3.4481,-3.4448,-3.4448,-3.4448,-3.4414,-3.4414,0.0,0.0,0.0,0.0,0.0,0.0,0.0,0.0,0.0,0.0,0.0,0.0,0.0,-3.4283,-3.3692,-3.3503,-3.3373,-3.2745,-3.2031,-3.1495,-3.1553,-3.1076,0.0,-3.0656,-3.067,0.0,-3.2266,0.0,0.0,0.0,0.0,0.0,0.0,0.0,0.0,0.0,0.0,0.0,0.0,0.0,0.0,0.0,0.0,0.0,0.0,0.0,0.0,0.0,0.0,0.0,-3.9388,-3.8153,-3.8107,-3.9379,-3.8137,-3.8811,-4.1428,-4.1489,-4.2213,-4.3539,-4.3598,-4.4042,-4.4835,-4.5483,-4.6245,-4.7023,-4.7719,-4.8001,-4.8001,-4.8001,-4.8001,-4.8001,-4.8001,-4.8001,-4.8001,0.0,0.0,0.0,0.0,0.0,0.0,0.0,0.0,0.0,0.0,0.0,0.0,0.0,0.0,0.0,0.0,0.0,0.0,0.0,-3.1787,-3.2481,-3.2481,-3.3732,-3.4414,-3.4414,-3.4414,-3.4568,-3.4887,-3.4887,-3.5136,-3.564,-3.5019,-3.4887,-3.5169,-3.4635,-3.4414,-3.4414,-3.4414,-3.4414,-3.4414,-3.4414,-3.4414,0.0,0.0,0.0,0.0,0.0,0.0,0.0,0.0,-3.4414,-3.4414,-3.4414,-3.4414,-3.4211,-3.318,-3.2875,-3.273,-3.2046,-3.1424,-3.1032,-3.1424,-3.1047,0.0,0.0,-3.0872,-3.1308,-3.177,-3.2542,0.0,0.0,0.0,0.0,0.0,0.0,0.0,0.0,0.0,0.0,0.0,0.0,0.0,0.0,0.0,0.0,0.0,0.0,0.0,0.0,0.0,0.0,-3.9199,-3.8038,-3.8038,-3.9323,-3.806,-3.8555,-4.082,-4.1276,-4.1996,-4.292,-4.3383,-4.4009,-4.4735,-4.4986,-4.5781,-4.6924,-4.7206,-4.7587,-4.8001,-4.8001,-4.8001,-4.8001,-4.8001,-4.8001,-4.8001,0.0,0.0,0.0,0.0,0.0,0.0,0.0,0.0,0.0,0.0,0.0,0.0,0.0,0.0,0.0,0.0,0.0,0.0,-3.0598,-3.1787,-3.2481,-3.2481,-3.3732,-3.4481,-3.4635,-3.4668,-3.482,-3.5201,-3.5365,-3.5608,-3.5881,-3.5037,-3.4854,-3.5169,-3.4635,-3.4414,-3.4414,-3.4414,-3.4298,-3.4124,-3.4327,-3.4298,0.0,0.0,0.0,0.0,0.0,0.0,0.0,0.0,-3.4414,-3.4414,-3.4414,-3.4414,-3.4167,-3.2858,-3.2481,-3.2292,-3.1453,-3.0901,-3.0714,-3.1105,0.0,0.0,-3.0829,-3.1206,-3.1627,-3.2096,-3.3089,-3.3972,0.0,0.0,0.0,0.0,0.0,0.0,0.0,0.0,0.0,0.0,0.0,0.0,0.0,0.0,0.0,0.0,0.0,0.0,0.0,0.0,0.0,0.0,-3.8759,-3.8779,-3.9641,-3.8571,-3.8723,-4.0078,-4.0799,-4.1648,-4.2506,-4.3019,-4.3678,-4.4373,-4.4589,-4.5251,-4.6228,-4.6709,-4.7338,-4.8001,-4.8001,-4.8001,-4.8001,-4.8001,-4.8001,-4.8001,0.0,0.0,0.0,0.0,0.0,0.0,0.0,0.0,0.0,0.0,0.0,0.0,0.0,0.0,0.0,0.0,0.0,0.0,-3.0598,-3.1787,-3.2481,-3.2481,-3.3746,-3.4668,-3.5201,-3.5201,-3.5201,-3.5201,-3.5672,-3.5881,-3.5881,-3.5415,-3.5201,-3.5169,-3.4635,-3.4414,-3.4414,-3.4399,-3.4051,-3.3547,-3.4138,-3.4022,-3.3576,0.0,0.0,0.0,0.0,0.0,0.0,0.0,-3.4414,-3.4414,-3.4414,-3.4414,-3.4153,-3.2858,-3.2481,-3.2222,-3.093,-3.0598,-3.0598,0.0,0.0,0.0,-3.138,-3.1495,-3.192,-3.3407,-3.4244,-3.4631,-3.4448,0.0,0.0,0.0,0.0,0.0,0.0,0.0,0.0,0.0,0.0,0.0,0.0,0.0,0.0,0.0,0.0,0.0,0.0,0.0,0.0,0.0,-4.0451,-4.045,-4.0402,-3.9748,-3.938,-3.9315,-4.0044,-4.111,-4.2473,-4.2489,-4.2886,-4.3631,-4.4373,-4.4671,-4.4804,-4.6278,-4.7338,-4.8001,-4.8001,-4.8001,-4.8001,-4.8001,-4.8001,-4.8001,0.0,0.0,0.0,0.0,0.0,0.0,0.0,0.0,0.0,0.0,0.0,0.0,0.0,0.0,0.0,0.0,0.0,0.0,-3.0598,-3.1787,-3.2481,-3.2481,-3.4079,-3.5037,-3.5201,-3.5512,-3.5705,-3.5705,-3.5512,-3.5415,-3.5397,-3.4887,-3.4635,-3.4635,-3.4481,-3.4414,-3.4385,-3.3935,-3.3663,-3.3474,-3.318,-3.3238,-3.3518,0.0,0.0,0.0,0.0,0.0,0.0,0.0,0.0,0.0,-3.4414,-3.4109,-3.3587,-3.2759,-3.2162,-3.1642,-3.083,-3.0598,0.0,0.0,0.0,0.0,0.0,-3.2191,0.0,0.0,-3.4451,-3.4631,0.0,0.0,0.0,0.0,0.0,0.0,0.0,0.0,0.0,0.0,0.0,0.0,0.0,0.0,0.0,0.0,0.0,0.0,0.0,0.0,0.0,0.0,-3.9881,-3.9957,-4.0404,-3.9735,-3.938,-3.9299,-3.9514,-4.0127,-4.1044,-4.2054,-4.2605,-4.2853,-4.3628,-4.4224,-4.4787,-4.6083,-4.7141,-4.8001,-4.8001,-4.8001,-4.8001,-4.8001,-4.8001,-4.8001,0.0,0.0,0.0,0.0,0.0,0.0,0.0,0.0,0.0,0.0,-3.1117,-3.1117,0.0,0.0,0.0,0.0,0.0,0.0,-3.0598,-3.154,-3.2332,-3.2801,-3.4105,-3.5096,-3.5769,-3.5849,-3.5913,-3.5913,-3.5415,-3.5201,-3.5201,-3.4635,-3.4414,-3.4414,-3.4414,-3.4283,-3.4008,-3.3663,-3.3198,-3.2687,-3.2571,-3.2585,-3.2745,0.0,0.0,0.0,0.0,0.0,0.0,0.0,0.0,0.0,-3.4176,-3.386,-3.3412,-3.2555,-3.197,-3.1473,-3.0847,0.0,0.0,0.0,0.0,0.0,0.0,0.0,0.0,0.0,0.0,0.0,0.0,0.0,0.0,0.0,0.0,0.0,0.0,0.0,0.0,0.0,0.0,0.0,0.0,0.0,0.0,0.0,0.0,0.0,0.0,0.0,0.0,0.0,-4.0628,-4.0693,-4.0805,-4.0406,-3.99,-3.9299,-3.9299,-3.9531,-4.0011,-4.1143,-4.1988,-4.2539,-4.3267,-4.4075,-4.4931,-4.5849,-4.6908,-4.7982,-4.8,-4.8001,-4.8001,-4.8001,-4.8001,-4.8001,0.0,0.0,0.0,0.0,0.0,0.0,0.0,0.0,0.0,0.0,-3.1879,-3.1851,0.0,0.0,0.0,0.0,0.0,0.0,0.0,-3.1285,-3.2143,-3.3286,-3.4032,-3.5133,-3.6677,-3.618,-3.5881,-3.5849,-3.535,-3.5136,-3.5103,-3.4635,-3.4414,-3.4414,-3.4414,-3.4051,-3.3503,-3.3431,-3.269,-3.1569,-3.2121,-3.2004,-3.1687,-3.2879,0.0,0.0,0.0,0.0,0.0,0.0,0.0,0.0,-3.3758,-3.3604,-3.3325,-3.2292,-3.188,-3.1598,-3.0982,0.0,0.0,0.0,0.0,0.0,0.0,0.0,0.0,0.0,0.0,0.0,0.0,0.0,0.0,0.0,0.0,0.0,0.0,0.0,0.0,0.0,0.0,0.0,0.0,0.0,0.0,0.0,0.0,0.0,0.0,0.0,0.0,-4.1293,-4.2009,-4.2042,-4.1326,-4.1375,-4.0696,0.0,-3.9299,-3.9299,-3.9332,-4.0061,-4.116,-4.2522,-4.3201,-4.4105,-4.5125,-4.5464,-4.657,-4.7993,-4.7999,-4.7984,-4.8001,-4.8001,-4.8001,-4.8001,0.0,0.0,0.0,0.0,0.0,0.0,0.0,0.0,0.0,0.0,0.0,0.0,0.0,0.0,0.0,0.0,0.0,0.0,0.0,-3.2239,-3.296,-3.3744,-3.5309,-3.6338,-3.6677,-3.618,-3.5721,-3.5365,-3.482,-3.4568,-3.4568,-3.4433,-3.4414,-3.4414,-3.4414,-3.4051,-3.3474,-3.2933,-3.2329,-3.1681,-3.1331,-3.1465,-3.1908,-3.2094,-3.2549,0.0,0.0,0.0,0.0,0.0,0.0,0.0,-3.3128,-3.2794,-3.2307,-3.1967,-3.1557,-3.119,0.0,-3.0895,0.0,0.0,0.0,0.0,0.0,0.0,0.0,0.0,0.0,0.0,0.0,0.0,0.0,0.0,0.0,0.0,0.0,0.0,0.0,0.0,0.0,0.0,0.0,0.0,0.0,0.0,0.0,0.0,0.0,0.0,0.0,-4.058,-4.1293,-4.1309,-4.0613,-4.1143,-4.0696,0.0,-3.9299,-3.9299,-3.9332,-4.0061,-4.116,-4.2506,-4.2655,-4.3641,-4.5059,-4.4368,-4.5632,-4.7993,-4.7994,-4.7982,-4.8001,-4.8001,-4.8001,-4.8001,0.0,0.0,0.0,0.0,0.0,0.0,0.0,0.0,0.0,0.0,0.0,0.0,0.0,0.0,0.0,0.0,0.0,0.0,0.0,0.0,-3.2979,-3.4235,-3.607,-3.6968,-3.6723,-3.618,-3.5672,-3.5201,-3.4668,-3.4414,-3.4414,-3.4414,-3.4414,-3.4399,-3.4095,-3.3616,-3.2962,-3.2419,-3.1826,-3.1289,-3.1057,-3.119,-3.1588,-3.1792,-3.216,-3.2545,-3.2761,0.0,0.0,0.0,0.0,0.0,0.0,0.0,-3.2032,-3.1752,-3.1397,-3.1073,0.0,0.0,0.0,0.0,0.0,0.0,0.0,0.0,0.0,0.0,0.0,0.0,0.0,0.0,0.0,0.0,0.0,0.0,0.0,0.0,0.0,0.0,0.0,0.0,0.0,0.0,0.0,0.0,0.0,0.0,0.0,-3.9299,-3.9647,-4.0393,-4.1061,-4.1077,-4.0409,-4.1061,-4.0696,-3.9299,-3.9299,-3.9299,-3.9332,-4.0061,-4.0978,-4.1976,-4.234,-4.3214,-4.4337,-4.3814,-4.4504,-4.6011,-4.7443,-4.7993,-4.7982,-4.7999,-4.7984,-4.8001,0.0,0.0,0.0,0.0,0.0,0.0,0.0,0.0,0.0,0.0,0.0,0.0,0.0,0.0,0.0,0.0,0.0,0.0,0.0,0.0,0.0,-3.4614,-3.6287,-3.701,-3.6585,-3.6054,-3.5608,-3.5201,-3.4668,-3.4414,-3.4414,-3.4414,-3.4356,-3.4225,-3.3736,-3.3082,-3.2341,-3.1944,-3.1437,-3.091,-3.1073,-3.1132,-3.122,-3.1692,-3.1899,-3.1973,-3.2519,-3.2696,-3.2696,-3.2727,0.0,0.0,0.0,0.0,-3.2005,-3.1602,-3.1336,-3.119,0.0,0.0,0.0,0.0,0.0,0.0,0.0,0.0,0.0,0.0,0.0,0.0,0.0,0.0,0.0,0.0,0.0,0.0,0.0,0.0,0.0,0.0,0.0,0.0,0.0,0.0,0.0,0.0,0.0,0.0,-3.9299,-3.9299,-3.958,-4.0194,-4.0978,-4.1077,-4.0409,-4.1061,-4.0763,-3.9497,-3.9365,-3.9299,-3.9315,-3.9928,-4.058,-4.1276,-4.1926,-4.2721,-4.3608,-4.3597,-4.3605,-4.385,-4.6286,-4.7623,-4.8172,-4.8044,-4.8014,-4.8016,0.0,0.0,0.0,0.0,0.0,0.0,0.0,0.0,0.0,0.0,-3.2508,-3.2089,0.0,0.0,0.0,0.0,0.0,0.0,0.0,0.0,0.0,-3.4585,-3.5466,-3.5952,-3.6008,-3.5544,-3.5267,-3.5201,-3.4668,-3.4414,-3.4414,-3.4414,-3.4124,-3.3634,-3.3547,-3.2885,-3.1873,-3.1831,-3.1588,-3.1234,-3.1263,-3.1351,-3.1424,-3.1426,-3.1455,-3.1558,-3.1545,-3.1515,-3.1545,-3.1677,-3.1618,0.0,0.0,0.0,0.0,-3.138,-3.138,-3.1424,0.0,0.0,0.0,0.0,0.0,0.0,0.0,0.0,0.0,0.0,0.0,0.0,0.0,0.0,0.0,0.0,0.0,0.0,0.0,0.0,0.0,0.0,0.0,0.0,0.0,0.0,0.0,0.0,0.0,0.0,-3.9299,-3.9299,-3.9348,-3.9448,-4.0713,-4.1077,-4.0409,-4.1061,-4.1011,-4.026,-3.9613,-3.9299,-3.9299,-3.9398,-3.9846,-4.0547,-4.0805,-4.1943,-4.3598,-4.3608,-4.3611,-4.3641,-4.4035,-4.6122,-4.881,-4.8202,-4.799,-4.8007,0.0,0.0,0.0,0.0,0.0,0.0,0.0,0.0,0.0,0.0,0.0,-3.2256,0.0,0.0,0.0,0.0,0.0,0.0,0.0,0.0,0.0,-3.4616,-3.5685,-3.6029,-3.5512,-3.5299,-3.5118,-3.4902,-3.4582,-3.4326,-3.4175,-3.4061,-3.3831,-3.3489,-3.3176,-3.2601,-3.1788,-3.1603,-3.1427,-3.1307,-3.138,-3.1438,-3.1511,-3.1438,-3.1438,-3.1511,-3.1438,-3.1409,-3.1409,-3.1467,-3.1467,-3.1409,-3.1467,0.0,0.0,0.0,0.0,0.0,-3.1322,0.0,0.0,0.0,0.0,0.0,0.0,0.0,0.0,0.0,0.0,0.0,0.0,0.0,0.0,0.0,0.0,0.0,0.0,0.0,0.0,0.0,0.0,0.0,0.0,0.0,0.0,0.0,0.0,-3.9299,-3.9299,-3.9299,-3.9299,-3.9299,-4.0282,-4.0696,-4.0409,-4.068,-4.0464,-3.9779,-3.9448,-3.9299,-3.9299,-3.9299,-3.9746,-4.0569,-4.0656,-4.1794,-4.3623,-4.361,-4.3608,-4.3602,-4.3597,-4.5793,-4.8954,-4.8671,-4.8562,-4.8549,0.0,0.0,0.0,0.0,0.0,0.0,0.0,0.0,0.0,0.0,0.0,0.0,0.0,0.0,0.0,0.0,0.0,0.0,0.0,0.0,0.0,-3.4847,-3.5683,-3.5738,-3.4857,-3.4711,-3.4531,-3.4266,-3.4134,-3.3937,-3.3726,-3.3583,-3.3381,-3.3092,-3.2691,-3.22,-3.166,-3.1412,-3.1322,-3.1351,-3.1467,-3.1511,-3.1511,-3.1511,-3.1511,-3.1511,-3.1511,-3.1511,-3.1511,-3.1511,0.0,0.0,0.0,0.0,0.0,0.0,0.0,0.0,0.0,0.0,0.0,0.0,0.0,0.0,0.0,0.0,0.0,0.0,0.0,0.0,0.0,0.0,0.0,0.0,0.0,0.0,0.0,0.0,0.0,0.0,0.0,0.0,0.0,0.0,0.0,0.0,0.0,-3.9299,-3.9299,-3.9299,-3.9299,-3.9299,-4.0028,-4.0492,-4.0647,-4.0647,-4.021,-3.9299,-3.9325,-3.9352,-3.9352,-3.9345,-3.9704,-4.0336,-4.0348,-4.1184,-4.2567,-4.3311,-4.3702,-4.386,-4.3846,-4.5962,-4.8978,-4.8984,-4.8998,-4.9005,0.0,0.0,0.0,0.0,0.0,0.0,0.0,0.0,0.0,0.0,0.0,0.0,-3.2559,-3.2815,-3.2895,-3.2614,-3.3481,-3.4367,-3.5062,-3.5807,-3.6023,-3.5483,-3.4979,0.0,-3.3895,-3.3358,-3.3107,-3.3075,-3.3075,-3.3061,-3.3048,-3.3048,-3.2693,-3.2073,-3.2044,-3.1781,-3.1337,-3.1292,-3.138,-3.1511,-3.1511,-3.1511,-3.1511,-3.1511,-3.1511,-3.1511,-3.1511,0.0,0.0,0.0,0.0,0.0,0.0,0.0,0.0,0.0,0.0,0.0,0.0,0.0,0.0,0.0,0.0,0.0,0.0,0.0,0.0,0.0,0.0,0.0,0.0,0.0,0.0,0.0,0.0,0.0,0.0,0.0,0.0,0.0,0.0,0.0,0.0,0.0,0.0,0.0,0.0,-3.9299,-3.9299,-3.9299,-3.9299,-3.9299,-4.0028,-4.0696,-4.1359,-4.1359,-4.0663,-3.9299,-3.9448,-3.9501,-3.9501,-3.9489,-3.9458,-3.9363,-3.9358,-3.9425,-3.9741,-4.2469,-4.3969,-4.4536,-4.4549,-4.638,-4.901,-4.9005,-4.9006,-4.8987,0.0,0.0,0.0,0.0,0.0,0.0,0.0,0.0,0.0,0.0,0.0,0.0,0.0,-3.4467,-3.4845,-3.4968,-3.4858,-3.4725,-3.4505,-3.4824,-3.4777,-3.4248,-3.4094,-3.3774,-3.3285,-3.3083,-3.3035,-3.3145,-3.3035,-3.289,-3.269,-3.2553,-3.2212,-3.1693,-3.199,-3.1812,-3.1307,-3.138,-3.1467,-3.1511,-3.1511,-3.1511,-3.1511,-3.1511,-3.1511,0.0,0.0,0.0,0.0,0.0,0.0,0.0,0.0,0.0,0.0,0.0,0.0,0.0,0.0,0.0,0.0,0.0,0.0,0.0,0.0,0.0,0.0,0.0,0.0,0.0,0.0,0.0,0.0,0.0,0.0,0.0,0.0,0.0,0.0,0.0,0.0,0.0,0.0,0.0,0.0,0.0,0.0,0.0,-3.9299,-3.9299,-3.9299,-3.9299,-3.9564,-4.0044,-4.0746,-4.0746,-4.0553,-4.012,-3.9691,-3.9554,-3.9642,-3.9551,-3.9518,-3.9551,-3.9361,-4.037,-4.2172,-4.3631,-4.4389,-4.4596,-4.4594,-4.5244,-4.6406,-4.8307,-4.9002,-4.9001,0.0,0.0,0.0,0.0,0.0,0.0,0.0,0.0,0.0,-3.425,0.0,0.0,0.0,0.0,-3.5768,-3.5817,-3.5522,-3.5154,-3.4766,-3.5053,-3.4958,-3.4381,-3.4226,-3.3908,-3.3373,-3.2941,-3.2867,-3.3212,-3.2691,-3.2436,-3.246,-3.2138,-3.1797,-3.1525,-3.1827,-3.1752,-3.138,-3.1467,-3.1511,-3.1511,-3.1511,-3.1511,-3.1511,-3.1511,0.0,0.0,0.0,0.0,0.0,0.0,0.0,0.0,0.0,0.0,0.0,0.0,0.0,0.0,-3.1511,0.0,0.0,0.0,0.0,0.0,0.0,0.0,0.0,0.0,0.0,0.0,0.0,0.0,0.0,0.0,0.0,0.0,0.0,0.0,0.0,0.0,0.0,0.0,0.0,0.0,0.0,0.0,0.0,0.0,-3.9299,-3.9299,-3.9299,-3.9299,-3.9547,-3.9796,-4.0028,-4.0304,-4.0402,-4.0234,-3.984,-3.9694,-3.9755,-3.9714,-3.974,-3.9816,-3.9651,-4.0648,-4.2532,-4.3995,-4.4598,-4.4592,-4.4586,-4.4606,-4.4943,-4.7899,-4.9008,-4.8995,0.0,0.0,0.0,0.0,0.0,0.0,0.0,0.0,-3.5487,-3.62,0.0,0.0,0.0,0.0,0.0,-3.4975,-3.5358,-3.5703,-3.5951,-3.6613,-3.6696,-3.5984,-3.5361,-3.4739,-3.4092,-3.2765,-3.2451,-3.3172,-3.192,-3.1655,-3.237,-3.1768,-3.1511,-3.1511,-3.1511,-3.1511,-3.1511,-3.1511,-3.1511,-3.1511,0.0,-3.1511,-3.1511,0.0,0.0,0.0,-3.1511,-3.1511,0.0,-3.1511,0.0,0.0,0.0,0.0,0.0,0.0,0.0,0.0,0.0,0.0,0.0,0.0,0.0,0.0,0.0,0.0,0.0,0.0,0.0,0.0,0.0,0.0,0.0,0.0,0.0,0.0,0.0,0.0,0.0,0.0,0.0,0.0,0.0,0.0,0.0,0.0,0.0,-3.9299,-3.9299,-3.9299,-3.9299,-3.9299,-3.9995,-4.0044,-3.9348,-4.018,-4.0251,-3.9561,-3.9806,-3.9918,-3.9901,-4.0037,-4.0096,-4.0096,-4.0096,-4.0118,-4.0407,-4.336,-4.4603,-4.4615,-4.4615,-4.4592,-4.4933,-4.7856,-4.8967,-4.8978,0.0,0.0,0.0,0.0,0.0,-3.6048,-3.6244,-3.6121,-3.6054,0.0,0.0,0.0,-3.6545,-3.664,-3.6431,-3.576,-3.5803,-3.5687,-3.523,-3.5038,-3.483,-3.4634,-3.4063,-3.364,-3.3449,-3.2723,-3.2427,-3.2614,-3.1825,-3.1545,-3.1754,-3.1582,-3.1511,-3.1511,-3.1511,-3.1511,-3.1511,-3.1511,0.0,-3.1511,-3.1511,-3.1511,0.0,0.0,0.0,0.0,0.0,-3.1511,-3.1511,0.0,-3.1511,-3.1511,0.0,0.0,0.0,0.0,0.0,0.0,-3.1511,0.0,0.0,0.0,0.0,0.0,0.0,0.0,0.0,0.0,0.0,0.0,0.0,0.0,0.0,0.0,0.0,0.0,0.0,0.0,0.0,0.0,0.0,0.0,0.0,0.0,0.0,0.0,-3.9299,-3.9299,-3.9299,-3.9299,-3.9299,-3.9299,-3.9578,-3.9914,-4.0247,-4.0581,-4.0699,-4.0594,-4.0666,-4.0483,-4.0062,-4.007,-4.0096,-4.0096,-4.0096,-4.0713,-4.1839,-4.3793,-4.4593,-4.4615,-4.4615,-4.4592,-4.482,-4.6726,-4.8095,-4.8978,0.0,0.0,0.0,0.0,0.0,-3.6971,-3.7284,-3.7187,-3.7081,0.0,0.0,0.0,-3.6452,-3.6538,-3.634,-3.5611,-3.5545,-3.5363,-3.4932,-3.4594,-3.4423,-3.4423,-3.4102,-3.391,-3.391,-3.3075,-3.2788,-3.3113,-3.2214,-3.1913,-3.2201,-3.1979,-3.1881,-3.1853,-3.1611,-3.1511,-3.1511,-3.1511,0.0,0.0,-3.1511,0.0,0.0,-3.1511,-3.1511,0.0,0.0,0.0,-3.1511,-3.1511,-3.1511,0.0,0.0,0.0,0.0,0.0,0.0,0.0,-3.1796,-3.1881,0.0,0.0,0.0,0.0,0.0,-3.3475,0.0,0.0,0.0,0.0,0.0,0.0,0.0,0.0,0.0,0.0,0.0,0.0,0.0,0.0,0.0,0.0,0.0,0.0,0.0,-3.9282,-3.9299,-3.9299,-3.9299,-3.9299,-3.9299,-3.9299,-3.9432,-3.9701,-4.0151,-4.0347,-4.063,-4.0995,-4.0753,-4.0662,-4.0714,-4.0282,-4.0096,-4.0096,-4.0096,-4.0942,-4.2414,-4.3943,-4.4606,-4.4615,-4.4615,-4.4598,-4.4715,-4.5571,-4.7196,-4.8929,0.0,0.0,-3.735,-3.735,-3.735,-3.7549,-3.8129,-3.8186,-3.8179,0.0,-3.803,-3.7433,-3.6025,-3.5876,-3.5611,-3.4965,-3.4899,-3.4899,-3.4899,-3.4899,-3.4899,-3.4899,-3.4899,-3.4899,-3.4899,-3.3738,-3.3453,-3.4101,-3.2844,-3.2546,-3.3198,-3.2641,-3.2398,-3.237,-3.1768,0.0,-3.1511,0.0,0.0,-3.1511,-3.1511,-3.1511,0.0,0.0,-3.1511,-3.1511,-3.1511,-3.1511,-3.1511,-3.1511,-3.1511,0.0,0.0,0.0,0.0,0.0,-3.1671,0.0,-3.245,-3.2662,-3.2983,0.0,0.0,0.0,-3.4799,-3.4587,-3.4332,0.0,0.0,0.0,0.0,0.0,0.0,0.0,0.0,0.0,0.0,0.0,0.0,0.0,0.0,0.0,0.0,-3.8136,-3.8477,-3.9133,-3.9249,-3.9299,-3.9299,-3.9299,-3.9299,-3.9299,-3.9432,-3.9528,-3.9528,-3.9882,-4.033,-4.0896,-4.0535,-4.0731,-4.14,-4.0595,-4.018,-4.0096,-4.0096,-4.0942,-4.2398,-4.378,-4.446,-4.4615,-4.4615,-4.4615,-4.4604,-4.4675,-4.6387,-4.857,0.0,0.0,-3.8884,-3.8884,-3.8884,-3.8709,-3.8278,-3.8186,-3.7996,-3.74,-3.6804,-3.6092,-3.5214,-3.5114,-3.5048,-3.4916,-3.4899,-3.4899,-3.4899,-3.4899,-3.4899,-3.4899,-3.4899,-3.4899,-3.4899,-3.4227,-3.3955,-3.4101,-3.3348,-3.3056,-3.3198,-3.2641,-3.2398,-3.237,-3.1768,-3.1511,-3.1511,0.0,0.0,-3.1511,-3.1511,0.0,-3.1511,-3.1511,-3.1511,-3.1511,-3.1511,-3.1511,-3.1511,-3.1511,-3.1511,-3.1511,0.0,0.0,0.0,0.0,0.0,0.0,0.0,0.0,0.0,0.0,0.0,0.0,-3.5745,-3.5324,-3.4917,0.0,0.0,0.0,0.0,0.0,0.0,0.0,0.0,0.0,0.0,0.0,0.0,0.0,0.0,0.0,0.0,-3.7864,-3.8278,-3.8411,-3.8941,-3.9299,-3.9299,-3.9299,-3.9299,-3.9299,-3.952,-3.9651,-3.9651,-4.0516,-4.0721,-4.0282,-4.1356,-4.1365,-4.04,-4.0781,-4.0646,-4.0096,-4.0096,-4.0942,-4.233,-4.2603,-4.3484,-4.4615,-4.4615,-4.4615,-4.4654,-4.5285,-4.5952,-4.6695,0.0,-3.9299,-3.9183,-3.8808,-3.8742,-3.8493,-3.7765,-3.7665,-3.74,-3.6655,-3.5909,-3.5313,-3.4932,-3.4899,-3.4899,-3.4899,-3.4899,-3.4899,-3.4899,-3.4899,-3.4899,-3.4899,-3.4899,-3.4899,-3.4899,-3.4374,-3.4101,-3.4101,-3.379,-3.3646,-3.3646,-3.3055,-3.2788,-3.2761,-3.1894,-3.1511,-3.1511,0.0,-3.1511,-3.1511,-3.1511,0.0,-3.1511,-3.1511,-3.1511,-3.1511,-3.1511,-3.1511,-3.1511,-3.1511,-3.1511,0.0,0.0,-3.1511,-3.1611,0.0,-3.2672,-3.3218,0.0,0.0,0.0,-3.6424,0.0,0.0,0.0,-3.6296,0.0,0.0,0.0,0.0,0.0,0.0,0.0,0.0,0.0,0.0,0.0,0.0,0.0,0.0,0.0,0.0,0.0,-3.6887,-3.7417,-3.8146,-3.8874,-3.9299,-3.9299,-3.9299,-3.9325,-3.9405,-3.9616,-3.9729,-3.9781,-4.0357,-4.0646,-4.0646,-4.139,-4.1952,-4.2347,-4.1784,-4.1299,-4.0841,-4.0557,-4.095,-4.1779,-4.2151,-4.3134,-4.4431,-4.4807,-4.4944,-4.5022,-4.5652,-4.6199,-4.6682,-3.8884,-3.8884,-3.8676,-3.8096,-3.7971,-3.7748,-3.7003,-3.6903,-3.6622,-3.5876,-3.5263,-3.4899,-3.4899,-3.4899,-3.4899,-3.4899,-3.4899,-3.4899,-3.4899,-3.4899,-3.4899,-3.4899,-3.4899,-3.4899,-3.4899,-3.4472,-3.425,-3.425,-3.425,-3.425,-3.425,-3.3527,-3.3182,-3.3145,-3.1992,-3.1511,-3.1511,0.0,0.0,-3.1511,0.0,-3.1511,-3.1511,-3.1511,-3.1511,-3.1511,-3.1511,-3.1511,-3.1511,-3.1511,0.0,-3.164,-3.1539,-3.1582,0.0,0.0,0.0,0.0,0.0,0.0,0.0,0.0,0.0,-3.75,0.0,0.0,0.0,0.0,0.0,0.0,0.0,0.0,0.0,0.0,0.0,0.0,0.0,0.0,0.0,0.0,0.0,0.0,0.0,-3.6125,-3.6771,-3.8086,-3.8874,-3.9299,-3.9299,-3.9325,-3.9395,-3.9501,-3.9668,-3.9781,-3.9901,-4.0037,-4.0417,-4.0984,-4.1136,-4.2157,-4.392,-4.2498,-4.1763,-4.1631,-4.1085,-4.1071,-4.1529,-4.2278,-4.328,-4.4396,-4.5036,-4.5355,-4.5511,-4.5925,-4.6477,-4.7021,-3.735,-3.735,-3.7317,-3.7251,-3.7235,-3.6986,-3.6241,-3.6125,-3.586,-3.5114,-3.4949,-3.4899,-3.4899,-3.4899,-3.4899,-3.4899,-3.4899,-3.4899,-3.4899,0.0,-3.4899,-3.4899,-3.4899,-3.4899,-3.4899,-3.4851,-3.4804,-3.4804,-3.4804,-3.4804,-3.4804,-3.3691,-3.3182,-3.3145,-3.1992,0.0,0.0,0.0,-3.1511,0.0,-3.1511,-3.1511,0.0,-3.1511,-3.1511,-3.1511,-3.1511,-3.1511,-3.1511,0.0,-3.1853,-3.2203,0.0,-3.1853,-3.241,0.0,0.0,0.0,0.0,0.0,0.0,0.0,-3.856,0.0,0.0,0.0,0.0,0.0,0.0,0.0,0.0,0.0,0.0,0.0,0.0,0.0,0.0,0.0,0.0,0.0,0.0,0.0,0.0,0.0,-3.7334,-3.8146,-3.8874,-3.9299,-3.9299,-3.9405,-3.9484,-3.9501,-3.9746,-3.9901,-3.9901,-4.0037,-4.0146,-4.0231,-4.0882,-4.1348,-4.1586,-4.163,-4.1709,-4.1832,-4.1233,-4.1521,-4.2504,-4.3296,-4.4089,-4.4858,-4.5174,-4.5588,-4.6017,-4.6074,-4.6151,-4.6326,-3.6936,-3.7102,-3.697,-3.6539,-3.6456,-3.6224,-3.5479,-3.5363,-3.5247,-3.4932,-3.4899,-3.4899,-3.4899,0.0,0.0,0.0,0.0,-3.4899,0.0,0.0,-3.4899,-3.4899,-3.4899,-3.4899,-3.4899,-3.4899,-3.4899,-3.4899,-3.4899,-3.4739,-3.4423,-3.3604,-3.3182,-3.3145,-3.1992,0.0,-3.1994,0.0,-3.1511,0.0,0.0,0.0,0.0,-3.164,-3.1511,-3.1568,-3.191,-3.2007,-3.2064,0.0,-3.2449,0.0,0.0,0.0,0.0,0.0,0.0,0.0,0.0,0.0,0.0,0.0,0.0,0.0,-3.8278,0.0,-3.8626,0.0,0.0,0.0,0.0,0.0,0.0,0.0,0.0,0.0,0.0,0.0,0.0,0.0,0.0,0.0,0.0,0.0,0.0,0.0,0.0,-3.8956,-3.9388,-3.9537,-3.9668,-3.972,-3.9849,-3.9952,-4.0011,-4.0087,-4.0246,-4.0524,-4.1235,-4.1744,-4.2037,-4.2888,-4.2946,-4.23,-4.2441,-4.2295,-4.2038,-4.3214,-4.4096,-4.4825,-4.5834,-4.6358,-4.6613,-4.6908,-4.7039,-4.7075,-3.629,-3.6506,-3.634,-3.5794,-3.5694,-3.5512,-3.4982,-3.4899,-3.4899,-3.4899,-3.4899,0.0,-3.4899,-3.4899,0.0,0.0,-3.4899,-3.4899,0.0,0.0,-3.4899,0.0,0.0,0.0,0.0,-3.4899,-3.4899,-3.4899,-3.4899,-3.479,-3.4618,-3.3995,-3.3815,-3.3964,0.0,-3.2463,-3.2647,0.0,0.0,-3.1768,-3.2231,-3.2492,-3.2574,-3.1951,-3.1754,-3.1796,-3.2231,-3.2492,-3.2668,-3.3066,-3.3055,0.0,-3.3119,0.0,0.0,0.0,0.0,0.0,-3.5399,0.0,0.0,0.0,0.0,0.0,0.0,0.0,0.0,0.0,0.0,0.0,0.0,0.0,0.0,0.0,0.0,0.0,0.0,0.0,0.0,0.0,0.0,0.0,0.0,0.0,0.0,-3.6887,-3.7928,-3.8747,-3.9151,-3.9551,-3.9781,-3.9901,-3.9952,-3.9986,-4.0096,-4.0246,-4.0458,-4.0802,-4.1479,-4.2062,-4.2652,-4.3757,-4.3833,-4.3137,-4.364,-4.3215,-4.2296,-4.355,-4.4351,-4.4943,-4.652,-4.7107,-4.7169,-4.7572,-4.7717,-4.7717,-3.4965,-3.4965,-3.4965,0.0,0.0,0.0,0.0,0.0,0.0,0.0,0.0,0.0,0.0,0.0,0.0,0.0,0.0,-3.4899,-3.4899,0.0,-3.4899,0.0,0.0,-3.4899,0.0,0.0,-3.4899,-3.4899,-3.4899,-3.5263,-3.5935,-3.5335,-3.5402,-3.6049,-3.4851,-3.3981,-3.3411,-3.2733,-3.2414,-3.237,-3.2398,-3.2722,-3.3119,0.0,-3.237,-3.237,-3.2398,0.0,0.0,-3.3182,-3.3594,0.0,0.0,0.0,0.0,0.0,0.0,0.0,0.0,0.0,0.0,-3.6025,0.0,0.0,0.0,0.0,-3.8219,0.0,0.0,0.0,0.0,0.0,0.0,0.0,0.0,0.0,0.0,0.0,0.0,0.0,0.0,0.0,0.0,0.0,0.0,-3.6535,-3.7988,-3.8748,-3.8444,-3.9344,-3.9901,-3.9901,-4.0037,-4.0113,-4.0096,-4.0556,-4.0778,-4.0802,-4.1271,-4.1898,-4.2612,-4.3319,-4.3928,-4.4442,-4.4446,-4.4287,-4.4075,-4.4907,-4.5251,-4.5434,-4.7063,-4.7678,-4.7696,-4.7678,-4.7717,-4.7717,0.0,-3.4899,-3.4899,0.0,0.0,0.0,0.0,-3.4899,0.0,0.0,0.0,0.0,0.0,-3.4899,-3.4899,0.0,0.0,-3.4899,-3.4899,-3.4899,0.0,0.0,0.0,-3.4899,0.0,0.0,0.0,0.0,-3.5628,-3.5803,-3.613,-3.5932,-3.594,-3.6167,0.0,-3.4933,0.0,0.0,0.0,0.0,0.0,-3.3387,-3.3198,0.0,0.0,-3.2975,-3.3361,-3.3636,0.0,-3.4218,-3.4218,-3.4126,-3.4267,-3.4218,-3.4176,-3.4521,-3.4618,0.0,0.0,0.0,-3.5263,-3.5263,0.0,0.0,0.0,0.0,0.0,0.0,0.0,0.0,0.0,0.0,0.0,0.0,0.0,0.0,0.0,0.0,0.0,0.0,0.0,0.0,0.0,0.0,0.0,-3.6601,-3.7477,-3.817,-3.8623,-3.9548,-4.0037,-4.0037,-4.0087,-4.0096,-4.0096,-4.058,-4.0949,-4.1276,-4.1739,-4.2258,-4.2831,-4.3773,-4.4212,-4.4311,-4.5922,-4.5657,-4.4242,-4.6114,-4.6257,-4.5454,-4.7083,-4.7717,-4.7717,-4.7717,-4.7717,-4.7862,-3.5111,0.0,0.0,0.0,0.0,0.0,0.0,0.0,0.0,0.0,-3.4899,0.0,-3.4899,0.0,-3.4899,0.0,-3.4899,-3.4899,-3.4899,-3.4899,0.0,-3.4899,-3.4899,0.0,0.0,0.0,0.0,0.0,0.0,-3.6561,-3.6924,-3.6924,-3.6924,-3.6898,0.0,-3.5629,-3.4905,0.0,-3.3942,0.0,0.0,-3.4143,0.0,0.0,-3.3563,-3.3277,0.0,-3.4226,-3.4448,-3.4787,-3.4667,-3.4448,-3.4787,-3.4667,-3.4448,-3.4804,-3.4899,-3.4899,-3.4899,-3.4899,0.0,-3.4899,-3.5263,0.0,-3.5611,0.0,0.0,0.0,0.0,0.0,0.0,0.0,0.0,0.0,0.0,0.0,0.0,0.0,0.0,0.0,0.0,0.0,0.0,0.0,-3.5965,-3.6367,-3.7185,-3.7906,0.0,0.0,-4.0254,-4.0113,-4.0434,-4.0434,-4.0096,-4.0902,-4.1366,-4.1503,-4.2139,-4.2614,-4.2918,-4.362,-4.4254,-4.4933,-4.6848,-4.6501,-4.4658,-4.6205,-4.6239,-4.5436,-4.6757,-4.7464,-4.7717,-4.7717,-4.7717,-4.7935,0.0,0.0,0.0,0.0,-3.4899,0.0,0.0,0.0,-3.4899,0.0,-3.4899,-3.4899,-3.4899,-3.4899,-3.4899,-3.4899,-3.4899,0.0,-3.4899,-3.4899,0.0,0.0,-3.4949,-3.4965,-3.5015,0.0,0.0,0.0,0.0,0.0,-3.8186,-3.8186,-3.8169,-3.8136,-3.747,0.0,-3.437,-3.432,-3.3909,-3.3361,-3.4456,-3.4899,-3.4875,-3.4899,-3.4202,-3.3329,-3.3917,-3.4472,-3.4899,-3.4899,-3.4899,-3.4899,-3.4899,-3.4899,-3.4899,-3.4899,-3.4899,-3.4899,-3.4899,-3.4899,-3.4899,-3.4899,0.0,0.0,0.0,0.0,-3.5943,0.0,0.0,0.0,0.0,0.0,0.0,0.0,0.0,0.0,0.0,0.0,0.0,0.0,0.0,0.0,0.0,-3.6602,-3.6297,-3.5883,-3.7166,-3.7899,0.0,0.0,-4.0577,-4.0146,-4.1024,-4.1071,-4.0171,-4.1521,-4.1973,-4.1547,-4.246,-4.2901,-4.29,-4.2894,-4.4055,-4.6079,-4.7221,-4.6815,-4.5363,-4.5363,-4.5363,-4.5436,-4.6196,-4.6993,-4.7717,-4.7717,-4.7717,-4.7935,-3.5383,-3.5291,-3.5268,0.0,-3.5018,-3.4899,0.0,0.0,0.0,0.0,-3.4899,-3.4899,-3.4899,-3.4899,-3.4899,-3.4899,-3.4899,0.0,0.0,0.0,0.0,-3.5694,-3.5727,-3.5976,-3.6522,-3.6721,0.0,-3.7649,0.0,0.0,-3.8186,-3.8186,-3.7914,-3.7358,0.0,0.0,-3.5658,-3.5632,-3.5187,-3.4558,-3.4791,-3.4667,0.0,0.0,-3.4456,-3.3942,-3.4497,-3.478,-3.4899,-3.4899,-3.4899,-3.4899,-3.4899,-3.4899,-3.4899,-3.4899,-3.4899,-3.4899,-3.4899,-3.4899,-3.4899,-3.4899,-3.4899,-3.4899,0.0,0.0,0.0,0.0,0.0,0.0,0.0,0.0,0.0,0.0,0.0,0.0,0.0,0.0,0.0,0.0,0.0,0.0,0.0,-3.6713,-3.643,-3.6406,-3.7016,-3.753,0.0,0.0,0.0,-4.0635,-4.1185,-4.137,-4.1139,-4.1846,-4.2101,-4.1887,-4.256,-4.2901,-4.29,-4.2894,-4.3653,-4.5015,-4.688,-4.7116,-4.6196,-4.6196,-4.6196,-4.6214,-4.6432,-4.6993,-4.7717,-4.7717,-4.7717,-4.7935,-3.5503,0.0,0.0,-3.54,0.0,0.0,-3.4994,0.0,0.0,-3.4899,-3.4899,0.0,-3.4899,-3.4899,-3.4899,-3.4899,-3.4899,0.0,-3.4899,0.0,0.0,-3.5495,-3.5512,-3.5711,-3.6125,-3.6456,0.0,-3.7251,0.0,0.0,-3.7731,0.0,0.0,0.0,0.0,-3.608,0.0,-3.524,-3.5126,-3.4946,-3.4928,0.0,0.0,-3.4804,-3.4715,-3.4497,-3.4787,-3.4899,-3.4899,-3.4899,-3.4899,-3.4899,-3.4899,-3.4899,-3.4965,-3.5297,-3.5379,-3.5446,-3.5777,-3.586,-3.5777,-3.5462,-3.5379,-3.5297,-3.4965,-3.4994,-3.5088,0.0,0.0,0.0,0.0,0.0,0.0,0.0,0.0,0.0,0.0,0.0,0.0,0.0,0.0,0.0,0.0,-3.7032,-3.6719,-3.6719,-3.7193,-3.7671,0.0,0.0,0.0,-4.0784,-4.1455,-4.1717,-4.1503,-4.2177,-4.2344,-4.1996,-4.2619,-4.2901,-4.29,-4.2898,-4.3239,-4.396,-4.6553,-4.7046,-4.5979,-4.5979,-4.6178,-4.654,-4.6902,-4.7301,-4.7717,-4.7717,-4.7717,-4.7935,0.0,0.0,0.0,0.0,0.0,0.0,0.0,-3.4994,0.0,-3.4899,0.0,-3.4923,-3.4899,-3.4923,-3.4923,-3.4899,0.0,-3.4899,-3.4899,-3.4899,-3.4932,-3.5032,-3.5032,-3.5081,-3.5181,-3.5827,0.0,0.0,0.0,0.0,0.0,0.0,0.0,0.0,0.0,0.0,0.0,-3.4201,-3.4521,0.0,-3.5032,-3.5098,-3.5181,-3.5181,-3.5181,-3.5181,-3.5081,-3.4982,-3.4899,-3.4899,-3.4899,-3.4899,-3.4899,-3.4965,-3.5164,-3.581,-3.6075,-3.629,-3.6936,-3.7102,-3.6953,-3.6307,-3.6141,-3.5976,-3.533,-3.5234,-3.5261,-3.5261,-3.5312,-3.5377,0.0,0.0,0.0,0.0,0.0,0.0,0.0,0.0,0.0,0.0,0.0,0.0,0.0,0.0,-3.7091,-3.6978,-3.7459,-3.7983,0.0,0.0,0.0,-4.0885,-4.1803,-4.2095,-4.1678,0.0,-4.2656,-4.2116,-4.2656,-4.2901,-4.2901,-4.2901,-4.2898,-4.3054,-4.6085,-4.6704,-4.5619,-4.549,-4.587,-4.6576,-4.7283,-4.7627,-4.7717,-4.7717,-4.7717,-4.7935,0.0,0.0,0.0,0.0,0.0,-3.54,-3.5268,-3.5065,-3.4899,-3.4899,-3.4994,-3.5018,-3.4923,-3.4994,-3.5018,-3.4899,-3.4899,0.0,0.0,0.0,0.0,-3.5777,-3.581,-3.6092,-3.6704,-3.6854,-3.692,0.0,0.0,0.0,0.0,0.0,0.0,0.0,0.0,0.0,-3.4763,-3.4763,0.0,-3.581,-3.581,-3.6174,-3.6721,-3.6721,-3.6721,-3.6638,-3.6025,-3.5413,-3.4899,-3.4899,-3.4899,-3.4899,-3.4899,-3.5313,-3.5827,-3.5959,-3.6439,-3.6953,-3.7069,-3.7102,-3.7069,-3.6953,-3.692,-3.6887,-3.6738,-3.6429,-3.6164,-3.6164,-3.5796,-3.5469,-3.5492,0.0,0.0,0.0,0.0,0.0,0.0,0.0,0.0,0.0,0.0,0.0,0.0,0.0,0.0,0.0,0.0,0.0,0.0,0.0,0.0,0.0,-4.23,0.0,0.0,0.0,-4.2863,-4.2751,-4.2863,-4.2901,-4.2901,-4.2901,-4.2898,-4.3018,-4.491,-4.6313,-4.7225,-4.6563,-4.6377,-4.6522,-4.6667,-4.712,-4.7717,-4.7717,-4.7717,-4.7935,0.0,0.0,0.0,0.0,0.0,0.0,0.0,-3.5245,0.0,-3.5018,-3.5128,-3.5175,-3.5111,-3.5175,-3.5175,-3.5111,-3.5105,-3.5065,-3.4994,-3.4994,-3.5136,-3.5413,-3.5429,0.0,-3.5959,-3.5959,-3.5959,-3.5959,0.0,0.0,0.0,0.0,0.0,0.0,0.0,-3.5114,0.0,0.0,0.0,-3.6572,-3.6572,-3.6787,-3.7102,-3.7102,-3.7102,-3.7003,-3.6257,-3.6025,-3.5926,-3.5148,-3.5148,-3.5462,-3.5462,-3.5976,-3.6655,-3.7036,-3.74,-3.7765,-3.8129,-3.8228,-3.8171,-3.7851,-3.7768,-3.7693,-3.7386,-3.7184,-3.7079,-3.7079,-3.6592,-3.6084,-3.5813,-3.5839,0.0,0.0,0.0,0.0,0.0,0.0,0.0,0.0,0.0,0.0,0.0,0.0,0.0,0.0,0.0,0.0,0.0,0.0,0.0,0.0,0.0,0.0,0.0,0.0,0.0,-4.2901,-4.2901,-4.2901,-4.2901,-4.2901,-4.2899,-4.2987,-4.4601,-4.5912,-4.6844,-4.6599,-4.6504,-4.6504,-4.6504,-4.6993,-4.7717,-4.7717,-4.7717,-4.788,0.0,-3.6364,0.0,0.0,-3.5549,0.0,-3.5492,-3.558,-3.5498,-3.5192,-3.5268,-3.5314,-3.5291,-3.5465,-3.5572,-3.5549,-3.5676,-3.5736,-3.5618,-3.5452,-3.5321,-3.5162,-3.503,-3.4923,-3.4899,-3.4899,-3.4899,0.0,0.0,0.0,0.0,0.0,0.0,0.0,0.0,0.0,0.0,0.0,-3.6671,-3.7334,-3.7334,-3.7433,-3.7566,-3.7566,-3.7566,-3.7466,-3.6738,-3.6854,-3.7135,-3.581,-3.5744,-3.6241,-3.6241,-3.6738,-3.7466,-3.8046,-3.8328,-3.856,-3.9149,-3.9299,-3.9193,-3.8742,-3.8619,-3.852,-3.8062,-3.7935,-3.7932,-3.7932,-3.7344,-3.6655,-3.6246,-3.6029,0.0,0.0,0.0,0.0,0.0,0.0,0.0,0.0,0.0,0.0,0.0,0.0,0.0,0.0,0.0,0.0,0.0,0.0,0.0,0.0,0.0,-4.2536,-4.29,0.0,-4.2901,-4.2901,-4.2901,-4.2901,-4.2901,-4.2901,-4.2901,-4.2992,-4.4603,-4.5729,-4.644,-4.6488,-4.6504,-4.6504,-4.6504,-4.6902,-4.7482,-4.7645,-4.7717,-4.7787,0.0,0.0,0.0,0.0,0.0,0.0,0.0,-3.6156,-3.6342,-3.5398,-3.54,-3.5446,-3.5314,-3.6011,-3.6421,-3.6326,-3.6906,-3.7283,-3.7283,-3.6647,-3.6214,-3.6078,-3.5438,-3.5018,-3.4899,-3.4899,-3.4899,0.0,0.0,0.0,0.0,0.0,0.0,0.0,0.0,0.0,0.0,-3.7003,-3.7433,-3.8112,-3.8112,-3.8493,-3.91,-3.91,-3.91,-3.9,-3.8261,-3.802,-3.7954,-3.7168,-3.6953,-3.7003,-3.7003,-3.7516,-3.8129,-3.8169,-3.8676,-3.9216,-3.9282,-3.9299,-3.9309,-3.9391,-3.9401,-3.942,-3.9493,-3.9076,-3.8698,-3.8698,-3.7675,-3.6778,-3.6734,-3.6141,-3.5644,0.0,0.0,0.0,0.0,0.0,0.0,0.0,0.0,0.0,0.0,0.0,0.0,0.0,0.0,0.0,0.0,0.0,0.0,-4.1981,0.0,-4.2844,-4.2901,-4.2901,-4.2901,-4.2901,-4.2901,-4.2901,-4.2901,-4.2901,-4.2901,-4.2992,-4.4603,-4.616,-4.75,-4.6794,-4.6504,-4.6504,-4.6504,-4.6558,-4.6703,-4.7446,-4.7717,-4.7717,0.0,0.0,0.0,0.0,0.0,0.0,0.0,-3.6952,-3.7324,-3.6902,-3.6915,-3.6915,-3.6868,-3.7168,-3.7354,-3.729,-3.7576,-3.7696,-3.7623,-3.7338,-3.7122,-3.6984,-3.6692,-3.6517,-3.6452,-3.6452,-3.6428,0.0,0.0,0.0,0.0,0.0,0.0,0.0,0.0,-3.7069,-3.7765,-3.7765,-3.8195,-3.8858,-3.8858,-3.905,-3.9299,-3.9299,-3.9299,-3.9199,-3.8565,-3.8607,-3.8873,-3.8202,-3.7893,-3.7765,-3.7765,-3.8261,-3.8858,-3.8858,-3.9083,-3.9299,-3.9299,-3.9352,-3.9458,-3.959,-3.9694,-3.9772,-3.991,-3.975,-3.9573,-3.9573,-3.8811,-3.7973,-3.7533,-3.684,-3.639,0.0,0.0,0.0,0.0,0.0,0.0,0.0,0.0,0.0,0.0,0.0,0.0,0.0,0.0,0.0,0.0,0.0,0.0,-4.2506,0.0,-4.2901,-4.2901,-4.2901,-4.2901,-4.2901,-4.2901,-4.2901,-4.2901,-4.2901,-4.3425,-4.4421,-4.6039,-4.7109,-4.7645,-4.683,-4.6504,-4.6504,-4.6504,-4.6504,-4.6613,-4.7409,-4.7717,-4.7717,-3.664,0.0,-3.6412,0.0,-3.6755,-3.711,-3.711,-3.7753,-3.8227,-3.8227,-3.8413,-3.8379,-3.7956,-3.8091,-3.8227,-3.8227,-3.8413,-3.8524,-3.8409,-3.8207,-3.8016,-3.7876,-3.7675,0.0,-3.7509,-3.7509,-3.746,-3.7361,-3.7361,0.0,0.0,0.0,0.0,0.0,-3.7433,-3.7847,-3.8526,-3.8526,-3.8808,-3.9299,-3.9299,-3.9299,-3.9299,-3.9352,-3.9352,-3.9312,-3.8911,-3.9113,-3.948,-3.9066,-3.8796,-3.8641,-3.8641,-3.898,-3.9352,-3.9405,-3.9379,-3.9379,-3.9405,-3.9484,-3.959,-3.9729,-3.9824,-3.9952,-4.0087,-4.0096,-4.0096,-4.0096,-3.952,-3.8836,-3.8328,-3.7618,-3.7171,-3.7369,0.0,0.0,0.0,0.0,0.0,0.0,-3.8089,-3.8054,-3.8192,0.0,0.0,0.0,0.0,0.0,0.0,0.0,0.0,0.0,0.0,0.0,0.0,-4.2901,-4.2901,-4.2901,-4.2901,-4.2901,-4.2901,-4.2899,-4.4042,-4.6061,-4.7209,-4.7713,-4.7663,-4.7102,-4.6721,-4.6504,-4.6504,-4.6504,-4.6576,-4.7156,-4.7518,-4.7699,-3.7249,-3.7063,-3.7032,-3.7753,-3.7889,-3.7889,-3.7889,-3.8514,-3.8988,-3.8988,-3.9622,-3.9537,-3.8075,-3.8548,-3.8988,-3.8988,-3.9656,-4.0079,-4.0079,-3.9377,-3.8922,0.0,0.0,-3.7648,-3.7509,-3.7509,-3.7509,-3.7509,0.0,0.0,-3.7295,0.0,-3.75,-3.8195,-3.8195,-3.8593,-3.9282,-3.9282,-3.9299,-3.9299,-3.9299,-3.9299,-3.9299,-3.9448,-3.9501,-3.9511,-3.9651,-3.9687,-3.9703,-3.9687,-3.9687,-3.9687,-3.9687,-3.9616,-3.9511,-3.9668,-3.9616,-3.9528,-3.9651,-3.9703,-3.9729,-3.9858,-3.9901,-3.9952,-4.0087,-4.0096,-4.0096,-4.0096,-3.952,-3.8988,-3.8988,-3.8379,-3.7783,-3.7455,0.0,0.0,0.0,0.0,0.0,0.0,-3.7792,-3.7685,-3.8157,0.0,0.0,0.0,0.0,0.0,0.0,0.0,0.0,-4.2865,-4.2901,0.0,-4.2901,-4.2901,-4.2901,-4.2901,-4.2901,-4.2901,-4.29,-4.2894,-4.464,-4.7682,-4.7688,-4.7713,-4.7717,-4.7678,-4.7228,-4.6504,-4.6504,-4.6504,-4.6504,-4.6504,-4.7029,-4.7717,-3.7614,-3.7628,-3.7618,-3.7872,-3.8328,-3.865,-3.865,-3.9276,-3.9757,-3.9757,-3.996,-3.9926,-3.9445,-3.9622,-3.9757,0.0,-3.996,-4.0096,0.0,-3.9893,-3.9732,-3.9707,-3.9446,-3.9327,-3.9277,-3.9277,-3.9227,-3.9143,0.0,0.0,0.0,-3.8785,-3.884,-3.9099,-3.9099,-3.9179,-3.9299,-3.9299,-3.9352,-3.9448,-3.9448,-3.9484,-3.9573,-3.9625,-3.9642,-3.9651,-3.9798,-3.9849,-3.9833,-3.9935,-3.9969,-3.9969,-3.9969,-3.9833,-3.9625,-3.9677,-3.9677,-3.9668,-3.9677,-3.9755,-3.9849,-3.9901,-3.9961,-4.0062,-4.007,-4.0096,-4.0196,-4.0507,-4.0141,-3.9963,-4.0585,-3.9836,-3.9295,-3.9781,-3.9069,0.0,0.0,0.0,0.0,0.0,-3.8071,-3.8037,0.0,-3.8209,0.0,0.0,0.0,0.0,0.0,0.0,0.0,0.0,-4.2901,0.0,-4.2901,-4.2901,-4.2901,-4.2901,-4.2901,-4.2901,-4.2973,-4.5155,-4.6341,-4.665,-4.7384,-4.7702,-4.7717,-4.7717,-4.7228,-4.6558,-4.7102,-4.6649,-4.5743,-4.6305,-4.6667,-4.6905,-3.8176,-3.8311,-3.8396,-3.8667,-3.9106,-3.9394,-3.9394,-3.9808,-4.0096,-4.0096,-4.0096,-4.0096,-4.0096,-4.0096,0.0,-4.0096,-4.0096,-4.0096,-4.0096,-4.0096,-4.0096,-4.0096,-4.0096,-4.0096,-4.0096,0.0,0.0,-3.9977,-3.991,-3.9875,-3.9781,-3.9642,-3.9563,-3.9563,-3.9563,-3.9537,-3.9458,-3.9458,-3.9511,-3.9563,-3.9563,-3.9642,-3.9703,-3.9755,-3.9798,-3.9781,-3.9935,-3.9977,-3.9986,-4.0087,-4.0096,-4.0096,-4.0096,-3.9986,-3.9858,-3.9858,-3.9807,-3.9781,-3.9833,-3.991,-3.9977,-3.9977,-4.0037,-4.0096,-4.0096,-4.0246,-4.0451,-4.0731,-4.0707,-4.0808,-4.1393,-4.0892,-4.0517,-4.0935,-4.0199,-3.953,-3.9407,0.0,0.0,0.0,0.0,0.0,0.0,-3.848,0.0,0.0,0.0,0.0,0.0,0.0,0.0,-4.2883,-4.2901,0.0,-4.2901,-4.2901,-4.2901,-4.2901,-4.2901,-4.3538,-4.476,-4.6767,-4.733,-4.6735,-4.7415,-4.7717,-4.7717,-4.7717,-4.7409,-4.6975,-4.7234,-4.671,-4.584,-4.6079,-4.6152,-4.6228,-3.8817,-3.8979,0.0,0.0,-4.0079,0.0,-4.0096,-4.0096,-4.0096,-4.0096,-4.0096,-4.0096,-4.0096,-4.0096,-4.0096,-4.0096,0.0,0.0,0.0,-4.0096,-4.0096,-4.0096,-4.0096,-4.0096,-4.0096,-4.0096,-4.0096,-4.0096,-3.9977,-3.9901,-3.9901,-3.9781,-3.9703,-3.9703,-3.9703,-3.9703,-3.9703,-3.9703,-3.9703,-3.9703,-3.9703,-3.9729,-3.9755,-3.9875,-3.9926,-3.9926,-4.0062,-4.0096,-4.0096,-4.0096,-4.0096,-4.0096,-4.0096,-4.0096,-4.0096,-4.0096,-4.0011,-3.9952,-4.0062,-4.0096,-4.0096,-4.0096,-4.0096,-4.0096,-4.0146,-4.0483,-4.0825,-4.0896,-4.1208,-4.1525,-4.1591,-4.1569,-4.147,-4.1176,-4.1096,-4.0677,-3.9624,0.0,0.0,0.0,0.0,0.0,0.0,-3.8952,-3.9731,0.0,0.0,0.0,0.0,0.0,-4.214,-4.2883,-4.2901,-4.2901,-4.2901,-4.2901,-4.2901,-4.2901,-4.3137,-4.4742,-4.7528,-4.7649,-4.7676,-4.7627,-4.7687,-4.7717,-4.7717,-4.7717,-4.7699,-4.7648,-4.7025,-4.6757,-4.6632,-4.5968,-4.5678,-4.5789,0.0,0.0,-3.9056,-3.9225,-3.974,-4.0096,-4.0096,-4.0096,-4.0096,-4.0096,-4.0096,-4.0096,-4.0096,-4.0096,-4.0096,-4.0096,-4.0096,-4.0096,-4.0096,-4.0096,-4.0096,-4.0096,-4.0096,-4.0096,-4.0096,-4.0096,-4.0096,-4.0096,-3.9977,-3.9935,-4.0062,-3.991,-3.9833,-3.9833,-3.9833,-3.9798,-3.9703,-3.9703,-3.9755,-3.9833,-3.9833,-3.991,-4.0011,-4.0037,-4.0062,-4.0062,-4.007,-4.0096,-4.0096,-4.0096,-4.0096,-4.0096,-4.0096,-4.0096,-4.0096,-4.0096,-4.0087,-4.0062,-4.007,-4.0096,-4.0096,-4.0096,-4.0096,-4.0196,-4.0556,-4.0707,-4.0995,-4.1717,-4.1674,-4.1721,-4.2458,-4.2279,-4.2144,-4.2401,-4.1935,-4.1232,-4.0365,-3.9749,0.0,0.0,-3.8209,-3.8444,-3.9061,-3.9278,-3.9967,0.0,0.0,0.0,0.0,-4.2719,-4.2701,-4.2901,-4.2901,-4.2901,-4.2901,-4.2901,-4.2901,-4.2937,-4.5401,-4.6315,-4.591,-4.7145,-4.7354,-4.6835,-4.7428,-4.7717,-4.7717,-4.7819,-4.7861,-4.7842,-4.7729,-4.7314,-4.6788,-4.6875,-4.6506,-4.6063,-3.8474,-3.8654,-3.8727,-3.8546,-3.8819,-3.9089,-3.9089,-3.9377,-3.9605,-3.9605,-3.9893,-4.0096,-4.0096,-4.0096,-4.0096,-4.0096,-4.0096,-4.0096,-4.0096,-4.0096,-4.0096,-4.0096,-4.0096,-4.0096,-4.0096,-4.0096,-4.0096,-4.0096,-4.0037,-4.0037,-4.0096,-4.0037,-3.9986,-3.9986,-3.9986,-3.9961,-3.9867,-3.9867,-3.9935,-3.9986,-3.9986,-4.0037,-4.0096,-4.0096,-4.0096,-4.0096,-4.0096,-4.0096,-4.0096,-4.0096,-4.0229,-4.036,-4.0171,-4.0385,-4.0689,-4.0483,-4.0427,-4.0427,-4.0427,-4.0563,-4.0737,-4.0737,-4.0737,-4.0808,-4.1047,-4.1276,-4.1587,-4.2095,-4.2177,-4.23,-4.2806,-4.2692,-4.2614,-4.2863,-4.252,-4.185,-4.0655,-4.0166,0.0,-3.8826,-3.8752,-3.9043,-3.984,-4.0238,-4.0818,-4.1632,-4.2049,0.0,-4.2883,-4.2901,-4.2901,-4.2901,-4.2901,-4.2901,-4.2901,-4.2901,-4.2899,-4.2952,-4.615,-4.7248,-4.643,-4.7302,-4.7459,-4.7083,-4.7578,-4.778,-4.7801,-4.7886,-4.7966,-4.7947,-4.805,-4.7696,-4.7132,-4.7347,-4.7018,-4.6525,-3.8417,-3.8394,-3.832,-3.7967,-3.8016,-3.8061,-3.8007,-3.8509,-3.8916,-3.8843,-3.9377,-3.9808,-3.9926,-3.9943,-3.9977,-4.0096,-4.0096,-4.0096,-4.0096,-4.0096,-4.0096,-4.0096,-4.0096,-4.0096,-4.0096,-4.0096,-4.0096,-4.0096,-4.0096,-4.0096,-4.0096,-4.0096,-4.0096,-4.0096,-4.0096,-4.0096,-4.0096,-4.0171,-4.0221,-4.0221,-4.0279,-4.0328,-4.0328,-4.0328,-4.0328,-4.0328,-4.0328,-4.0328,-4.0328,-4.0328,-4.058,-4.0849,-4.0434,-4.0855,-4.1415,-4.1019,-4.0949,-4.0995,-4.0926,-4.1208,-4.1503,-4.1503,-4.1503,-4.1525,-4.1591,-4.1909,-4.2218,-4.2279,-4.2634,-4.2901,-4.2901,-4.2901,-4.2901,-4.2901,-4.2901,-4.2339,-4.0745,0.0,-4.0365,-3.9496,-3.9496,-3.9858,-4.0601,-4.1288,-4.1741,-4.1868,-4.2502,-4.2901,-4.2901,-4.2901,-4.2901,-4.2901,-4.2901,-4.2901,-4.2901,-4.2901,-4.3135,-4.3657,-4.6386,-4.7703,-4.7702,-4.77,-4.771,-4.7738,-4.784,-4.7902,-4.7922,-4.799,-4.8032,-4.8032,-4.8168,-4.7997,-4.7709,-4.7808,-4.7561,-4.7194,-3.7676,-3.788,-3.8073,-3.799,-3.8488,-3.8812,-3.847,-3.8505,-3.8471,-3.8122,-3.8176,-3.8481,-3.9089,-3.9157,-3.9436,-4.0045,-4.0096,-4.0096,-4.0096,-4.0096,-4.0096,-4.0096,-4.0096,-4.0096,-4.0096,-4.0096,-4.0096,-4.0096,-4.0096,-4.0096,-4.0096,-4.0096,-4.0096,-4.0096,-4.0096,-4.0096,-4.0121,-4.0531,-4.0683,-4.0731,-4.1116,-4.1281,-4.1281,-4.1281,-4.1281,-4.1281,-4.1281,-4.1281,-4.1281,-4.1281,-4.1326,-4.137,-4.1303,-4.137,-4.1481,-4.1415,-4.1674,-4.1906,-4.1499,-4.1437,-4.1503,-4.1503,-4.1503,-4.1591,-4.1994,-4.2157,-4.2318,-4.2711,-4.2844,-4.2901,-4.2901,-4.2901,-4.2901,-4.2901,-4.2901,-4.2339,-4.0745,0.0,-4.0981,-3.9568,-3.9948,-4.0637,-4.1433,-4.1632,-4.1976,-4.2647,-4.2828,-4.2901,-4.2901,-4.2901,-4.2901,-4.2901,-4.2901,-4.2901,-4.2901,-4.2901,-4.4248,-4.6958,-4.7448,-4.7696,-4.7702,-4.7708,-4.7762,-4.7861,-4.7881,-4.7925,-4.799,-4.8128,-4.8168,-4.8187,-4.8267,-4.8421,-4.8629,-4.8942,-4.8742,-4.8393,-3.7542,-3.7606,-3.7664,-3.7446,-3.7684,-3.7851,-3.7662,-3.7793,-3.7828,-3.7661,-3.7974,-3.8274,-3.8386,-3.9179,-3.9749,-3.9867,-4.0466,-4.0838,-4.0838,-4.0385,-4.0096,-4.0096,-4.0096,-4.0096,-4.0096,-4.0096,-4.0096,-4.0096,-4.0353,-4.0483,-4.0483,-4.0754,-4.0838,-4.0838,-4.0838,-4.0838,-4.0879,-4.1088,-4.1185,-4.1208,-4.1415,-4.1503,-4.1503,-4.1503,-4.1503,-4.1503,-4.1503,-4.1503,-4.1503,-4.1503,-4.1656,-4.1846,-4.1569,-4.1849,-4.22,-4.1952,-4.2032,-4.2198,-4.2239,-4.2241,-4.2241,-4.2241,-4.2241,-4.232,-4.2518,-4.2595,-4.2634,-4.2844,-4.2901,-4.2901,-4.2901,-4.2901,-4.2901,-4.2901,-4.2901,0.0,0.0,-4.1469,-4.1433,-4.0709,-4.0926,-4.1451,-4.2266,-4.2357,-4.2502,-4.2883,-4.2901,-4.2901,-4.2901,-4.2901,-4.2901,-4.2901,-4.2901,-4.2901,-4.2901,-4.3774,-4.536,-4.7706,-4.7696,-4.7704,-4.7689,-4.7783,-4.784,-4.792,-4.8006,-4.8087,-4.811,-4.8208,-4.8247,-4.8286,-4.8477,-4.8763,-4.9113,-4.9453,-4.9543,-4.9485,-3.7739,-3.765,-3.7559,-3.7264,-3.7207,-3.7169,-3.7055,-3.7268,-3.7405,-3.7299,-3.7776,-3.8072,-3.794,-3.9029,-3.9778,-3.9829,-4.0704,-4.1288,-4.1503,-4.0832,-4.0434,-4.0434,-4.0434,-4.036,-4.0271,-4.0377,-4.0434,-4.0434,-4.0802,-4.0972,-4.0972,-4.1326,-4.1503,-4.1503,-4.1503,-4.1503,-4.1503,-4.163,-4.1656,-4.1656,-4.1785,-4.1846,-4.1846,-4.1846,-4.1846,-4.1846,-4.1846,-4.1846,-4.1846,-4.1846,-4.2056,-4.23,-4.1952,-4.232,-4.2825,-4.2458,-4.2358,-4.2438,-4.2806,-4.2901,-4.2901,-4.2901,-4.2901,-4.2901,-4.2901,-4.2901,-4.2901,-4.2901,-4.2901,-4.2847,-4.2647,-4.2611,-4.2611,-4.2611,0.0,0.0,0.0,-4.185,-4.1904,-4.1723,-4.1868,-4.223,-4.2847,-4.2901,-4.2901,-4.2901,-4.2901,-4.2901,-4.2901,-4.2901,-4.2901,-4.2901,-4.2901,-4.2901,-4.2901,-4.4373,-4.587,-4.7332,-4.7618,-4.7754,-4.7759,-4.7863,-4.7943,-4.7984,-4.8146,-4.8207,-4.8226,-4.8267,-4.8363,-4.8439,-4.8693,-4.9048,-4.9453,-4.9702,-5.0006,-5.0206,-3.8157,-3.814,-3.814,-3.8106,-3.8106,-3.795,-3.7523,-3.7485,-3.7354,-3.6987,-3.6981,-3.7259,-3.7918,-3.8102,-3.8737,-4.0127,-4.0346,-4.0705,-4.1451,-4.1437,-4.1393,-4.1393,-4.1393,-4.1185,-4.0754,-4.1185,-4.1393,-4.1393,-4.1437,-4.1437,-4.1437,-4.1481,-4.1503,-4.1503,-4.1503,-4.1503,-4.1525,-4.1952,-4.2157,-4.2177,-4.2634,-4.2806,-4.2806,-4.2806,-4.2806,-4.2806,-4.2806,-4.2806,-4.2806,-4.2806,-4.2825,-4.2844,-4.2806,-4.2844,-4.2882,-4.2863,-4.2844,-4.2863,-4.2882,-4.2901,-4.2901,-4.2901,-4.2901,-4.2901,-4.2901,-4.2901,-4.2901,-4.2901,-4.2901,-4.2665,-4.1922,-4.1795,-4.1795,-4.1795,0.0,0.0,-4.1705,-4.2339,-4.2538,-4.1795,-4.2357,-4.2828,-4.2901,-4.2901,-4.2901,-4.2901,-4.2901,-4.2901,-4.2901,-4.2901,-4.2901,-4.2901,-4.2901,-4.2901,-4.2901,-4.4008,-4.5136,-4.6226,-4.7347,-4.7893,-4.7881,-4.7968,-4.805,-4.8168,-4.8187,-4.8246,-4.8287,-4.8287,-4.8477,-4.8764,-4.8799,-4.9193,-4.9776,-4.9784,-5.0006,-5.0283,-3.8209,-3.8209,-3.8209,-3.8209,-3.8209,-3.814,-3.7967,-3.7685,-3.745,-3.7284,-3.7266,-3.7276,-3.7306,-3.8264,-3.8988,-3.9288,-4.0447,-4.1282,-4.1606,-4.2092,-4.2118,-4.1525,-4.1503,-4.1432,-4.123,-4.141,-4.1503,-4.1503,-4.1803,-4.1931,-4.1931,-4.2221,-4.236,-4.236,-4.236,-4.236,-4.238,-4.2557,-4.2634,-4.2653,-4.2825,-4.2901,-4.2901,-4.2901,-4.2901,-4.2901,-4.2901,-4.2901,-4.2901,-4.2901,-4.2901,-4.2901,-4.2901,-4.2901,-4.2901,-4.2901,-4.2901,-4.2901,-4.2901,-4.2901,-4.2901,-4.2901,-4.2901,-4.2901,-4.2901,-4.2901,-4.2755,-4.2266,-4.2158,-4.2067,-4.1759,-4.1705,-4.185,-4.2357,0.0,-4.2448,-4.2448,-4.2701,-4.2792,-4.2484,-4.2701,-4.2901,-4.2901,-4.2901,-4.2901,-4.2901,-4.2901,-4.2901,-4.2901,-4.2901,-4.2901,-4.2901,-4.2901,-4.2901,-4.2901,-4.3789,-4.4918,-4.6235,-4.6872,-4.7456,-4.7968,-4.807,-4.8148,-4.8207,-4.8247,-4.8383,-4.8604,-4.8604,-4.8816,-4.9129,-4.9333,-4.9589,-4.983,-5.0038,-5.0181,-5.0302,-3.8209,-3.8209,-3.8209,-3.8209,-3.8209,-3.8209,-3.8209,-3.7933,-3.7721,-3.7721,-3.7721,-3.7614,-3.7339,-3.8331,-3.8993,-3.8923,-4.0167,-4.118,-4.1669,-4.2448,-4.2537,-4.1743,-4.1867,-4.1888,-4.1721,-4.1849,-4.1952,-4.1952,-4.2259,-4.2418,-4.2438,-4.275,-4.2901,-4.2901,-4.2901,-4.2901,-4.2901,-4.2901,-4.2901,-4.2901,-4.2901,-4.2901,-4.2901,-4.2901,-4.2901,-4.2901,-4.2901,-4.2901,-4.2901,-4.2901,-4.2901,-4.2901,-4.2901,-4.2901,-4.2901,-4.2901,-4.2901,-4.2901,-4.2901,-4.2901,-4.2901,-4.2901,-4.2901,-4.2901,-4.2901,-4.2701,-4.2375,-4.1813,-4.1705,-4.1614,-4.1361,-4.1524,-4.1868,-4.2429,-4.252,-4.2611,-4.2846,-4.2901,-4.2901,-4.2901,-4.2901,-4.2901,-4.2901,-4.2901,-4.2901,-4.2901,-4.2901,-4.2901,-4.2901,-4.2901,-4.2901,-4.2901,-4.2901,-4.2901,-4.2901,-4.3697,-4.4716,-4.5977,-4.6488,-4.7165,-4.8012,-4.8267,-4.8401,-4.8401,-4.855,-4.8728,-4.8967,-4.8967,-4.9161,-4.9483,-4.9716,-4.9857,-4.9981,-5.0212,-5.0302,-5.0302,-3.8209,-3.8209,-3.8209,-3.8209,-3.8209,-3.8209,-3.8209,-3.8209,-3.8209,-3.8209,-3.8209,-3.8209,-3.8209,-3.8209,-3.8517,-3.9315,-3.9387,-4.0057,-4.1596,-4.2448,-4.2692,-4.2236,-4.2653,-4.2673,-4.2216,-4.2653,-4.2901,-4.2901,-4.2901,-4.2901,-4.2901,-4.2901,-4.2901,-4.2901,-4.2901,-4.2901,-4.2901,-4.2901,-4.2901,-4.2901,-4.2901,-4.2901,-4.2901,-4.2901,-4.2901,-4.2901,-4.2901,-4.2901,-4.2901,-4.2901,-4.2901,-4.2901,-4.2901,-4.2901,-4.2901,-4.2901,-4.2901,-4.2901,-4.2901,-4.2901,-4.2901,-4.2901,-4.2901,-4.2901,-4.2901,-4.2266,-4.1705,-4.1687,-4.1687,-4.1451,-4.0655,-4.1162,-4.1705,-4.1705,-4.1705,-4.1976,-4.2792,-4.2901,-4.2901,-4.2901,-4.2901,-4.2901,-4.2901,-4.2901,-4.2901,-4.2901,-4.2901,-4.2901,-4.2901,-4.2901,-4.2901,-4.2901,-4.2901,-4.2901,-4.2901,-4.3679,-4.4494,-4.5309,-4.6326,-4.7226,-4.8014,-4.855,-4.8799,-4.8833,-4.9161,-4.9299,-4.9299,-4.9299,-4.9498,-4.9784,-4.9784,-5.0012,-5.0302,-5.0302,-5.0302,-5.0302,-3.8274,-3.8224,-3.8209,-3.8209,-3.8209,-3.8209,-3.8209,-3.8209,-3.8209,-3.8209,-3.8209,-3.8209,-3.8209,-3.8209,-3.8299,-3.8553,-3.9078,-4.0057,-4.1596,-4.2448,-4.2844,-4.2692,-4.2825,-4.2844,-4.2692,-4.2825,-4.2901,-4.2901,-4.2901,-4.2901,-4.2901,-4.2901,-4.2901,-4.2901,-4.2901,-4.2901,-4.2901,-4.2901,-4.2901,-4.2901,-4.2901,-4.2901,-4.2901,-4.2901,-4.2901,-4.2901,-4.2901,-4.2901,-4.2901,-4.2901,-4.2901,-4.2901,-4.2901,-4.2901,-4.2901,-4.2901,-4.2901,-4.2901,-4.2901,-4.2901,-4.2901,-4.2901,-4.2901,-4.2737,-4.2194,-4.1868,-4.1542,-4.0963,-4.0854,-4.0963,-4.1288,-4.1542,-4.1868,-4.2448,-4.2538,-4.2629,-4.2883,-4.2901,-4.2901,-4.2901,-4.2901,-4.2901,-4.2901,-4.2901,-4.2901,-4.2901,-4.2901,-4.2901,-4.2901,-4.2901,-4.2901,-4.2901,-4.2901,-4.2901,-4.2901,-4.3229,-4.3831,-4.4689,-4.5642,-4.6673,-4.7754,-4.8469,-4.8934,-4.9161,-4.9271,-4.9439,-4.966,-4.966,-4.9844,-5.0144,-5.0144,-5.0212,-5.0302,-5.0302,-5.0302,-5.0302,-3.8338,-3.829,-3.8241,-3.8241,-3.8225,-3.8209,-3.8209,-3.8209,-3.8209,-3.8209,-3.8209,-3.8209,-3.8209,-3.8209,-3.8209,-3.8209,-3.9206,-4.0238,-4.1162,-4.2285,-4.2901,-4.2901,-4.2901,-4.2901,-4.2901,-4.2901,-4.2901,-4.2901,-4.2901,-4.2901,-4.2901,-4.2901,-4.2901,-4.2901,-4.2901,-4.2901,-4.2901,-4.2901,-4.2901,-4.2901,-4.2901,-4.2901,-4.2901,-4.2901,-4.2901,-4.2901,-4.2901,-4.2901,-4.2901,-4.2901,-4.2901,-4.2901,-4.2901,-4.2901,-4.2901,-4.2901,-4.2901,-4.2901,-4.2901,-4.2901,-4.2829,-4.2502,-4.2429,-4.2303,-4.1813,-4.1451,-4.1089,-4.0601,-4.0745,-4.1126,-4.1614,-4.1958,-4.2339,-4.2829,-4.2901,-4.2901,-4.2901,-4.2901,-4.2901,-4.2901,-4.2901,-4.2901,-4.2901,-4.2901,-4.2901,-4.2901,-4.2901,-4.2901,-4.2901,-4.2901,-4.2939,-4.305,-4.2957,-4.2957,-4.3069,-4.3232,-4.367,-4.4381,-4.5462,-4.6539,-4.761,-4.8691,-4.9302,-4.9512,-4.9646,-4.9817,-5.0012,-5.0012,-5.012,-5.0302,-5.0302,-5.0302,-5.0302,-5.0302,-5.0302,-5.0302,-3.8415,-3.8352,-3.8323,-3.8323,-3.8257,-3.8225,-3.8225,-3.8225,-3.8209,-3.8209,-3.8209,-3.8209,-3.8209,-3.8209,-3.8209,-3.8209,-3.9604,-4.0492,-4.0492,-4.2013,-4.2901,-4.2901,-4.2901,-4.2901,-4.2901,-4.2901,-4.2901,-4.2901,-4.2901,-4.2901,-4.2901,-4.2901,-4.2901,-4.2901,-4.2901,-4.2901,-4.2901,-4.2901,-4.2901,-4.2901,-4.2901,-4.2901,-4.2901,-4.2901,-4.2901,-4.2901,-4.2901,-4.2901,-4.2901,-4.2901,-4.2901,-4.2901,-4.2901,-4.2901,-4.2901,-4.2901,-4.2901,-4.2901,-4.2901,-4.2865,-4.2629,-4.1958,-4.1705,-4.1596,-4.1596,-4.1071,-4.0601,-4.0601,-4.118,-4.1723,-4.1795,-4.2411,-4.2901,-4.2901,-4.2901,-4.2901,-4.2901,-4.2901,-4.2901,-4.2901,-4.2901,-4.2901,-4.2901,-4.2901,-4.2901,-4.2901,-4.2901,-4.2901,-4.2901,-4.292,-4.305,-4.332,-4.3105,-4.3105,-4.3372,-4.3627,-4.393,-4.4271,-4.5616,-4.6684,-4.7549,-4.9026,-4.9741,-4.9857,-5.0169,-5.0302,-5.0302,-5.0302,-5.0302,-5.0302,-5.0302,-5.0302,-5.0302,-5.0302,-5.0302,-5.0302,-3.8478,-3.8415,-3.8385,-3.8385,-3.8368,-3.8352,-3.8352,-3.8305,-3.8274,-3.8274,-3.8224,-3.8209,-3.8209,-3.8259,-3.8257,-3.8209,-3.9604,-4.0492,-4.0492,-4.2013,-4.2901,-4.2901,-4.2901,-4.2901,-4.2901,-4.2901,-4.2901,-4.2901,-4.2901,-4.2901,-4.2901,-4.2901,-4.2901,-4.2901,-4.2901,-4.2901,-4.2901,-4.2901,-4.2901,-4.2901,-4.2901,-4.2901,-4.2901,-4.2901,-4.2901,-4.2901,-4.2901,-4.2901,-4.2901,-4.2901,-4.2901,-4.2901,-4.2901,-4.2901,-4.2901,-4.2901,-4.2901,-4.2901,-4.2901,-4.2448,-4.2085,-4.252,-4.1687,-4.0764,-4.0764,-4.1107,-4.1433,-4.1433,-4.1578,-4.1886,-4.252,-4.2774,-4.2901,-4.2901,-4.2901,-4.2901,-4.2901,-4.2901,-4.2901,-4.2901,-4.2901,-4.2901,-4.2901,-4.2901,-4.2901,-4.2901,-4.2901,-4.2901,-4.2901,-4.3105,-4.3284,-4.3456,-4.3607,-4.3751,-4.3921,-4.4095,-4.4055,-4.3836,-4.5137,-4.6336,-4.7437,-4.841,-4.9353,-5.02,-5.0278,-5.0302,-5.0302,-5.0302,-5.0302,-5.0302,-5.0302,-5.0302,-5.0302,-5.0302,-5.0302,-5.0302,-3.8609,-3.8528,-3.8446,-3.8446,-3.8415,-3.8399,-3.8399,-3.8368,-3.8338,-3.8289,-3.8289,-3.8272,-3.8241,-3.8305,-3.8322,-3.8241,-3.9692,-4.0581,-4.0492,-4.2013,-4.2901,-4.2901,-4.2901,-4.2719,-4.2339,-4.2339,-4.252,-4.2901,-4.2901,-4.2901,-4.2901,-4.2901,-4.2901,-4.2901,-4.2901,-4.2901,-4.2901,-4.2901,-4.2901,-4.2901,-4.2901,-4.2901,-4.2901,-4.2901,-4.2901,-4.2901,-4.2901,-4.2901,-4.2901,-4.2901,-4.2901,-4.2901,-4.2901,-4.2901,-4.2901,-4.2901,-4.2629,-4.2339,-4.2339,-4.2012,-4.1705,-4.1759,-4.1705,-4.1542,-4.1162,-4.1397,-4.1705,-4.1705,-4.1994,-4.2393,-4.2829,-4.2901,-4.2901,-4.2901,-4.2901,-4.2901,-4.2901,-4.2901,-4.2901,-4.2901,-4.2901,-4.2901,-4.2901,-4.2901,-4.2901,-4.2901,-4.3032,-4.3105,-4.3105,-4.3407,-4.3673,-4.3878,-4.3955,-4.4087,-4.429,-4.4425,-4.4383,-4.4198,-4.5312,-4.6396,-4.7422,-4.839,-4.937,-5.0302,-5.0302,-5.0302,-5.0302,-5.0302,-5.0302,-5.0302,-5.0302,-5.0302,-5.0302,-5.0302,-5.0302,-5.0302,-3.8707,-3.8609,-3.8525,-3.8525,-3.8496,-3.8449,-3.8449,-3.843,-3.8401,-3.8338,-3.8368,-3.8385,-3.8322,-3.8368,-3.8439,-3.8556,-3.9886,-4.0724,-4.0745,-4.2104,-4.2847,-4.2701,-4.2683,-4.2321,-4.1506,-4.1488,-4.1832,-4.2484,-4.2484,-4.2484,-4.2484,-4.2484,-4.2484,-4.2484,-4.2629,-4.2611,-4.2484,-4.2629,-4.2611,-4.2484,-4.2484,-4.2484,-4.2484,-4.2484,-4.2484,-4.2484,-4.2484,-4.2484,-4.2484,-4.2484,-4.2484,-4.2484,-4.2484,-4.2484,-4.2484,-4.2484,-4.2031,-4.1524,-4.165,-4.1596,-4.1397,-4.0999,-4.1814,-4.2556,-4.2012,-4.1904,-4.1904,-4.1904,-4.2448,-4.2901,-4.2901,-4.2901,-4.2901,-4.2901,-4.2901,-4.2901,-4.2901,-4.2901,-4.2901,-4.2901,-4.2901,-4.2901,-4.2901,-4.2939,-4.2976,-4.2976,-4.3249,-4.3389,-4.3389,-4.3786,-4.411,-4.436,-4.4308,-4.4392,-4.4624,-4.4745,-4.4795,-4.4814,-4.5588,-4.6403,-4.7289,-4.8388,-4.9308,-5.0092,-5.0245,-5.0302,-5.0302,-5.0302,-5.0302,-5.0302,-5.0302,-5.0302,-5.0302,-5.0314,-5.0314,-5.0314,-3.8707,-3.8692,-3.8673,-3.8673,-3.8658,-3.8658,-3.8658,-3.8559,-3.8494,-3.8478,-3.843,-3.8399,-3.8401,-3.8382,-3.8725,-3.9522,-4.0332,-4.1048,-4.1669,-4.2577,-4.2722,-4.1886,-4.185,-4.1488,-4.0673,-4.0655,-4.0709,-4.0818,-4.0818,-4.0818,-4.0818,-4.0818,-4.0818,-4.0854,-4.1542,-4.1469,-4.0854,-4.156,-4.1451,-4.0818,-4.0818,-4.0818,-4.0818,-4.0818,-4.0818,-4.0818,-4.0818,-4.0818,-4.0818,-4.0818,-4.0818,-4.0818,-4.0818,-4.0818,-4.0818,-4.0818,-4.0745,-4.08,-4.1506,-4.118,-4.0963,-4.2248,-4.223,-4.2012,-4.2592,-4.2737,-4.2737,-4.2737,-4.2829,-4.2901,-4.2901,-4.2901,-4.2901,-4.2901,-4.2901,-4.2901,-4.2901,-4.2901,-4.2901,-4.2901,-4.2901,-4.2901,-4.2901,-4.3105,-4.3249,-4.3249,-4.3609,-4.3818,-4.3818,-4.4194,-4.4493,-4.4637,-4.4838,-4.503,-4.5184,-4.5213,-4.5224,-4.5224,-4.535,-4.5827,-4.6647,-4.7548,-4.8449,-4.9301,-4.9996,-5.0302,-5.0302,-5.0302,-5.0302,-5.0302,-5.0302,-5.0302,-5.0302,-5.0379,-5.039,-5.039,-3.8707,-3.8707,-3.8707,-3.8707,-3.8707,-3.8707,-3.8707,-3.8658,-3.8575,-3.851,-3.8544,-3.8546,-3.8462,-3.893,-3.9385,-3.9772,-4.0874,-4.1499,-4.1285,-4.1996,-4.205,-4.118,-4.1071,-4.0655,-3.9894,-3.9894,-3.9677,-3.9224,-4.0076,-4.0492,-4.0492,-4.0492,-4.0492,-4.051,-4.0872,-4.0836,-4.051,-4.0872,-4.0818,-4.0492,-4.0492,-4.0492,-4.0492,-4.0492,-4.0492,-4.0492,-4.0492,-4.0492,-4.0492,-4.0492,-4.0492,-4.0492,-4.0492,-4.0492,-4.0492,-4.0492,-4.0492,-4.0583,-4.0926,-4.1089,-4.1343,-4.2049,-4.2303,-4.2466,-4.2829,-4.2901,-4.2901,-4.2901,-4.2901,-4.2901,-4.2901,-4.2901,-4.2901,-4.2901,-4.2901,-4.2901,-4.2901,-4.2901,-4.2901,-4.2901,-4.3032,-4.3105,-4.3105,-4.3423,-4.3642,-4.3642,-4.4001,-4.4237,-4.4237,-4.4617,-4.4869,-4.4917,-4.5106,-4.5235,-4.5307,-4.5307,-4.5307,-4.5307,-4.5307,-4.5717,-4.6519,-4.6901,-4.7818,-4.9129,-4.948,-4.9882,-5.0302,-5.0302,-5.0302,-5.0302,-5.0337,-5.0371,-5.0424,-5.0438,-5.0457,-5.0457]},{"header":{"parameterUnit":"m.s-1","parameterCategory":1,"la1":30.6,"la2":28.766,"lo1":-90.7593,"lo2":-88.6598,"dy":0.0162,"dx":0.0183,"nx":116,"ny":114,"refTime":"2023-03-27T18:00:00:Z","depth":0,"parameterNumber":3,"parameterNumberName":"V-component_of_WINDS"},"data":[0.0,0.0,0.0,0.0,0.0,0.0,0.0,0.0,0.0,0.0,0.0,0.0,0.0,0.0,0.0,0.0,0.0,0.0,0.0,0.0,0.0,0.0,0.0,0.0,0.0,0.0,0.0,0.0,0.0,0.0,0.0,0.0,0.0,0.0,0.0,0.0,0.0,0.0,0.0,0.0,0.0,0.0,0.0,0.0,0.0,0.0,0.0,0.0,0.0,0.0,0.0,0.0,0.0,0.0,0.0,0.0,0.0,0.0,0.0,0.0,0.0,0.0,0.0,0.0,0.0,0.0,0.0,0.0,0.0,0.0,0.0,0.0,0.0,0.0,0.0,0.0,0.0,0.0,0.0,0.0,0.0,0.0,0.0,0.0,0.0,0.0,0.0,0.0,0.0,0.0,0.0,0.0,0.0,0.0,0.0,0.0,0.0,0.0,0.0,0.0,0.0,0.0,0.0,0.0,0.0,0.0,0.0,0.0,0.0,0.0,0.0,0.0,0.0,0.0,0.0,0.0,0.0,0.0,0.0,0.0,0.0,0.0,0.0,0.0,0.0,0.0,0.0,0.0,0.0,0.0,0.0,0.0,0.0,0.0,0.0,0.0,0.0,0.0,0.0,0.0,0.0,0.0,0.0,0.0,0.0,0.0,0.0,0.0,0.0,0.0,0.0,0.0,0.0,0.0,0.0,0.0,0.0,0.0,0.0,0.0,0.0,0.0,0.0,0.0,0.0,0.0,0.0,0.0,0.0,0.0,0.0,0.0,0.0,0.0,0.0,0.0,0.0,0.0,0.0,0.0,0.0,0.0,0.0,0.0,0.0,0.0,0.0,0.0,0.0,0.0,0.0,0.0,0.0,0.0,0.0,0.0,0.0,0.0,0.0,0.0,0.0,0.0,0.0,0.0,0.0,0.0,0.0,0.0,0.0,0.0,0.0,0.0,0.0,0.0,0.0,0.0,0.0,0.0,0.0,0.0,0.0,0.0,0.0,0.0,0.0,0.0,0.0,0.0,0.0,0.0,0.0,0.0,0.0,0.0,0.0,0.0,0.0,0.0,0.0,0.0,0.0,0.0,0.0,0.0,0.0,0.0,0.0,0.0,0.0,0.0,0.0,0.0,0.0,0.0,0.0,0.0,0.0,0.0,0.0,0.0,0.0,0.0,0.0,0.0,0.0,0.0,0.0,0.0,0.0,0.0,0.0,0.0,0.0,0.0,0.0,0.0,0.0,0.0,0.0,0.0,0.0,0.0,0.0,0.0,0.0,0.0,0.0,0.0,0.0,0.0,0.0,0.0,0.0,0.0,0.0,0.0,0.0,0.0,0.0,0.0,0.0,0.0,0.0,0.0,0.0,0.0,0.0,0.0,0.0,0.0,0.0,0.0,0.0,0.0,0.0,0.0,0.0,0.0,0.0,0.0,0.0,0.0,0.0,0.0,0.0,0.0,0.0,0.0,0.0,0.0,0.0,0.0,0.0,0.0,0.0,0.0,0.0,0.0,0.0,0.0,0.0,0.0,0.0,0.0,0.0,0.0,0.0,0.0,0.0,0.0,0.0,0.0,0.0,0.0,0.0,0.0,0.0,0.0,0.0,0.0,0.0,0.0,0.0,0.0,0.0,0.0,0.0,0.0,0.0,0.0,0.0,0.0,0.0,0.0,0.0,0.0,0.0,0.0,0.0,0.0,0.0,0.0,0.0,0.0,0.0,0.0,0.0,0.0,0.0,0.0,0.0,0.0,0.0,0.0,0.0,0.0,0.0,0.0,0.0,0.0,0.0,0.0,0.0,0.0,0.0,0.0,0.0,0.0,0.0,0.0,0.0,0.0,0.0,0.0,0.0,0.0,0.0,0.0,0.0,0.0,0.0,0.0,0.0,0.0,0.0,0.0,0.0,0.0,0.0,0.0,0.0,0.0,0.0,0.0,0.0,0.0,0.0,0.0,0.0,0.0,0.0,0.0,0.0,0.0,0.0,0.0,0.0,0.0,0.0,0.0,0.0,0.0,0.0,0.0,0.0,0.0,0.0,0.0,0.0,0.0,0.0,0.0,0.0,0.0,0.0,0.0,0.0,0.0,0.0,0.0,0.0,0.0,0.0,0.0,0.0,0.0,0.0,0.0,0.0,0.0,0.0,0.0,0.0,0.0,0.0,0.0,0.0,0.0,0.0,0.0,0.0,0.0,0.0,0.0,0.0,0.0,0.0,0.0,0.0,0.0,0.0,0.0,0.0,0.0,0.0,0.0,0.0,0.0,0.0,0.0,0.0,0.0,0.0,0.0,0.0,0.0,0.0,0.0,0.0,0.0,0.0,0.0,0.0,0.0,0.0,0.0,0.0,0.0,0.0,0.0,0.0,0.0,0.0,0.0,0.0,0.0,0.0,0.0,0.0,0.0,0.0,0.0,0.0,0.0,0.0,0.0,0.0,0.0,0.0,0.0,0.0,0.0,0.0,0.0,0.0,0.0,0.0,0.0,0.0,0.0,0.0,0.0,0.0,0.0,0.0,0.0,0.0,0.0,0.0,0.0,0.0,0.0,0.0,0.0,0.0,0.0,0.0,0.0,0.0,0.0,0.0,0.0,0.0,0.0,0.0,0.0,0.0,0.0,0.0,0.0,0.0,0.0,0.0,0.0,0.0,0.0,0.0,0.0,0.0,0.0,0.0,0.0,0.0,0.0,0.0,0.0,0.0,0.0,0.0,0.0,0.0,0.0,0.0,0.0,0.0,0.0,0.0,0.0,0.0,0.0,0.0,0.0,0.0,0.0,0.0,0.0,0.0,0.0,0.0,0.0,0.0,0.0,0.0,0.0,0.0,0.0,0.0,0.0,0.0,0.0,0.0,0.0,0.0,0.0,0.0,0.0,0.0,0.0,0.0,0.0,0.0,0.0,0.0,0.0,0.0,0.0,0.0,0.0,0.0,0.0,0.0,0.0,0.0,0.0,0.0,0.0,0.0,0.0,0.0,0.0,0.0,0.0,0.0,0.0,0.0,0.0,0.0,0.0,0.0,0.0,0.0,0.0,0.0,0.0,0.0,0.0,0.0,0.0,0.0,0.0,0.0,0.0,0.0,0.0,0.0,0.0,0.0,0.0,0.0,0.0,0.0,0.0,0.0,0.0,0.0,0.0,0.0,0.0,0.0,0.0,0.0,0.0,0.0,0.0,0.0,0.0,0.0,0.0,0.0,0.0,0.0,0.0,0.0,0.0,0.0,0.0,0.0,0.0,0.0,0.0,0.0,0.0,0.0,0.0,0.0,0.0,0.0,0.0,0.0,0.0,0.0,0.0,0.0,0.0,0.0,0.0,0.0,0.0,0.0,0.0,0.0,0.0,0.0,0.0,0.0,0.0,0.0,0.0,0.0,0.0,0.0,0.0,0.0,0.0,0.0,0.0,0.0,0.0,0.0,0.0,0.0,0.0,0.0,0.0,0.0,0.0,0.0,0.0,0.0,0.0,0.0,0.0,0.0,0.0,0.0,0.0,0.0,0.0,0.0,0.0,0.0,0.0,0.0,0.0,0.0,0.0,0.0,0.0,0.0,0.0,0.0,0.0,0.0,0.0,0.0,0.0,0.0,0.0,0.0,0.0,0.0,0.0,0.0,0.0,0.0,0.0,0.0,0.0,0.0,0.0,0.0,0.0,0.0,0.0,0.0,0.0,0.0,0.0,0.0,0.0,0.0,0.0,0.0,0.0,0.0,0.0,0.0,0.0,0.0,0.0,0.0,0.0,0.0,0.0,0.0,0.0,0.0,0.0,0.0,0.0,0.0,0.0,0.0,0.0,0.0,0.0,0.0,0.0,0.0,0.0,0.0,0.0,0.0,0.0,0.0,0.0,0.0,0.0,0.0,0.0,0.0,0.0,0.0,0.0,0.0,0.0,0.0,0.0,0.0,0.0,0.0,0.0,0.0,0.0,0.0,0.0,0.0,0.0,0.0,0.0,0.0,0.0,0.0,0.0,0.0,0.0,0.0,0.0,0.0,0.0,0.0,0.0,0.0,0.0,0.0,0.0,0.0,0.0,0.0,0.0,0.0,0.0,0.0,0.0,0.0,0.0,0.0,0.0,0.0,0.0,0.0,0.0,0.0,0.0,0.0,0.0,0.0,0.0,0.0,0.0,0.0,0.0,0.0,0.0,0.0,0.0,0.0,0.0,0.0,0.0,0.0,0.0,0.0,0.0,0.0,0.0,0.0,0.0,0.0,0.0,0.0,0.0,0.0,0.0,0.0,0.0,0.0,0.0,0.0,0.0,0.0,0.0,0.0,0.0,0.0,0.0,0.0,0.0,0.0,0.0,0.0,0.0,0.0,0.0,0.0,0.0,0.0,0.0,0.0,0.0,0.0,0.0,0.0,0.0,0.0,0.0,0.0,0.0,0.0,0.0,0.0,0.0,0.0,0.0,0.0,0.0,0.0,0.0,0.0,0.0,0.0,0.0,0.0,0.0,0.0,0.0,0.0,0.0,0.0,0.0,0.0,0.0,0.0,0.0,0.0,0.0,0.0,0.0,0.0,0.0,0.0,0.0,0.0,0.0,0.0,0.0,0.0,0.0,0.0,0.0,0.0,0.0,0.0,0.0,0.0,0.0,0.0,0.0,0.0,0.0,0.0,0.0,0.0,0.0,0.0,0.0,0.0,0.0,0.0,0.0,0.0,0.0,0.0,0.0,0.0,0.0,0.0,0.0,0.0,0.0,0.0,0.0,0.0,0.0,0.0,0.0,0.0,0.0,0.0,0.0,0.0,0.0,0.0,0.0,0.0,0.0,0.0,0.0,0.0,0.0,0.0,0.0,0.0,0.0,0.0,0.0,0.0,0.0,0.0,0.0,0.0,0.0,0.0,0.0,0.0,0.0,0.0,0.0,0.0,0.0,0.0,0.0,0.0,0.0,0.0,0.0,0.0,0.0,0.0,0.0,0.0,0.0,0.0,0.0,0.0,0.0,0.0,0.0,0.0,0.0,0.0,0.0,0.0,0.0,0.0,0.0,0.0,0.0,0.0,0.0,0.0,0.0,0.0,0.0,0.0,0.0,0.0,0.0,0.0,0.0,0.0,0.0,0.0,0.0,0.0,0.0,0.0,0.0,0.0,0.0,0.0,0.0,0.0,0.0,0.0,0.0,0.0,0.0,0.0,0.0,0.0,0.0,0.0,0.0,0.0,0.0,0.0,0.0,0.0,0.0,0.0,0.0,0.0,0.0,0.0,0.0,0.0,0.0,0.0,0.0,0.0,0.0,0.0,0.0,0.0,0.0,0.0,0.0,0.0,0.0,0.0,0.0,0.0,0.0,0.0,0.0,0.0,0.0,0.0,0.0,0.0,0.0,0.0,0.0,0.0,0.0,0.0,0.0,0.0,0.0,0.0,0.0,0.0,0.0,0.0,0.0,0.0,0.0,0.0,0.0,0.0,0.0,0.0,0.0,0.0,0.0,0.0,0.0,0.0,0.0,0.0,0.0,0.0,0.0,0.0,0.0,0.0,0.0,0.0,0.0,0.0,0.0,0.0,0.0,0.0,0.0,0.0,0.0,0.0,0.0,0.0,0.0,0.0,0.0,0.0,0.0,0.0,0.0,0.0,0.0,0.0,0.0,0.0,0.0,0.0,0.0,0.0,0.0,0.0,0.0,0.0,0.0,0.0,0.0,0.0,0.0,0.0,0.0,0.0,0.0,0.0,0.0,0.0,0.0,0.0,0.0,0.0,0.0,0.0,0.0,0.0,0.0,0.0,0.0,0.0,0.0,0.0,0.0,0.0,0.0,0.0,0.0,0.0,0.0,0.0,0.0,0.0,0.0,0.0,0.0,0.0,0.0,0.0,0.0,0.0,0.0,0.0,0.0,0.0,0.0,0.0,0.0,0.0,0.0,0.0,0.0,0.0,0.0,0.0,0.0,0.0,0.0,0.0,0.0,0.0,0.0,0.0,0.0,0.0,0.0,0.0,0.0,0.0,0.0,0.0,0.0,0.0,0.0,0.0,0.0,0.0,0.0,0.0,0.0,0.0,0.0,0.0,0.0,0.0,0.0,0.0,0.0,0.0,0.0,0.0,0.0,0.0,0.0,0.0,0.0,0.0,0.0,0.0,0.0,0.0,0.0,0.0,0.0,0.0,0.0,-3.0986,0.0,0.0,0.0,0.0,0.0,0.0,0.0,0.0,0.0,0.0,0.0,0.0,0.0,0.0,0.0,0.0,0.0,0.0,0.0,0.0,0.0,0.0,0.0,0.0,0.0,0.0,0.0,0.0,0.0,0.0,0.0,0.0,0.0,0.0,0.0,0.0,0.0,0.0,0.0,-2.8573,-2.8295,-2.8157,-2.7934,-2.786,-2.7981,0.0,0.0,0.0,0.0,0.0,0.0,0.0,0.0,0.0,0.0,0.0,0.0,0.0,0.0,0.0,0.0,0.0,0.0,0.0,0.0,0.0,0.0,0.0,0.0,0.0,0.0,0.0,0.0,0.0,0.0,0.0,0.0,0.0,0.0,0.0,0.0,0.0,0.0,0.0,0.0,0.0,0.0,0.0,0.0,0.0,0.0,0.0,0.0,0.0,0.0,0.0,0.0,0.0,0.0,0.0,0.0,0.0,0.0,0.0,0.0,0.0,0.0,0.0,0.0,0.0,0.0,0.0,0.0,0.0,0.0,0.0,-3.0986,0.0,0.0,0.0,0.0,0.0,0.0,0.0,0.0,0.0,0.0,0.0,0.0,0.0,0.0,0.0,0.0,0.0,0.0,0.0,0.0,0.0,0.0,0.0,0.0,-3.237,-3.237,-3.2244,-3.216,0.0,0.0,0.0,0.0,0.0,0.0,0.0,-2.9421,-2.9026,-2.8771,-2.8327,-2.7901,-2.749,-2.749,-2.749,-2.7516,-2.802,0.0,0.0,0.0,0.0,0.0,0.0,0.0,0.0,0.0,0.0,0.0,0.0,0.0,0.0,0.0,0.0,0.0,0.0,0.0,0.0,0.0,0.0,0.0,0.0,0.0,0.0,0.0,0.0,0.0,0.0,0.0,0.0,0.0,0.0,0.0,0.0,0.0,0.0,0.0,0.0,0.0,0.0,0.0,0.0,0.0,0.0,0.0,0.0,0.0,0.0,0.0,0.0,0.0,0.0,0.0,0.0,0.0,0.0,0.0,0.0,0.0,0.0,0.0,-3.0986,-3.0986,-3.0986,-3.0986,-3.0986,-3.0986,-3.0986,-3.0986,-3.0986,0.0,0.0,0.0,0.0,0.0,0.0,0.0,0.0,0.0,0.0,0.0,0.0,0.0,0.0,0.0,0.0,0.0,0.0,0.0,0.0,0.0,0.0,-3.2302,-3.2219,-3.2219,-3.158,-3.1174,-3.1174,0.0,0.0,0.0,0.0,0.0,-2.939,-2.8912,-2.8683,-2.8619,-2.8276,-2.7901,-2.749,-2.749,-2.749,-2.749,-2.7568,-2.7974,-2.8573,0.0,0.0,0.0,0.0,0.0,0.0,0.0,0.0,0.0,0.0,0.0,0.0,0.0,0.0,0.0,0.0,0.0,0.0,0.0,0.0,0.0,0.0,0.0,0.0,0.0,0.0,0.0,0.0,0.0,0.0,0.0,0.0,0.0,0.0,0.0,0.0,0.0,0.0,0.0,0.0,0.0,-3.1982,-3.1629,0.0,0.0,0.0,0.0,0.0,0.0,0.0,0.0,0.0,0.0,0.0,0.0,0.0,-3.0986,-3.0986,-3.0986,-3.0986,-3.0986,-3.0986,-3.0986,-3.0986,-3.0986,-3.0986,-3.0986,-3.0986,0.0,-3.0986,-3.0986,0.0,0.0,0.0,0.0,0.0,0.0,0.0,0.0,0.0,0.0,0.0,0.0,0.0,0.0,0.0,0.0,0.0,0.0,0.0,0.0,0.0,-3.1949,-3.165,-3.165,-3.0911,-3.0615,-3.0984,-3.0465,0.0,0.0,0.0,-2.9355,-2.8638,-2.8619,-2.849,-2.8308,-2.7947,-2.7669,-2.749,-2.749,-2.749,-2.749,-2.749,-2.7802,-2.8322,-2.8478,0.0,0.0,0.0,0.0,0.0,0.0,0.0,0.0,0.0,0.0,0.0,0.0,0.0,0.0,0.0,0.0,0.0,0.0,0.0,0.0,0.0,0.0,0.0,0.0,0.0,0.0,0.0,0.0,0.0,0.0,0.0,0.0,0.0,0.0,0.0,0.0,0.0,0.0,0.0,-3.1813,-3.1776,-3.1629,-3.1421,-3.1198,0.0,0.0,0.0,0.0,0.0,0.0,0.0,0.0,0.0,-3.0986,-3.0986,-3.0986,-3.0986,-3.0986,-3.0986,-3.0986,-3.0986,-3.0986,-3.0986,-3.0986,-3.0986,-3.0986,-3.0986,-3.0986,-3.0986,-3.0986,-3.0986,-3.0986,0.0,0.0,0.0,0.0,-3.0986,-3.1026,0.0,0.0,0.0,0.0,0.0,0.0,0.0,0.0,0.0,0.0,0.0,0.0,-3.2117,-3.1492,-3.1043,-3.0852,-3.0088,-2.9827,-3.0345,-2.9858,0.0,0.0,-2.9355,-2.8908,-2.8243,-2.8554,-2.8457,-2.7947,-2.7736,-2.7603,-2.749,-2.749,-2.749,-2.749,-2.7603,-2.7802,-2.8112,-2.8373,-2.8716,-2.9172,0.0,0.0,0.0,0.0,0.0,0.0,0.0,0.0,0.0,0.0,0.0,0.0,0.0,0.0,0.0,0.0,0.0,0.0,0.0,0.0,0.0,0.0,0.0,0.0,0.0,0.0,0.0,0.0,0.0,0.0,0.0,0.0,0.0,0.0,0.0,0.0,0.0,-3.1593,-3.1556,-3.1445,-3.1161,-3.0986,0.0,0.0,0.0,0.0,0.0,0.0,-3.0986,-3.0986,-3.0986,-3.0986,-3.0986,-3.0986,-3.0986,-3.0986,-3.0986,-3.0986,-3.0986,-3.0986,-3.0986,-3.0986,-3.0986,-3.0986,-3.0986,-3.0986,-3.0986,-3.0986,-3.0986,-3.0986,-3.0986,-3.0986,-3.0986,-3.0986,-3.0986,-3.1065,0.0,0.0,0.0,0.0,0.0,0.0,0.0,0.0,0.0,0.0,0.0,-3.1964,-3.1333,-3.1014,-3.0554,-2.995,-2.9093,-2.8597,-2.8629,-2.8006,-2.7656,-2.7656,-2.7967,-2.8308,-2.8554,-2.8908,-2.8573,-2.7523,-2.7901,-2.7868,-2.749,-2.749,-2.749,-2.7536,-2.7914,-2.8079,-2.8112,-2.8112,-2.8503,-2.9099,-2.9158,0.0,0.0,0.0,0.0,0.0,0.0,0.0,0.0,0.0,0.0,0.0,0.0,0.0,0.0,0.0,0.0,0.0,0.0,0.0,0.0,0.0,0.0,0.0,0.0,0.0,0.0,0.0,0.0,0.0,0.0,0.0,0.0,0.0,0.0,0.0,0.0,0.0,0.0,-3.1099,-3.1024,0.0,0.0,0.0,0.0,-3.0986,-3.0986,-3.0986,-3.0986,-3.0986,-3.0986,-3.0986,-3.0986,-3.0986,-3.0986,-3.0986,-3.0986,-3.0986,-3.0986,-3.0986,-3.0986,-3.0986,-3.0986,-3.0986,-3.0986,-3.0986,-3.0986,-3.0986,-3.0986,-3.0986,-3.0986,-3.0986,-3.0986,-3.0986,-3.0986,-3.1065,0.0,0.0,0.0,0.0,0.0,0.0,0.0,0.0,-3.237,-3.2274,-3.2219,-3.2079,-3.1752,-3.116,-3.0524,-2.9858,-2.8998,-2.8514,-2.8514,-2.8118,-2.8164,-2.883,-2.8587,-2.8471,-2.8587,-2.849,-2.8276,-2.7881,-2.8243,-2.8099,-2.7503,-2.7769,-2.7881,-2.7868,-2.7769,-2.7967,-2.8438,-2.8651,-2.9004,-2.9415,-2.9415,-2.9477,0.0,0.0,0.0,0.0,0.0,0.0,0.0,0.0,0.0,0.0,0.0,0.0,0.0,0.0,0.0,0.0,0.0,0.0,0.0,0.0,0.0,0.0,0.0,0.0,0.0,0.0,0.0,0.0,0.0,0.0,0.0,0.0,0.0,0.0,0.0,0.0,0.0,-3.1024,-3.0986,0.0,0.0,-3.0986,-3.0986,-3.0986,-3.0986,-3.0986,-3.0986,-3.0986,-3.0986,-3.0986,-3.0986,-3.0986,-3.0986,-3.0986,-3.0986,-3.0986,-3.0986,-3.0986,-3.0986,-3.0986,-3.0986,-3.0986,-3.0986,-3.0986,-3.0986,-3.0986,-3.0986,-3.0986,-3.0986,-3.0986,-3.0986,-3.0986,-3.1222,-3.1614,0.0,0.0,0.0,0.0,0.0,0.0,0.0,0.0,-3.2287,-3.2219,-3.2122,-3.1953,-3.1625,-3.0852,-3.0086,-2.9425,-2.8629,-2.8157,-2.8157,-2.8,-2.8197,-2.8862,-2.8716,-2.8554,-2.8438,-2.8438,-2.8373,-2.8276,-2.8503,-2.8295,-2.7703,-2.798,-2.8013,-2.7901,-2.7769,-2.7967,-2.8471,-2.8908,-2.9226,-2.9446,-2.954,-2.9602,-2.9602,0.0,0.0,0.0,0.0,0.0,0.0,0.0,0.0,0.0,0.0,0.0,0.0,0.0,0.0,0.0,0.0,0.0,0.0,0.0,0.0,0.0,0.0,0.0,0.0,0.0,0.0,0.0,0.0,0.0,0.0,0.0,0.0,0.0,0.0,0.0,-3.0986,-3.0986,-3.0986,-3.0986,-3.0986,-3.0986,-3.0986,-3.0986,-3.0986,-3.0986,-3.0986,-3.0986,-3.0986,-3.0986,-3.0986,-3.0986,-3.0986,-3.0986,-3.0986,-3.0986,-3.0986,-3.0986,-3.0986,-3.0986,-3.0986,-3.0986,-3.0986,-3.0986,-3.0986,-3.0986,-3.0986,-3.0986,-3.0986,-3.0986,-3.0986,-3.0986,-3.1352,-3.1915,0.0,0.0,0.0,0.0,0.0,0.0,0.0,-3.2302,-3.2191,-3.2191,-3.1968,-3.1539,-3.0866,-3.0042,-2.9268,-2.8565,-2.7908,-2.7523,-2.749,-2.749,-2.7503,-2.7523,-2.8197,-2.8438,-2.8112,-2.8748,-2.8908,-2.8587,-2.8619,-2.8438,-2.8079,-2.8079,-2.7901,-2.7536,-2.7914,-2.8079,-2.8145,-2.8812,-2.9067,-2.9099,-2.9446,-2.9571,-2.9571,0.0,0.0,0.0,0.0,0.0,0.0,0.0,0.0,0.0,0.0,0.0,0.0,0.0,0.0,0.0,0.0,0.0,0.0,0.0,0.0,0.0,0.0,0.0,0.0,0.0,0.0,0.0,0.0,0.0,0.0,0.0,0.0,0.0,-3.0986,-3.0986,-3.0986,-3.0986,-3.0986,-3.0986,-3.0986,-3.0986,-3.0986,-3.0986,-3.0986,-3.0986,-3.0986,-3.0986,-3.0986,-3.0986,-3.0986,-3.0986,-3.0986,-3.0986,-3.0986,-3.0986,-3.0986,-3.0986,-3.0986,-3.0999,-3.1013,-3.1013,-3.1026,-3.1039,-3.1039,-3.1039,-3.1039,-3.1039,-3.0999,-3.0986,-3.0986,-3.0999,-3.1392,-3.2019,0.0,0.0,0.0,0.0,0.0,0.0,0.0,-3.237,-3.2274,-3.2066,-3.1996,-3.1611,-3.0673,-3.0359,-2.978,-2.8597,-2.832,-2.8039,-2.7523,-2.749,-2.7636,-2.7914,-2.8145,-2.8308,-2.8471,-2.8651,-2.8554,-2.8243,-2.8716,-2.8522,-2.7669,-2.798,-2.8046,-2.7947,-2.7736,-2.7967,-2.8471,-2.8406,-2.8522,-2.878,-2.9383,-2.9446,-2.9257,0.0,0.0,0.0,0.0,0.0,0.0,0.0,0.0,0.0,0.0,0.0,0.0,0.0,0.0,0.0,0.0,0.0,0.0,0.0,0.0,0.0,0.0,0.0,0.0,0.0,0.0,0.0,0.0,0.0,0.0,0.0,0.0,-3.0516,-3.0934,-3.0986,-3.0986,-3.0986,-3.0986,-3.0986,-3.0986,-3.0986,-3.0986,-3.0986,-3.0986,-3.0986,-3.0986,-3.0986,-3.0986,-3.0986,-3.0986,-3.0986,-3.0986,-3.0986,-3.0986,-3.0986,-3.0986,-3.0986,-3.0999,-3.1418,-3.1575,-3.1588,-3.2045,-3.2228,-3.2228,-3.2228,-3.2228,-3.2136,-3.1313,-3.0986,-3.1039,-3.1457,-3.2241,-3.3208,0.0,0.0,0.0,0.0,0.0,0.0,0.0,-3.2342,-3.2247,-3.2025,-3.1726,-3.1248,-3.0584,-2.9995,-2.9345,-2.8578,-2.8222,-2.7908,-2.7523,-2.749,-2.759,-2.7848,-2.8013,-2.8177,-2.8406,-2.8522,-2.8503,-2.8308,-2.8683,-2.849,-2.7769,-2.798,-2.8013,-2.7848,-2.759,-2.7723,-2.8131,-2.8112,-2.821,-2.8471,-2.9131,-2.9257,-2.9131,-2.932,-2.9477,-2.9602,-2.9602,-2.9602,-2.9602,-2.9602,0.0,0.0,0.0,0.0,0.0,0.0,0.0,0.0,0.0,0.0,0.0,0.0,0.0,0.0,0.0,0.0,0.0,0.0,0.0,0.0,0.0,0.0,0.0,0.0,-2.9758,-3.0296,-3.0908,-3.0986,-3.0986,-3.0986,-3.0986,-3.0986,-3.0986,-3.0986,-3.0986,-3.0986,-3.0986,-3.0986,-3.0986,-3.0986,-3.0986,-3.0986,-3.0986,-3.0986,-3.0986,-3.0986,-3.1104,-3.1352,-3.1352,-3.147,-3.1705,-3.2045,-3.2163,0.0,-3.2555,-3.2685,-3.2685,-3.2685,-3.2685,0.0,0.0,0.0,0.0,0.0,-3.2999,-3.3679,0.0,0.0,0.0,0.0,0.0,0.0,0.0,-3.2311,-3.217,-3.194,-3.1263,-3.0673,-3.0299,-2.9219,-2.8481,-2.8384,-2.7842,-2.749,-2.749,-2.749,-2.7523,-2.757,-2.7868,-2.8079,-2.8145,-2.8406,-2.8522,-2.8522,-2.8522,-2.8373,-2.8013,-2.8013,-2.7848,-2.749,-2.757,-2.757,-2.759,-2.798,-2.8145,-2.821,-2.8812,-2.9067,-2.9099,-2.9131,-2.9352,-2.9602,-2.9602,-2.9602,-2.9602,-2.9602,0.0,0.0,0.0,0.0,0.0,0.0,0.0,0.0,0.0,0.0,0.0,0.0,0.0,0.0,0.0,0.0,0.0,0.0,0.0,0.0,0.0,0.0,0.0,0.0,-2.9719,-3.0283,-3.0817,-3.0947,-3.0986,-3.0986,-3.0986,-3.0986,-3.0986,-3.0986,-3.0986,-3.0986,-3.0986,-3.0986,-3.0986,0.0,0.0,0.0,0.0,-3.1013,-3.1078,-3.1078,-3.1365,-3.1902,-3.1902,-3.2163,-3.2685,-3.2764,-3.279,-3.279,-3.2855,-3.2881,-3.2881,-3.2881,-3.2881,-3.2868,-3.2738,-3.2738,-3.2855,-3.3391,-3.3626,-3.3757,0.0,0.0,0.0,0.0,0.0,0.0,0.0,-3.2536,-3.2194,-3.1322,-3.1072,-3.0435,-2.903,-2.8675,-2.8287,-2.7756,-2.7556,-2.749,-2.749,-2.749,-2.7636,-2.798,-2.7736,-2.7901,-2.8503,-2.8308,-2.821,-2.821,-2.821,-2.8,-2.7636,-2.7636,-2.757,-2.749,-2.7848,-2.798,-2.8013,-2.8373,-2.8503,-2.849,-2.8651,-2.8844,-2.9131,-2.9383,-2.954,-2.9602,-2.9602,-2.9602,-2.9602,-2.9602,-2.9602,-2.954,-2.9289,-2.9086,0.0,0.0,0.0,0.0,0.0,0.0,0.0,0.0,0.0,0.0,0.0,0.0,0.0,0.0,0.0,0.0,0.0,0.0,0.0,-2.859,-2.9444,-3.014,-3.0244,-3.0699,-3.0986,-3.0986,-3.0986,-3.0986,-3.0986,-3.0986,-3.0986,-3.0986,-3.0986,-3.0986,-3.0986,-3.0986,0.0,-3.0986,-3.0986,-3.1209,-3.1628,-3.1641,-3.1928,-3.2529,0.0,0.0,-3.2712,-3.3195,-3.3417,-3.3443,-3.3875,-3.4071,-3.4071,-3.4071,-3.4071,-3.3979,-3.3051,-3.2986,-3.343,-3.3548,-3.3862,-3.4254,0.0,0.0,0.0,0.0,0.0,0.0,0.0,-3.2916,-3.2511,-3.1827,-3.1231,-3.0383,-2.9194,-2.8753,-2.8411,-2.8085,-2.7901,-2.7703,-2.749,-2.749,-2.7603,-2.7802,-2.7603,-2.7656,-2.8033,-2.7901,-2.7802,-2.7802,-2.7802,-2.7703,-2.749,-2.749,-2.749,-2.7536,-2.7914,-2.8112,-2.8112,-2.8471,-2.8683,-2.8844,-2.8651,-2.8908,-2.9352,-2.9352,-2.9446,-2.9602,-2.9602,-2.9602,-2.9602,-2.9602,-2.9477,-2.932,-2.9162,-2.8876,-2.8587,0.0,0.0,0.0,0.0,0.0,0.0,0.0,0.0,0.0,0.0,0.0,0.0,0.0,0.0,-2.7954,0.0,0.0,-2.8922,-2.9209,-2.9709,-3.0205,-3.0516,-3.0803,-3.0986,-3.0986,-3.0986,-3.0986,-3.0986,-3.0986,-3.0986,-3.0986,-3.0986,-3.0986,-3.0986,-3.0986,-3.1117,-3.1405,-3.1418,-3.1692,-3.2254,-3.2267,-3.2555,-3.3143,-3.3143,-3.3287,-3.3548,-3.3862,-3.3992,-3.4018,-3.428,-3.4397,-3.4397,-3.4397,-3.4397,-3.4345,-3.377,-3.3731,-3.3992,-3.3992,-3.4162,-3.4397,0.0,0.0,0.0,0.0,0.0,0.0,0.0,-3.3229,-3.2773,-3.2374,-3.1469,-3.0527,-2.9698,-2.9118,-2.8709,-2.8503,-2.8276,-2.7947,-2.7536,-2.749,-2.749,-2.749,-2.749,-2.749,-2.749,-2.749,-2.749,-2.749,-2.749,-2.749,-2.749,-2.749,-2.749,-2.7536,-2.7914,-2.8145,-2.821,-2.8554,-2.8876,-2.9162,-2.8908,-2.9131,-2.9571,-2.9289,-2.9352,-2.9571,-2.954,-2.9509,-2.9477,-2.9415,-2.9226,-2.9004,-2.894,-2.8716,-2.8554,-2.8812,-2.8651,0.0,0.0,0.0,0.0,0.0,0.0,0.0,0.0,0.0,-2.7529,-2.7633,-2.8059,-2.8446,-2.8564,-2.9039,-2.9601,-3.0022,-3.0192,-3.0451,-3.0921,-3.0986,-3.0986,-3.0986,-3.0986,-3.0986,-3.0986,-3.0986,-3.0986,-3.0986,-3.0986,-3.0986,-3.0986,-3.1091,-3.1365,-3.1784,-3.1902,-3.2241,-3.2868,-3.2868,-3.3156,-3.3744,-3.3744,-3.3979,-3.4397,-3.4397,-3.4397,-3.4397,-3.4397,-3.4397,-3.4397,-3.4397,-3.4397,-3.4397,-3.4397,-3.4397,-3.4397,-3.4397,-3.4397,-3.4397,0.0,0.0,0.0,0.0,0.0,0.0,0.0,0.0,-3.2733,-3.1832,-3.1584,-3.0998,-2.9673,-2.944,-2.9071,-2.8218,-2.8112,-2.7947,-2.7536,-2.749,-2.749,-2.749,-2.749,-2.749,-2.749,-2.749,-2.749,-2.749,-2.749,-2.749,-2.749,-2.749,-2.749,-2.7536,-2.7914,-2.8276,-2.8554,-2.8908,-2.9226,-2.954,-2.9509,-2.954,-2.9602,-2.954,-2.9571,-2.954,-2.9257,-2.9162,-2.9099,-2.8812,-2.8683,-2.8587,-2.8308,-2.8177,-2.8145,-2.821,-2.7934,-2.7689,-2.8112,-2.8145,-2.8079,-2.8046,-2.8013,-2.7947,0.0,0.0,-2.7633,-2.8177,-2.8368,-2.8577,-2.9114,-2.9653,-3.0022,-3.0087,-3.0555,-3.0908,-3.0973,-3.0986,-3.0986,-3.0986,-3.0986,-3.0986,-3.0986,-3.0986,-3.0986,-3.0986,-3.0986,-3.0986,-3.0986,-3.147,-3.1732,-3.1797,-3.2333,-3.2881,-3.3483,-3.3496,-3.3757,-3.4306,-3.4306,-3.4332,-3.4397,-3.4397,-3.4397,-3.4397,-3.4397,-3.4397,-3.4397,-3.4397,-3.4397,-3.4397,-3.4397,-3.4397,-3.4397,-3.4397,-3.4397,-3.4397,0.0,0.0,0.0,0.0,0.0,0.0,0.0,0.0,0.0,-3.2582,-3.2278,-3.1719,-3.0752,-3.0152,-2.9459,-2.8652,-2.8266,-2.7947,-2.7536,-2.749,-2.749,-2.749,-2.749,-2.749,-2.749,-2.749,-2.749,-2.749,-2.749,-2.749,-2.749,-2.749,-2.749,-2.7536,-2.7914,-2.8276,-2.8619,-2.8972,-2.9289,-2.9571,-2.9383,-2.9415,-2.9571,-2.9383,-2.9415,-2.9571,-2.9446,-2.9383,0.0,-2.9226,-2.9035,-2.8812,-2.8503,-2.8406,-2.8341,-2.8145,-2.8112,-2.8131,-2.8112,-2.8112,0.0,0.0,-2.7736,-2.7795,-2.7975,-2.802,-2.819,-2.8813,-2.917,-2.9483,-2.9732,-3.0241,-3.062,0.0,-3.083,-3.0986,-3.0986,-3.0986,-3.0986,-3.0986,-3.0986,-3.0986,-3.0986,-3.0986,-3.0986,-3.0986,-3.0986,-3.113,-3.147,-3.168,-3.2111,-3.2842,-3.3091,-3.3483,-3.4058,-3.4058,-3.4175,-3.4397,-3.4397,-3.4397,-3.4397,-3.4397,-3.4397,-3.4397,-3.4397,-3.4397,-3.4397,-3.4397,-3.4397,-3.4397,-3.4397,-3.4607,-3.4881,-3.4528,-3.4397,-3.445,0.0,0.0,0.0,0.0,0.0,0.0,0.0,0.0,0.0,0.0,-3.2774,-3.2207,-3.1491,-3.0618,-2.9847,-2.9192,-2.8639,-2.8173,-2.7758,-2.7581,-2.749,-2.749,-2.749,-2.749,-2.749,-2.749,-2.749,-2.749,-2.749,-2.749,-2.749,-2.749,-2.749,-2.7536,-2.7914,-2.8276,-2.8619,-2.8972,-2.9289,-2.9571,-2.9352,-2.9383,-2.9571,-2.932,-2.9383,-2.9571,-2.9509,-2.9446,-2.9446,-2.9352,-2.9162,-2.8908,-2.8683,-2.8522,-2.8438,-2.8276,-2.8341,-2.836,-2.8046,0.0,0.0,-2.757,-2.762,-2.7863,-2.8281,-2.8538,-2.8791,-2.9392,-2.9849,-3.014,-3.0309,-3.0712,-3.0986,-3.0986,-3.0986,-3.0986,-3.0986,-3.0986,-3.0986,-3.0986,-3.0986,-3.0986,-3.0986,-3.0986,-3.0986,-3.0986,-3.113,-3.1405,-3.1784,-3.2111,-3.2712,-3.3561,-3.3731,-3.4005,-3.4397,-3.4397,-3.4397,-3.4397,-3.4397,-3.4397,-3.4397,-3.4397,-3.4397,-3.4397,-3.4397,-3.4397,-3.4397,-3.4397,-3.4502,-3.4646,-3.4646,-3.4999,-3.5469,-3.5025,-3.4868,-3.4933,0.0,0.0,0.0,0.0,0.0,0.0,0.0,0.0,0.0,0.0,0.0,0.0,0.0,-3.0655,-3.0165,-2.9797,-2.9238,-2.8743,-2.8381,-2.7837,-2.749,-2.749,-2.749,-2.749,-2.749,-2.749,-2.749,-2.749,-2.749,-2.749,-2.749,-2.749,-2.749,-2.7536,-2.7914,-2.8276,-2.8619,-2.8972,-2.9289,-2.9602,-2.9571,-2.9571,-2.9602,-2.9571,-2.9571,-2.954,-2.9226,-2.9131,-2.9067,-2.8748,-2.8619,-2.8619,-2.8587,-2.8373,-2.8177,-2.8503,-2.8373,-2.8013,0.0,0.0,-2.7536,-2.749,-2.7941,-2.8394,-2.842,-2.8865,-2.9418,-2.9957,-3.0087,-3.027,-3.0856,-3.0973,-3.0986,-3.0986,-3.0986,-3.0986,-3.0986,-3.0986,-3.0986,-3.0986,-3.0986,-3.0986,0.0,-3.0986,-3.0986,-3.0986,-3.1496,-3.1784,-3.1797,-3.2921,-3.3548,-3.3587,-3.4097,-3.4384,-3.4397,-3.4397,-3.4397,-3.4397,-3.4397,-3.4397,-3.4397,-3.4397,-3.4397,-3.4397,-3.4397,-3.4397,-3.4397,-3.4397,-3.4737,-3.5273,-3.5273,-3.56,-3.607,-3.6057,-3.6057,-3.6057,0.0,0.0,0.0,0.0,0.0,0.0,0.0,0.0,0.0,0.0,0.0,0.0,0.0,0.0,0.0,0.0,-2.9478,-2.9114,-2.9009,-2.8425,-2.8098,-2.8098,-2.7699,-2.749,-2.749,-2.749,-2.749,-2.749,-2.749,-2.749,-2.749,-2.749,-2.7636,-2.7901,-2.8046,-2.8276,-2.8619,-2.8716,-2.8812,-2.894,-2.894,-2.894,-2.8972,-2.9194,-2.9257,-2.9289,0.0,-2.9415,-2.9415,-2.9289,-2.9131,-2.8876,-2.8651,-2.8522,-2.8406,-2.8308,0.0,0.0,0.0,0.0,-2.7594,-2.8007,-2.8242,-2.8582,-2.9366,-2.9706,-3.0006,-3.0581,-3.0699,-3.0764,-3.0947,-3.0986,-3.0986,-3.0986,-3.0986,-3.0986,-3.0986,-3.0986,-3.0986,-3.0986,-3.0986,0.0,0.0,0.0,0.0,-3.1484,-3.1693,-3.2137,-3.296,-3.3378,-3.3757,-3.411,-3.4306,-3.4397,-3.4397,-3.4397,-3.4397,-3.4397,-3.4397,-3.4397,-3.4397,-3.4397,-3.4397,-3.4397,-3.4397,-3.462,-3.4999,-3.4999,-3.5325,-3.5835,-3.5835,-3.6188,-3.6698,-3.6698,-3.6959,-3.7246,0.0,0.0,0.0,0.0,0.0,0.0,0.0,0.0,0.0,0.0,0.0,0.0,0.0,0.0,0.0,0.0,0.0,-2.9588,-2.9588,-2.9026,-2.8734,-2.8734,-2.8347,-2.8059,-2.7837,-2.7837,-2.7699,-2.749,-2.749,-2.757,-2.7703,-2.757,-2.7703,-2.8112,-2.8112,-2.821,-2.8438,-2.8554,-2.8774,-2.908,-2.8876,-2.8981,-2.9274,-2.915,-2.9099,0.0,-2.9194,-2.9226,-2.9257,-2.9383,-2.9289,-2.9035,-2.8716,-2.8522,-2.836,0.0,0.0,0.0,0.0,-2.7646,-2.7915,-2.8281,-2.8699,-2.9209,-2.9918,-3.0257,-3.0542,-3.0908,-3.0986,-3.0986,-3.0986,-3.0986,-3.0986,-3.0986,-3.0986,-3.0986,-3.0986,-3.0986,-3.0986,-3.0986,-3.0986,-3.0986,0.0,0.0,0.0,-3.1771,-3.1993,-3.2568,-3.3535,-3.377,-3.4031,-3.4384,-3.4397,-3.4397,-3.4397,-3.4397,-3.4502,-3.4724,-3.492,-3.4907,-3.4724,-3.4724,-3.4607,-3.441,-3.462,-3.4933,-3.5312,-3.5508,-3.5913,-3.6423,-3.6423,-3.6789,-3.7325,-3.7221,-3.7469,-3.7848,0.0,0.0,0.0,0.0,0.0,0.0,0.0,0.0,0.0,0.0,0.0,0.0,0.0,0.0,0.0,0.0,0.0,0.0,-3.014,-2.964,-2.9327,-2.9327,-2.9287,-2.9048,-2.8472,-2.8459,-2.8164,-2.7581,-2.7581,-2.7795,-2.8172,-2.7795,-2.7861,-2.8238,-2.8238,-2.8238,-2.8271,-2.8552,-2.9203,-2.9931,-2.9366,-2.9637,-3.0341,-2.9481,-2.9132,-2.91,-2.8811,-2.8668,-2.8692,-2.8986,0.0,0.0,0.0,0.0,0.0,0.0,0.0,-2.7503,-2.7529,-2.7968,-2.8399,-2.8451,-2.9314,-3.0113,-3.014,-3.0581,-3.0934,-3.0934,-3.0921,-3.0908,0.0,0.0,-3.0947,-3.0973,-3.0986,-3.0986,-3.0986,-3.0986,-3.0986,0.0,0.0,0.0,0.0,0.0,0.0,-3.1889,0.0,-3.2999,-3.36,-3.4123,-3.4397,-3.4397,-3.4397,-3.441,-3.445,-3.4463,-3.4776,-3.5338,-3.5861,-3.5835,-3.5338,-3.5338,-3.5025,-3.4515,-3.509,-3.5365,-3.543,-3.594,-3.6502,-3.705,-3.705,-3.7403,-3.7854,-3.7611,-3.7657,-3.7854,0.0,0.0,0.0,0.0,0.0,0.0,0.0,0.0,0.0,0.0,0.0,0.0,0.0,0.0,0.0,0.0,0.0,0.0,-3.0802,-3.0228,-2.9879,-2.9879,-2.951,-2.9244,-2.9087,-2.9087,-2.9022,-2.883,-2.883,-2.9026,-2.9365,-2.9262,-2.955,-3.0186,-3.0186,-3.0186,-3.0186,-3.0004,-2.9916,-2.982,-2.9424,-2.9395,-2.9619,-2.963,-2.9611,-2.9645,-2.9815,-2.9571,-2.9157,0.0,0.0,0.0,0.0,0.0,-2.7636,0.0,0.0,-2.7594,-2.8046,-2.8268,-2.8582,-2.947,-2.9879,-3.0218,-3.0673,-3.0555,-3.0309,-3.0309,-3.0006,-2.9849,0.0,0.0,0.0,-3.0921,-3.0986,0.0,-3.0986,-3.0986,0.0,-3.0986,0.0,-3.1156,-3.1549,-3.1719,0.0,0.0,-3.3273,-3.36,-3.4162,-3.4332,-3.4397,-3.4397,-3.4397,-3.462,-3.5064,-3.5469,-3.5744,-3.59,-3.6031,-3.6031,-3.59,-3.59,-3.5809,-3.5678,-3.5835,-3.6149,-3.658,-3.6711,-3.7129,-3.7678,-3.7678,-3.7769,-3.7854,-3.7611,-3.7551,-3.7551,0.0,0.0,0.0,0.0,0.0,0.0,0.0,0.0,0.0,0.0,0.0,0.0,0.0,0.0,0.0,0.0,0.0,0.0,0.0,-3.0686,-3.0503,-3.0503,-3.0202,-2.9915,-2.9653,-2.9653,-2.9536,-2.931,-2.9438,-2.9706,-3.0062,-2.9875,-3.0186,-3.0894,-3.0542,-3.0405,-3.0405,-3.02,-3.0153,0.0,0.0,-2.9773,-3.01,-2.9882,-2.9789,-2.9824,-2.9859,-2.9459,0.0,0.0,0.0,-2.8046,-2.7835,-2.7636,-2.749,-2.749,0.0,-2.7968,-2.8294,-2.8765,-2.9314,-2.9931,-3.0283,-3.0594,-3.0908,-3.0542,-3.01,-3.01,-2.968,0.0,-2.9693,0.0,0.0,0.0,0.0,0.0,-3.0986,-3.0986,-3.0986,0.0,-3.0986,0.0,-3.1745,-3.2032,-3.2594,0.0,-3.3587,-3.3822,-3.4371,-3.4397,-3.4397,-3.4397,-3.4397,-3.4685,-3.5286,-3.6096,-3.6502,-3.6502,-3.6763,-3.675,-3.6502,-3.6502,-3.6358,-3.6123,0.0,-3.664,-3.6831,-3.7092,-3.7404,-3.7703,-3.7703,-3.7703,-3.7703,-3.7413,-3.7307,-3.7214,0.0,0.0,0.0,0.0,0.0,0.0,0.0,0.0,0.0,0.0,-2.9052,0.0,0.0,0.0,0.0,0.0,0.0,0.0,0.0,0.0,-3.0986,-3.0986,-3.0986,-3.0764,-3.0218,-3.0218,-3.0006,-2.9545,-2.9848,-3.0234,-3.056,-3.0255,-3.0429,-3.1027,-3.0395,-3.0116,-3.0116,-3.0046,-3.0352,-3.0756,-3.0193,-3.0463,-3.1101,0.0,-2.9945,-2.991,-2.9525,0.0,0.0,0.0,-2.8343,-2.8013,-2.8013,-2.7769,-2.749,-2.749,-2.7941,-2.8433,-2.8512,-2.9301,-3.0113,-3.0192,-3.062,-3.096,-3.0895,-3.0438,-2.9957,-2.9879,0.0,-2.91,-2.9179,-2.964,-3.0009,-3.0087,0.0,-3.0986,-3.0986,-3.0986,-3.0986,-3.0986,-3.1052,-3.1326,-3.1863,-3.2476,-3.3064,-3.3652,-3.3692,-3.386,-3.4371,-3.4397,-3.4437,-3.4515,-3.458,-3.492,-3.5478,-3.6593,-3.7084,-3.7084,-3.7652,-3.7625,-3.7071,-3.7116,-3.6784,-3.6327,0.0,0.0,-3.6781,-3.7344,-3.7505,-3.7459,-3.7505,-3.7459,-3.7413,-3.7015,-3.6815,-3.6662,0.0,0.0,0.0,0.0,0.0,0.0,0.0,0.0,0.0,0.0,-2.7803,-2.8007,0.0,0.0,0.0,0.0,0.0,0.0,0.0,0.0,0.0,-3.0986,-3.0986,-3.0934,-3.0843,-3.083,-3.079,-3.0686,-3.1116,-3.1322,-3.1395,-3.16,-3.178,-3.1901,-3.1744,-3.1708,-3.1672,-3.1432,-3.1353,-3.1396,-3.0985,-3.0887,-3.1003,-3.0874,0.0,0.0,0.0,0.0,0.0,0.0,-2.8686,-2.759,-2.759,-2.757,-2.749,-2.749,-2.7941,-2.8525,-2.9022,-2.9614,-3.0218,-3.0725,-3.0908,-3.0869,-3.0348,-2.9836,0.0,0.0,-2.8229,-2.7968,-2.8451,-2.9026,0.0,-3.0022,0.0,0.0,0.0,0.0,-3.0986,0.0,0.0,0.0,0.0,0.0,0.0,0.0,0.0,0.0,-3.4397,-3.4397,-3.462,-3.5129,-3.5574,-3.5996,-3.6359,-3.73,-3.7652,-3.7409,-3.7756,-3.7756,-3.7409,-3.7652,-3.7586,-3.7253,-3.7599,0.0,-3.7363,-3.771,-3.7564,-3.7201,-3.74,-3.7353,-3.7062,-3.5941,-3.5499,-3.5258,0.0,0.0,0.0,0.0,0.0,0.0,0.0,-2.749,-2.749,-2.749,-2.749,-2.7594,-2.7902,-2.811,-2.8381,0.0,0.0,0.0,0.0,0.0,0.0,0.0,0.0,0.0,0.0,-3.0986,0.0,0.0,0.0,-3.1776,-3.1593,0.0,0.0,0.0,-3.1909,-3.185,-3.185,-3.1666,-3.1482,-3.1272,-3.1099,-3.0986,-3.0986,0.0,0.0,0.0,0.0,0.0,0.0,0.0,-2.9285,-2.842,-2.8262,-2.7893,-2.749,-2.749,-2.815,-2.8943,-2.9231,-2.9915,-3.0647,-3.0921,-3.0764,-3.0477,-3.0166,0.0,0.0,0.0,-2.7928,-2.7659,-2.8281,0.0,0.0,0.0,0.0,0.0,0.0,0.0,0.0,0.0,0.0,0.0,0.0,0.0,0.0,0.0,0.0,0.0,-3.4243,-3.4243,-3.4559,-3.5273,-3.5718,-3.6233,-3.6805,-3.7404,-3.7703,-3.7703,-3.7854,-3.7762,-3.7505,-3.7762,-3.7749,-3.7505,-3.7762,0.0,-3.7307,-3.7413,-3.7261,-3.6909,-3.7015,-3.7015,-3.6769,-3.5607,-3.5077,-3.4703,0.0,0.0,0.0,0.0,0.0,0.0,0.0,-2.749,-2.749,-2.749,-2.749,-2.749,-2.749,-2.749,-2.7673,0.0,0.0,0.0,0.0,0.0,0.0,0.0,0.0,0.0,0.0,0.0,0.0,0.0,0.0,0.0,0.0,0.0,0.0,0.0,0.0,0.0,-3.1482,-3.1482,-3.1272,0.0,0.0,0.0,0.0,0.0,0.0,0.0,0.0,0.0,0.0,0.0,-2.9941,-2.9415,-2.9231,-2.8473,-2.7659,-2.7529,-2.8268,-2.9127,-2.9127,-2.9872,-3.0658,-3.0658,-3.0281,-2.9879,-2.9748,-2.9039,0.0,0.0,-2.7941,-2.785,-2.8294,0.0,0.0,0.0,0.0,0.0,0.0,0.0,0.0,0.0,0.0,0.0,0.0,0.0,0.0,0.0,0.0,0.0,-3.4076,-3.416,-3.4474,-3.5187,-3.56,-3.6126,-3.676,-3.7208,-3.7505,-3.7703,-3.7703,-3.7657,-3.7505,-3.7657,-3.7657,-3.7505,-3.7703,0.0,0.0,-3.7155,-3.6815,-3.6332,-3.6568,-3.638,-3.5833,-3.5066,-3.4474,-3.3849,0.0,0.0,0.0,0.0,0.0,0.0,0.0,-2.749,-2.749,-2.749,-2.749,-2.749,-2.749,-2.749,-2.7516,0.0,0.0,0.0,0.0,0.0,0.0,0.0,0.0,0.0,0.0,0.0,0.0,0.0,0.0,0.0,0.0,0.0,0.0,0.0,0.0,0.0,0.0,0.0,0.0,0.0,0.0,0.0,0.0,0.0,0.0,0.0,0.0,0.0,0.0,0.0,0.0,-3.0009,-2.9993,-2.9209,-2.8203,-2.7646,0.0,0.0,-2.8499,-2.897,-2.9467,-2.9467,-2.9392,-2.9209,-2.866,0.0,0.0,-2.7686,-2.7968,-2.8307,-2.8407,-2.9301,-3.0035,0.0,0.0,-3.0986,0.0,0.0,0.0,0.0,0.0,0.0,0.0,0.0,0.0,0.0,0.0,0.0,0.0,-3.4285,-3.4546,-3.4904,-3.5512,-3.5846,-3.6022,-3.678,-3.7155,-3.7155,-3.7155,-3.7307,-3.7505,-3.7261,-3.7307,-3.7505,-3.7505,0.0,0.0,-3.7353,-3.6487,-3.5066,-3.6238,-3.5391,-3.3499,-3.34,-3.2767,-3.1735,0.0,0.0,0.0,0.0,0.0,0.0,-2.749,-2.749,-2.749,-2.749,-2.749,-2.749,-2.749,-2.749,-2.749,-2.749,0.0,0.0,0.0,0.0,0.0,0.0,0.0,0.0,0.0,0.0,0.0,-3.1593,0.0,0.0,0.0,0.0,0.0,0.0,0.0,0.0,0.0,0.0,0.0,0.0,0.0,0.0,0.0,0.0,0.0,0.0,0.0,0.0,0.0,0.0,0.0,0.0,-3.0205,-2.9774,0.0,0.0,-2.8203,-2.842,-2.842,-2.8852,-2.931,-2.931,-2.9048,-2.8708,-2.8472,0.0,0.0,-2.802,-2.8216,-2.8595,-2.9314,-2.9787,-3.0218,-3.0594,0.0,0.0,0.0,0.0,0.0,0.0,0.0,0.0,0.0,0.0,0.0,0.0,0.0,0.0,0.0,-3.3738,-3.408,-3.4701,-3.4815,-3.5264,-3.6113,-3.6447,-3.6867,-3.7353,-3.7505,-3.7459,-3.7261,-3.7307,-3.7214,-3.7015,-3.7201,0.0,0.0,-3.6332,-3.5607,-3.4775,-3.4666,-3.403,-3.3101,-3.2499,-3.1988,-3.1436,0.0,0.0,0.0,0.0,0.0,-2.749,-2.749,-2.749,-2.749,-2.749,-2.749,-2.749,-2.749,-2.749,-2.749,-2.749,-2.749,0.0,0.0,0.0,0.0,0.0,0.0,0.0,0.0,0.0,-3.1666,-3.174,-3.1776,0.0,0.0,0.0,0.0,0.0,0.0,0.0,0.0,0.0,0.0,0.0,0.0,0.0,0.0,0.0,0.0,0.0,0.0,0.0,0.0,0.0,0.0,0.0,0.0,0.0,0.0,0.0,-2.842,-2.8381,-2.8177,-2.8438,-2.8765,-2.8765,-2.8438,-2.8124,0.0,0.0,0.0,-2.8294,-2.866,-2.9157,-2.9944,-3.0244,-3.0516,-3.0921,0.0,-3.0986,0.0,0.0,0.0,0.0,0.0,0.0,0.0,0.0,0.0,0.0,0.0,0.0,0.0,-3.3313,-3.3589,-3.4241,-3.4234,-3.466,-3.5583,-3.596,-3.6513,-3.7154,-3.7428,-3.7413,-3.7214,-3.7168,-3.7015,-3.6815,0.0,0.0,0.0,-3.5607,-3.4884,-3.4239,-3.3499,-3.2801,-3.2196,-3.179,-3.1378,-3.1017,0.0,0.0,0.0,0.0,0.0,0.0,-2.749,-2.749,-2.749,-2.749,-2.749,-2.749,-2.749,-2.749,-2.749,-2.749,-2.749,0.0,0.0,0.0,0.0,0.0,0.0,0.0,0.0,0.0,-3.1776,-3.2092,-3.1384,-3.1198,-3.1593,-3.1198,0.0,0.0,0.0,0.0,0.0,0.0,0.0,0.0,0.0,0.0,0.0,0.0,0.0,0.0,0.0,0.0,0.0,0.0,0.0,0.0,0.0,0.0,0.0,0.0,-2.842,-2.8255,-2.7659,-2.7503,-2.7516,-2.7516,-2.7503,-2.7503,0.0,0.0,-2.8407,-2.842,-2.9314,-3.0087,-3.01,-3.0594,-3.0973,-3.0986,-3.0986,0.0,0.0,0.0,0.0,0.0,0.0,0.0,0.0,0.0,0.0,0.0,0.0,0.0,0.0,-3.3124,-3.3197,-3.3411,-3.3931,-3.4104,-3.3922,-3.5249,-3.6034,-3.6334,-3.6595,-3.7015,-3.7459,-3.6747,-3.664,0.0,0.0,0.0,0.0,-3.5607,-3.4434,-3.3201,-3.3201,-3.1902,-3.0141,-3.1227,-3.094,-3.0047,0.0,0.0,0.0,0.0,0.0,0.0,0.0,-2.749,-2.749,-2.749,-2.749,-2.749,-2.749,-2.749,-2.749,-2.749,-2.749,0.0,0.0,0.0,0.0,0.0,0.0,0.0,0.0,-3.2092,-3.1982,-3.2092,-3.1629,-3.1347,-3.1198,-3.1347,-3.1347,-3.1198,0.0,0.0,0.0,0.0,0.0,0.0,0.0,0.0,0.0,0.0,0.0,0.0,0.0,0.0,0.0,0.0,0.0,0.0,0.0,0.0,0.0,-2.9797,-2.9013,0.0,-2.8164,-2.7824,-2.749,-2.749,-2.749,-2.7594,-2.802,0.0,-2.8608,-2.9418,-2.9839,-3.0218,-3.0647,-3.0869,-3.0986,-3.0986,-3.0986,0.0,0.0,0.0,0.0,0.0,0.0,0.0,0.0,0.0,0.0,0.0,0.0,0.0,0.0,-3.3124,-3.3111,-3.3197,-3.3374,-3.3595,-3.3897,-3.4515,-3.5016,-3.5487,-3.5743,-3.6056,-3.6394,-3.6151,0.0,0.0,0.0,0.0,0.0,-3.3476,-3.2476,-3.2033,-3.13,-3.0599,-3.0047,-3.0391,-3.0287,-2.9994,0.0,0.0,0.0,0.0,0.0,0.0,0.0,-2.749,-2.749,-2.749,-2.749,-2.749,-2.749,-2.749,-2.749,-2.749,-2.749,0.0,0.0,0.0,0.0,0.0,0.0,0.0,-3.2461,-3.2237,-3.2092,-3.2092,-3.1593,-3.1235,-3.1024,-3.1272,-3.131,-3.1235,-3.1347,-3.131,0.0,0.0,0.0,0.0,0.0,0.0,-3.0986,0.0,0.0,0.0,0.0,0.0,0.0,0.0,0.0,0.0,0.0,0.0,0.0,0.0,-2.9784,0.0,0.0,-2.8294,-2.785,-2.785,-2.7659,0.0,0.0,0.0,0.0,-2.9905,-3.027,-3.0555,-3.0921,-3.0986,-3.0986,-3.0986,-3.0986,0.0,0.0,0.0,0.0,0.0,0.0,0.0,0.0,0.0,0.0,0.0,0.0,0.0,0.0,-3.3124,-3.3124,-3.3124,-3.3124,-3.3287,-3.3714,-3.4116,-3.4495,-3.4794,-3.5162,-3.5545,-3.5884,-3.5793,0.0,0.0,0.0,0.0,0.0,-3.2336,-3.1575,-3.1472,-3.0443,-2.9994,-2.9994,-2.9994,-2.9994,-2.9994,0.0,0.0,0.0,0.0,0.0,0.0,0.0,-2.749,-2.749,-2.749,-2.749,-2.749,-2.749,-2.749,-2.749,-2.749,0.0,0.0,0.0,0.0,0.0,0.0,0.0,0.0,-3.2064,-3.2092,-3.2055,-3.2055,-3.1384,-3.1061,-3.1061,-3.1061,-3.1272,-3.1629,-3.1198,-3.1198,-3.1482,-3.1161,-3.1024,-3.0986,-3.0986,-3.0986,0.0,0.0,0.0,0.0,0.0,0.0,0.0,0.0,0.0,0.0,0.0,0.0,0.0,0.0,0.0,0.0,0.0,-2.893,-2.842,-2.842,0.0,0.0,0.0,0.0,0.0,0.0,-3.062,-3.0986,-3.0986,-3.0986,-3.0986,-3.0986,0.0,0.0,0.0,0.0,0.0,0.0,0.0,0.0,0.0,0.0,0.0,0.0,0.0,0.0,0.0,-3.3061,-3.3074,-3.3124,-3.3124,-3.3197,-3.3398,-3.3931,-3.421,-3.4223,-3.473,-3.5263,-3.577,-3.5546,0.0,0.0,0.0,0.0,0.0,-3.1931,-3.1483,-3.1381,-3.0391,-2.9994,-2.9994,-2.9994,-2.9994,-2.9994,0.0,0.0,0.0,0.0,0.0,0.0,0.0,0.0,0.0,0.0,-2.749,-2.749,-2.749,-2.749,-2.749,0.0,0.0,0.0,0.0,0.0,0.0,0.0,0.0,0.0,-3.2064,-3.185,-3.174,-3.174,-3.1519,-3.1445,-3.1445,-3.174,-3.1873,-3.1946,-3.1246,-3.0848,-3.0697,-3.1222,-3.1272,-3.0986,-3.0986,-3.0986,0.0,0.0,0.0,0.0,-3.0986,-3.0986,0.0,0.0,0.0,0.0,0.0,0.0,0.0,0.0,-3.0895,-3.0751,-3.062,0.0,-2.842,-2.842,-2.7954,-2.7764,0.0,0.0,0.0,0.0,0.0,0.0,0.0,0.0,0.0,0.0,0.0,0.0,0.0,0.0,0.0,0.0,0.0,0.0,0.0,0.0,0.0,0.0,0.0,0.0,0.0,-3.2416,-3.2701,-3.33,-3.3197,-3.3124,-3.3154,-3.3293,-3.3399,-3.3368,-3.3494,-3.3834,-3.4388,-3.4726,0.0,0.0,0.0,0.0,-3.188,-3.0836,-3.0391,-3.0339,-3.0099,-2.9994,-2.9994,-2.9994,-2.9994,-2.9994,0.0,0.0,0.0,0.0,0.0,0.0,0.0,0.0,0.0,0.0,0.0,-2.749,-2.749,-2.749,0.0,0.0,0.0,0.0,0.0,0.0,0.0,0.0,0.0,-3.0662,-3.1859,-3.1703,-3.1593,-3.1593,-3.1421,-3.131,-3.131,-3.1209,-3.1196,-3.1283,-3.052,-3.0266,-3.0406,-3.0722,-3.0923,-3.0986,-3.0986,0.0,0.0,0.0,0.0,0.0,-3.0986,-3.0986,0.0,-3.0986,-3.0986,-3.0986,0.0,0.0,0.0,0.0,-3.0986,-3.0986,-3.0986,-2.9915,-2.8826,-2.8826,-2.815,-2.7837,-2.9013,0.0,0.0,0.0,0.0,0.0,0.0,0.0,0.0,0.0,0.0,0.0,0.0,0.0,0.0,0.0,0.0,0.0,0.0,0.0,0.0,0.0,0.0,0.0,0.0,-3.2215,-3.252,-3.3258,-3.3154,-3.3154,-3.324,-3.3154,-3.3124,-3.3068,-3.2624,-3.2665,-3.3194,-3.3071,-3.2829,0.0,0.0,0.0,-3.0836,-3.0245,-2.9994,-2.9994,-2.9994,-2.9994,-2.9994,-2.9994,-2.9994,-2.9994,0.0,0.0,0.0,0.0,0.0,0.0,0.0,0.0,0.0,0.0,0.0,0.0,0.0,0.0,0.0,0.0,0.0,0.0,0.0,0.0,0.0,0.0,-2.9645,-3.0365,-3.1468,-3.1519,-3.1519,-3.1519,-3.1235,-3.1099,-3.1099,-3.0495,-3.0317,-3.0355,-2.9999,-3.0037,-3.0394,-3.0305,-3.0545,-3.0986,-3.0986,0.0,0.0,0.0,0.0,0.0,0.0,0.0,0.0,-3.0986,-3.0986,-3.0986,-3.0986,0.0,0.0,0.0,0.0,0.0,-3.0986,-3.0187,-2.931,-2.931,-2.8399,-2.7777,-2.8895,0.0,0.0,0.0,0.0,0.0,0.0,0.0,0.0,0.0,0.0,0.0,0.0,0.0,0.0,0.0,0.0,0.0,0.0,0.0,0.0,0.0,0.0,0.0,0.0,-3.2215,-3.2478,-3.3056,-3.2993,-3.3109,-3.3356,-3.3197,-3.3025,-3.2853,-3.1989,-3.1752,-3.2024,-3.1343,-3.0911,0.0,0.0,0.0,-2.9994,-2.9994,-2.9994,-2.9994,-2.9994,-2.9994,-2.9994,-2.9994,-2.9994,-2.9994,0.0,0.0,0.0,0.0,0.0,0.0,0.0,0.0,0.0,0.0,0.0,0.0,0.0,0.0,0.0,0.0,0.0,0.0,0.0,0.0,0.0,-2.9284,-2.9768,-3.038,-3.1073,-3.1099,-3.1099,-3.1099,-3.1384,-3.1519,-3.1519,-3.1408,-3.0998,-3.0444,-3.132,-3.1209,-3.0444,-3.1073,-3.1222,-3.0986,-3.0986,0.0,0.0,0.0,0.0,0.0,0.0,0.0,0.0,-3.0986,-3.0986,-3.0986,-3.0986,0.0,0.0,0.0,0.0,0.0,-3.0986,-3.0187,-2.931,-2.931,-2.8399,-2.7659,-2.836,0.0,0.0,0.0,0.0,0.0,0.0,0.0,0.0,0.0,0.0,0.0,0.0,0.0,0.0,0.0,0.0,0.0,0.0,0.0,0.0,0.0,0.0,0.0,0.0,0.0,-3.2478,-3.3056,-3.2604,-3.2579,-3.3154,-3.3124,-3.2667,-3.1857,-3.1669,-3.1217,-3.0568,-3.0859,-3.0731,-3.0259,0.0,-3.0542,-2.9994,-2.9994,-2.9994,-2.9994,-2.9994,-2.9994,-2.9994,-2.9994,-2.9994,-2.9994,0.0,0.0,0.0,0.0,0.0,0.0,0.0,0.0,0.0,0.0,0.0,0.0,0.0,0.0,0.0,0.0,0.0,0.0,0.0,0.0,-2.9022,-2.931,-3.0124,-3.0725,-3.0973,-3.0986,-3.0986,-3.0986,-3.1198,-3.1272,-3.1272,-3.1035,-3.0394,-2.9392,-3.0254,-3.0558,-3.0394,-3.0646,-3.0848,-3.0986,0.0,0.0,0.0,0.0,0.0,0.0,0.0,0.0,0.0,0.0,-3.0986,-3.0986,-3.0986,0.0,0.0,0.0,0.0,0.0,-3.0516,-2.968,-2.8904,-2.9231,-2.8399,-2.7646,-2.8242,0.0,0.0,0.0,0.0,0.0,0.0,0.0,0.0,0.0,0.0,0.0,0.0,0.0,0.0,0.0,0.0,0.0,0.0,0.0,0.0,0.0,0.0,0.0,0.0,0.0,-3.2478,-3.3056,-3.2516,-3.2117,-3.1908,-3.1613,-3.1504,-3.1581,-3.108,-3.0351,-2.936,-2.9129,-2.9132,-2.9314,0.0,-2.977,-2.9994,-2.9994,-2.9994,-2.9994,-2.9994,-2.9994,-2.9994,-2.9994,-2.9994,-2.9994,0.0,0.0,0.0,0.0,0.0,0.0,0.0,0.0,0.0,0.0,0.0,0.0,0.0,0.0,0.0,0.0,0.0,0.0,0.0,-2.8621,-2.931,-2.931,-3.0372,-3.0986,-3.0986,-3.0986,-3.0986,-3.0986,-3.0986,-3.0898,-3.0748,-3.0432,-2.978,-2.8895,-2.9496,-3.005,-3.052,-3.0317,-3.0508,-3.0986,0.0,0.0,0.0,0.0,0.0,0.0,0.0,0.0,0.0,0.0,0.0,0.0,0.0,0.0,0.0,-3.027,-3.01,-3.0074,-2.9931,-2.917,-2.8525,-2.8948,-2.8294,-2.7607,0.0,0.0,0.0,0.0,0.0,0.0,0.0,0.0,0.0,0.0,0.0,0.0,0.0,0.0,0.0,0.0,0.0,0.0,0.0,0.0,0.0,0.0,0.0,0.0,0.0,0.0,-3.2616,-3.3111,-3.239,-3.1645,-3.0917,-3.0224,-3.0216,-3.0758,-3.0031,-2.9237,-2.8362,-2.7631,-2.7696,-2.8452,-2.8566,-2.9073,-2.9839,-2.9953,-2.9994,-2.9994,-2.9994,-2.9994,-2.9994,-2.9994,-2.9994,-2.9994,0.0,0.0,0.0,0.0,0.0,0.0,0.0,0.0,0.0,0.0,0.0,0.0,0.0,0.0,0.0,0.0,0.0,0.0,0.0,-2.8621,-2.931,-2.931,-3.0372,-3.0986,-3.0986,-3.0986,-3.0986,-3.0986,-3.0986,-3.0672,-3.0075,-3.0037,-2.996,-2.9922,-3.0596,-3.0911,-3.0949,-3.0949,-3.0949,-3.0986,-3.0986,0.0,0.0,0.0,0.0,0.0,0.0,0.0,0.0,0.0,0.0,0.0,0.0,0.0,-3.0869,-3.027,-3.01,-2.9983,-2.9483,-2.8904,-2.842,-2.8472,-2.7981,0.0,-2.7542,-2.7555,0.0,-2.9052,0.0,0.0,0.0,0.0,0.0,0.0,0.0,0.0,0.0,0.0,0.0,0.0,0.0,0.0,0.0,0.0,0.0,0.0,0.0,0.0,0.0,0.0,0.0,-3.3124,-3.2014,-3.1274,-3.0905,-2.9863,-2.8981,-2.8273,-2.8183,-2.7874,-2.7404,-2.7309,-2.7521,-2.7948,-2.8421,-2.8897,-2.9384,-2.9818,-2.9994,-2.9994,-2.9994,-2.9994,-2.9994,-2.9994,-2.9994,-2.9994,0.0,0.0,0.0,0.0,0.0,0.0,0.0,0.0,0.0,0.0,0.0,0.0,0.0,0.0,0.0,0.0,0.0,0.0,0.0,-2.8621,-2.931,-2.931,-3.0372,-3.0986,-3.0986,-3.0986,-3.0785,-3.0394,-3.0394,-3.0075,-2.9445,-3.0241,-3.0394,-3.0037,-3.071,-3.0986,-3.0986,-3.0986,-3.0986,-3.0986,-3.0986,-3.0986,0.0,0.0,0.0,0.0,0.0,0.0,0.0,0.0,-3.0986,-3.0986,-3.0986,-3.0986,-3.0803,-2.9876,-2.9601,-2.947,-2.8917,-2.8294,-2.7941,-2.8294,-2.7954,0.0,0.0,-2.7798,-2.819,-2.8669,-2.9301,0.0,0.0,0.0,0.0,0.0,0.0,0.0,0.0,0.0,0.0,0.0,0.0,0.0,0.0,0.0,0.0,0.0,0.0,0.0,0.0,0.0,0.0,-3.3258,-3.2059,-3.0802,-2.9632,-2.8485,-2.7375,-2.6256,-2.745,-2.76,-2.6884,-2.7175,-2.75,-2.7886,-2.811,-2.8607,-2.9321,-2.9497,-2.9735,-2.9994,-2.9994,-2.9994,-2.9994,-2.9994,-2.9994,-2.9994,0.0,0.0,0.0,0.0,0.0,0.0,0.0,0.0,0.0,0.0,0.0,0.0,0.0,0.0,0.0,0.0,0.0,0.0,-2.749,-2.8621,-2.931,-2.931,-3.0372,-3.0911,-3.071,-3.0672,-3.047,-2.9999,-2.9806,-2.9484,-2.9121,-3.019,-3.0432,-3.0037,-3.071,-3.0986,-3.0986,-3.0986,-3.0882,-3.0725,-3.0908,-3.0882,0.0,0.0,0.0,0.0,0.0,0.0,0.0,0.0,-3.0986,-3.0986,-3.0986,-3.0986,-3.0764,-2.965,-2.931,-2.914,-2.832,-2.7824,-2.7594,-2.8007,0.0,0.0,-2.7758,-2.8098,-2.8477,-2.8773,-2.9598,-3.0455,0.0,0.0,0.0,0.0,0.0,0.0,0.0,0.0,0.0,0.0,0.0,0.0,0.0,0.0,0.0,0.0,0.0,0.0,0.0,0.0,0.0,0.0,-3.1246,-2.9959,-2.8341,-2.7386,-2.6242,-2.4983,-2.6432,-2.6918,-2.6625,-2.6946,-2.7293,-2.7728,-2.7862,-2.8276,-2.8887,-2.9187,-2.958,-2.9994,-2.9994,-2.9994,-2.9994,-2.9994,-2.9994,-2.9994,0.0,0.0,0.0,0.0,0.0,0.0,0.0,0.0,0.0,0.0,0.0,0.0,0.0,0.0,0.0,0.0,0.0,0.0,-2.749,-2.8621,-2.931,-2.931,-3.0385,-3.0672,-2.9999,-2.9999,-2.9999,-2.9999,-2.9406,-2.9121,-2.9121,-2.9716,-2.9999,-3.0037,-3.071,-3.0986,-3.0986,-3.0973,-3.066,-3.014,-3.0738,-3.0634,-3.0166,0.0,0.0,0.0,0.0,0.0,0.0,0.0,-3.0986,-3.0986,-3.0986,-3.0986,-3.0751,-2.965,-2.931,-2.9013,-2.785,-2.749,-2.749,0.0,0.0,0.0,-2.8255,-2.842,-2.8678,-2.9621,-3.0297,-3.0773,-3.0949,0.0,0.0,0.0,0.0,0.0,0.0,0.0,0.0,0.0,0.0,0.0,0.0,0.0,0.0,0.0,0.0,0.0,0.0,0.0,0.0,0.0,-2.9389,-2.8653,-2.7316,-2.6748,-2.5819,-2.4507,-2.4962,-2.5689,-2.6604,-2.6615,-2.6864,-2.733,-2.7728,-2.7914,-2.7997,-2.8918,-2.958,-2.9994,-2.9994,-2.9994,-2.9994,-2.9994,-2.9994,-2.9994,0.0,0.0,0.0,0.0,0.0,0.0,0.0,0.0,0.0,0.0,0.0,0.0,0.0,0.0,0.0,0.0,0.0,0.0,-2.749,-2.8621,-2.931,-2.931,-2.9952,-3.019,-2.9999,-2.96,-2.9367,-2.9367,-2.96,-2.9716,-2.9767,-3.0394,-3.071,-3.071,-3.0911,-3.0986,-3.096,-3.0555,-3.0244,-3.0074,-2.9876,-2.9928,-3.0113,0.0,0.0,0.0,0.0,0.0,0.0,0.0,0.0,0.0,-3.0986,-3.0712,-3.0241,-2.9497,-2.9022,-2.849,-2.7699,-2.749,0.0,0.0,0.0,0.0,0.0,-2.9048,0.0,0.0,-3.0681,-3.0773,0.0,0.0,0.0,0.0,0.0,0.0,0.0,0.0,0.0,0.0,0.0,0.0,0.0,0.0,0.0,0.0,0.0,0.0,0.0,0.0,0.0,0.0,-2.9175,-2.837,-2.7382,-2.6802,-2.5819,-2.4497,-2.4631,-2.5013,-2.5647,-2.6279,-2.6687,-2.6843,-2.7262,-2.7634,-2.7986,-2.8936,-2.96,-2.9994,-2.9994,-2.9994,-2.9994,-2.9994,-2.9994,-2.9994,0.0,0.0,0.0,0.0,0.0,0.0,0.0,0.0,0.0,0.0,-2.6871,-2.6871,0.0,0.0,0.0,0.0,0.0,0.0,-2.749,-2.8399,-2.892,-2.8892,-2.9387,-2.958,-2.9289,-2.916,-2.9081,-2.9081,-2.9716,-2.9999,-2.9999,-3.071,-3.0986,-3.0986,-3.0986,-3.0869,-3.062,-3.0244,-2.9826,-2.9431,-2.9327,-2.934,-2.9483,0.0,0.0,0.0,0.0,0.0,0.0,0.0,0.0,0.0,-3.0637,-3.0288,-2.9822,-2.8993,-2.8534,-2.8152,-2.7592,0.0,0.0,0.0,0.0,0.0,0.0,0.0,0.0,0.0,0.0,0.0,0.0,0.0,0.0,0.0,0.0,0.0,0.0,0.0,0.0,0.0,0.0,0.0,0.0,0.0,0.0,0.0,0.0,0.0,0.0,0.0,0.0,0.0,-2.7988,-2.7513,-2.6817,-2.6428,-2.5665,-2.4497,-2.4497,-2.4642,-2.4941,-2.5709,-2.6237,-2.6646,-2.7102,-2.7541,-2.794,-2.8719,-2.9311,-2.9765,-2.9921,-2.9994,-2.9994,-2.9994,-2.9994,-2.9994,0.0,0.0,0.0,0.0,0.0,0.0,0.0,0.0,0.0,0.0,-2.5931,-2.5965,0.0,0.0,0.0,0.0,0.0,0.0,0.0,-2.7923,-2.825,-2.8241,-2.881,-2.8833,-2.8207,-2.8779,-2.9121,-2.916,-2.9793,-3.0075,-3.0114,-3.071,-3.0986,-3.0986,-3.0986,-3.066,-3.01,-3.0035,-2.9369,-2.8425,-2.8922,-2.8817,-2.8469,-2.9539,0.0,0.0,0.0,0.0,0.0,0.0,0.0,0.0,-2.9932,-2.9665,-2.9419,-2.8257,-2.7958,-2.7894,-2.7411,0.0,0.0,0.0,0.0,0.0,0.0,0.0,0.0,0.0,0.0,0.0,0.0,0.0,0.0,0.0,0.0,0.0,0.0,0.0,0.0,0.0,0.0,0.0,0.0,0.0,0.0,0.0,0.0,0.0,0.0,0.0,0.0,-2.5802,-2.6314,-2.6335,-2.5823,-2.5854,-2.543,0.0,-2.4497,-2.4497,-2.4518,-2.4972,-2.572,-2.6635,-2.7061,-2.7493,-2.7924,-2.834,-2.8818,-2.9338,-2.9775,-2.9984,-2.9994,-2.9994,-2.9994,-2.9994,0.0,0.0,0.0,0.0,0.0,0.0,0.0,0.0,0.0,0.0,0.0,0.0,0.0,0.0,0.0,0.0,0.0,0.0,0.0,-2.6754,-2.7231,-2.7631,-2.8149,-2.8326,-2.8207,-2.8779,-2.9316,-2.9806,-3.047,-3.0785,-3.0785,-3.0936,-3.0986,-3.0986,-3.0986,-3.066,-3.0074,-2.9653,-2.8982,-2.8153,-2.7841,-2.7838,-2.8044,-2.8394,-2.8734,0.0,0.0,0.0,0.0,0.0,0.0,0.0,-2.9052,-2.8633,-2.827,-2.8096,-2.7674,-2.7233,0.0,-2.7214,0.0,0.0,0.0,0.0,0.0,0.0,0.0,0.0,0.0,0.0,0.0,0.0,0.0,0.0,0.0,0.0,0.0,0.0,0.0,0.0,0.0,0.0,0.0,0.0,0.0,0.0,0.0,0.0,0.0,0.0,0.0,-2.5357,-2.5802,-2.5813,-2.5378,-2.5709,-2.543,0.0,-2.4497,-2.4497,-2.4518,-2.4972,-2.572,-2.6625,-2.6718,-2.7204,-2.7883,-2.7994,-2.8514,-2.9338,-2.9411,-2.9692,-2.9994,-2.9994,-2.9994,-2.9994,0.0,0.0,0.0,0.0,0.0,0.0,0.0,0.0,0.0,0.0,0.0,0.0,0.0,0.0,0.0,0.0,0.0,0.0,0.0,0.0,-2.6528,-2.6989,-2.749,-2.7857,-2.8179,-2.8779,-2.9406,-2.9999,-3.0672,-3.0986,-3.0986,-3.0986,-3.0986,-3.0973,-3.0699,-3.0268,-2.968,-2.8999,-2.8343,-2.7682,-2.7296,-2.7293,-2.752,-2.788,-2.8142,-2.8354,-2.873,0.0,0.0,0.0,0.0,0.0,0.0,0.0,-2.7723,-2.742,-2.7173,-2.7011,0.0,0.0,0.0,0.0,0.0,0.0,0.0,0.0,0.0,0.0,0.0,0.0,0.0,0.0,0.0,0.0,0.0,0.0,0.0,0.0,0.0,0.0,0.0,0.0,0.0,0.0,0.0,0.0,0.0,0.0,0.0,-2.4497,-2.4714,-2.5179,-2.5658,-2.5668,-2.5189,-2.5658,-2.543,-2.4497,-2.4497,-2.4497,-2.4518,-2.4972,-2.5606,-2.6293,-2.6521,-2.7003,-2.7638,-2.7846,-2.8216,-2.8681,-2.9002,-2.9338,-2.9692,-2.9775,-2.9911,-2.9994,0.0,0.0,0.0,0.0,0.0,0.0,0.0,0.0,0.0,0.0,0.0,0.0,0.0,0.0,0.0,0.0,0.0,0.0,0.0,0.0,0.0,-2.65,-2.6974,-2.7574,-2.8327,-2.8937,-2.9484,-2.9999,-3.0672,-3.0986,-3.0986,-3.0986,-3.0934,-3.0817,-3.0309,-2.9722,-2.9056,-2.8386,-2.7752,-2.7167,-2.7011,-2.6943,-2.696,-2.7489,-2.7668,-2.7732,-2.8206,-2.8359,-2.8359,-2.8324,0.0,0.0,0.0,0.0,-2.7275,-2.6694,-2.6705,-2.6875,0.0,0.0,0.0,0.0,0.0,0.0,0.0,0.0,0.0,0.0,0.0,0.0,0.0,0.0,0.0,0.0,0.0,0.0,0.0,0.0,0.0,0.0,0.0,0.0,0.0,0.0,0.0,0.0,0.0,0.0,-2.4497,-2.4497,-2.4673,-2.5055,-2.5606,-2.5668,-2.5189,-2.5658,-2.5471,-2.4621,-2.4538,-2.4497,-2.4507,-2.489,-2.5357,-2.5792,-2.6262,-2.676,-2.7183,-2.7641,-2.7846,-2.7935,-2.8573,-2.8969,-2.9232,-2.9442,-2.964,-2.9785,0.0,0.0,0.0,0.0,0.0,0.0,0.0,0.0,0.0,0.0,-2.517,-2.5639,0.0,0.0,0.0,0.0,0.0,0.0,0.0,0.0,0.0,-2.6538,-2.7091,-2.79,-2.8964,-2.9561,-2.9922,-2.9999,-3.0672,-3.0986,-3.0986,-3.0986,-3.0725,-3.0218,-3.014,-2.9415,-2.8261,-2.8161,-2.758,-2.6794,-2.676,-2.6658,-2.6602,-2.6781,-2.6806,-2.6716,-2.6882,-2.6976,-2.6942,-2.6817,-2.6886,0.0,0.0,0.0,0.0,-2.6683,-2.6624,-2.6602,0.0,0.0,0.0,0.0,0.0,0.0,0.0,0.0,0.0,0.0,0.0,0.0,0.0,0.0,0.0,0.0,0.0,0.0,0.0,0.0,0.0,0.0,0.0,0.0,0.0,0.0,0.0,0.0,0.0,0.0,-2.4497,-2.4497,-2.4528,-2.459,-2.544,-2.5668,-2.5189,-2.5658,-2.5627,-2.5096,-2.4693,-2.4497,-2.4497,-2.4559,-2.4838,-2.5337,-2.5808,-2.6273,-2.6717,-2.7183,-2.7583,-2.7936,-2.8189,-2.8541,-2.8967,-2.9106,-2.9193,-2.9203,0.0,0.0,0.0,0.0,0.0,0.0,0.0,0.0,0.0,0.0,0.0,-2.5429,0.0,0.0,0.0,0.0,0.0,0.0,0.0,0.0,0.0,-2.6562,-2.7382,-2.8403,-2.96,-2.9883,-3.0126,-3.0406,-3.0798,-3.0704,-3.0169,-3.0268,-3.0262,-3.0087,-2.9676,-2.897,-2.8062,-2.7533,-2.7079,-2.6679,-2.6624,-2.6555,-2.6499,-2.6555,-2.6555,-2.6499,-2.6555,-2.6589,-2.6589,-2.6521,-2.6521,-2.6589,-2.6521,0.0,0.0,0.0,0.0,0.0,-2.6692,0.0,0.0,0.0,0.0,0.0,0.0,0.0,0.0,0.0,0.0,0.0,0.0,0.0,0.0,0.0,0.0,0.0,0.0,0.0,0.0,0.0,0.0,0.0,0.0,0.0,0.0,0.0,0.0,-2.4497,-2.4497,-2.4497,-2.4497,-2.4497,-2.5171,-2.543,-2.5189,-2.542,-2.5285,-2.4797,-2.459,-2.4497,-2.4497,-2.4497,-2.4776,-2.5228,-2.5714,-2.6179,-2.6601,-2.6921,-2.7183,-2.7378,-2.7641,-2.7993,-2.8335,-2.8741,-2.8963,-2.9099,0.0,0.0,0.0,0.0,0.0,0.0,0.0,0.0,0.0,0.0,0.0,0.0,0.0,0.0,0.0,0.0,0.0,0.0,0.0,0.0,0.0,-2.6259,-2.7257,-2.83,-2.9378,-2.958,-2.982,-3.0183,-3.0332,-3.0025,-2.9318,-2.9452,-2.9533,-2.9535,-2.8986,-2.8363,-2.7704,-2.7007,-2.6692,-2.6658,-2.6521,-2.6499,-2.6499,-2.6499,-2.6499,-2.6499,-2.6499,-2.6499,-2.6499,-2.6499,0.0,0.0,0.0,0.0,0.0,0.0,0.0,0.0,0.0,0.0,0.0,0.0,0.0,0.0,0.0,0.0,0.0,0.0,0.0,0.0,0.0,0.0,0.0,0.0,0.0,0.0,0.0,0.0,0.0,0.0,0.0,0.0,0.0,0.0,0.0,0.0,0.0,-2.4497,-2.4497,-2.4497,-2.4497,-2.4497,-2.4952,-2.5241,-2.5399,-2.5399,-2.5065,-2.4497,-2.4454,-2.4411,-2.4411,-2.4348,-2.451,-2.49,-2.5581,-2.6048,-2.6341,-2.6736,-2.6846,-2.6812,-2.7133,-2.7412,-2.7781,-2.8281,-2.8647,-2.8866,0.0,0.0,0.0,0.0,0.0,0.0,0.0,0.0,0.0,0.0,0.0,0.0,-2.504,-2.4671,-2.4564,-2.4969,-2.3827,-2.3235,-2.3706,-2.4209,-2.4758,-2.5426,-2.618,0.0,-2.7693,-2.8428,-2.8779,-2.8815,-2.8815,-2.8803,-2.8728,-2.8728,-2.8482,-2.8004,-2.7978,-2.7506,-2.6764,-2.6726,-2.6624,-2.6499,-2.6499,-2.6499,-2.6499,-2.6499,-2.6499,-2.6499,-2.6499,0.0,0.0,0.0,0.0,0.0,0.0,0.0,0.0,0.0,0.0,0.0,0.0,0.0,0.0,0.0,0.0,0.0,0.0,0.0,0.0,0.0,0.0,0.0,0.0,0.0,0.0,0.0,0.0,0.0,0.0,0.0,0.0,0.0,0.0,0.0,0.0,0.0,0.0,0.0,0.0,-2.4497,-2.4497,-2.4497,-2.4497,-2.4497,-2.4952,-2.543,-2.5844,-2.5844,-2.5409,-2.4497,-2.4292,-2.4206,-2.4206,-2.3963,-2.3826,-2.3945,-2.5316,-2.5787,-2.5623,-2.6537,-2.6747,-2.6562,-2.6768,-2.7048,-2.7447,-2.7655,-2.8009,-2.8354,0.0,0.0,0.0,0.0,0.0,0.0,0.0,0.0,0.0,0.0,0.0,0.0,0.0,-2.4698,-2.474,-2.4599,-2.3901,-2.3367,-2.3274,-2.4158,-2.5036,-2.569,-2.6757,-2.7656,-2.8303,-2.8569,-2.8654,-2.8497,-2.8654,-2.8403,-2.7797,-2.7926,-2.7634,-2.7009,-2.7503,-2.7351,-2.6679,-2.6624,-2.6521,-2.6499,-2.6499,-2.6499,-2.6499,-2.6499,-2.6499,0.0,0.0,0.0,0.0,0.0,0.0,0.0,0.0,0.0,0.0,0.0,0.0,0.0,0.0,0.0,0.0,0.0,0.0,0.0,0.0,0.0,0.0,0.0,0.0,0.0,0.0,0.0,0.0,0.0,0.0,0.0,0.0,0.0,0.0,0.0,0.0,0.0,0.0,0.0,0.0,0.0,0.0,0.0,-2.4497,-2.4497,-2.4497,-2.4497,-2.4662,-2.4962,-2.5461,-2.5461,-2.5217,-2.4766,-2.4382,-2.412,-2.3937,-2.3823,-2.3803,-2.3823,-2.4655,-2.5104,-2.5339,-2.5829,-2.6082,-2.6269,-2.6465,-2.6784,-2.7199,-2.754,-2.7936,-2.8291,0.0,0.0,0.0,0.0,0.0,0.0,0.0,0.0,0.0,-2.4262,0.0,0.0,0.0,0.0,-2.4126,-2.3595,-2.3511,-2.3323,-2.2848,-2.3755,-2.4478,-2.4751,-2.585,-2.6551,-2.6785,-2.6854,-2.6913,-2.6954,-2.7189,-2.7097,-2.6639,-2.7027,-2.6978,-2.6512,-2.7003,-2.7,-2.6624,-2.6521,-2.6499,-2.6499,-2.6499,-2.6499,-2.6499,-2.6499,0.0,0.0,0.0,0.0,0.0,0.0,0.0,0.0,0.0,0.0,0.0,0.0,0.0,0.0,-2.6499,0.0,0.0,0.0,0.0,0.0,0.0,0.0,0.0,0.0,0.0,0.0,0.0,0.0,0.0,0.0,0.0,0.0,0.0,0.0,0.0,0.0,0.0,0.0,0.0,0.0,0.0,0.0,0.0,0.0,-2.4497,-2.4497,-2.4497,-2.4497,-2.4652,-2.4807,-2.4952,-2.5063,-2.4941,-2.4655,-2.4176,-2.3851,-2.3711,-2.3627,-2.3584,-2.357,-2.3884,-2.4424,-2.5116,-2.54,-2.5684,-2.6005,-2.6132,-2.6406,-2.6871,-2.7307,-2.7728,-2.8145,0.0,0.0,0.0,0.0,0.0,0.0,0.0,0.0,-2.388,-2.436,0.0,0.0,0.0,0.0,0.0,-2.1908,-2.258,-2.291,-2.2519,-2.2934,-2.2986,-2.254,-2.3294,-2.3487,-2.3049,-2.3317,-2.3686,-2.4156,-2.4493,-2.4898,-2.5347,-2.6129,-2.6499,-2.6499,-2.6499,-2.6499,-2.6499,-2.6499,-2.6499,-2.6499,0.0,-2.6499,-2.6499,0.0,0.0,0.0,-2.6499,-2.6499,0.0,-2.6499,0.0,0.0,0.0,0.0,0.0,0.0,0.0,0.0,0.0,0.0,0.0,0.0,0.0,0.0,0.0,0.0,0.0,0.0,0.0,0.0,0.0,0.0,0.0,0.0,0.0,0.0,0.0,0.0,0.0,0.0,0.0,0.0,0.0,0.0,0.0,0.0,0.0,-2.4497,-2.4497,-2.4497,-2.4497,-2.4497,-2.4931,-2.4962,-2.4528,-2.4743,-2.4666,-2.4184,-2.3741,-2.3513,-2.3503,-2.3232,-2.3091,-2.3091,-2.3091,-2.375,-2.4822,-2.5287,-2.5557,-2.5693,-2.5693,-2.6005,-2.6467,-2.6869,-2.7283,-2.7781,0.0,0.0,0.0,0.0,0.0,-2.3634,-2.3763,-2.4021,-2.4261,0.0,0.0,0.0,-2.4017,-2.3511,-2.2931,-2.2346,-2.2535,-2.2462,-2.2014,-2.2645,-2.2999,-2.287,-2.3575,-2.394,-2.3804,-2.4435,-2.4826,-2.4969,-2.5656,-2.6061,-2.6176,-2.6383,-2.6499,-2.6499,-2.6499,-2.6499,-2.6499,-2.6499,0.0,-2.6499,-2.6499,-2.6499,0.0,0.0,0.0,0.0,0.0,-2.6499,-2.6499,0.0,-2.6499,-2.6499,0.0,0.0,0.0,0.0,0.0,0.0,-2.6499,0.0,0.0,0.0,0.0,0.0,0.0,0.0,0.0,0.0,0.0,0.0,0.0,0.0,0.0,0.0,0.0,0.0,0.0,0.0,0.0,0.0,0.0,0.0,0.0,0.0,0.0,0.0,-2.4497,-2.4497,-2.4497,-2.4497,-2.4497,-2.4497,-2.4492,-2.4579,-2.4784,-2.4686,-2.4454,-2.4211,-2.4014,-2.3668,-2.3188,-2.3135,-2.3091,-2.3091,-2.3091,-2.3624,-2.4522,-2.4651,-2.5101,-2.5693,-2.5693,-2.6005,-2.6467,-2.6841,-2.728,-2.7781,0.0,0.0,0.0,0.0,0.0,-2.361,-2.381,-2.4034,-2.4196,0.0,0.0,0.0,-2.3335,-2.3054,-2.2708,-2.2252,-2.2211,-2.2097,-2.1828,-2.2252,-2.2515,-2.2515,-2.2894,-2.3143,-2.3143,-2.3756,-2.4151,-2.4335,-2.4943,-2.5328,-2.5499,-2.5838,-2.599,-2.6025,-2.6349,-2.6499,-2.6499,-2.6499,0.0,0.0,-2.6499,0.0,0.0,-2.6499,-2.6499,0.0,0.0,0.0,-2.6499,-2.6499,-2.6499,0.0,0.0,0.0,0.0,0.0,0.0,0.0,-2.6094,-2.599,0.0,0.0,0.0,0.0,0.0,-2.3768,0.0,0.0,0.0,0.0,0.0,0.0,0.0,0.0,0.0,0.0,0.0,0.0,0.0,0.0,0.0,0.0,0.0,0.0,0.0,-2.4487,-2.4497,-2.4497,-2.4497,-2.4497,-2.4497,-2.4497,-2.4282,-2.4329,-2.4604,-2.4243,-2.4112,-2.4148,-2.3826,-2.3595,-2.3388,-2.3198,-2.3091,-2.3091,-2.3091,-2.3578,-2.4426,-2.4421,-2.4917,-2.5693,-2.5693,-2.5879,-2.6143,-2.6576,-2.7043,-2.7471,0.0,0.0,-2.3339,-2.3339,-2.3339,-2.3463,-2.3826,-2.3919,-2.3857,0.0,-2.3764,-2.3391,-2.2511,-2.2418,-2.2252,-2.1849,-2.1807,-2.1807,-2.1807,-2.1807,-2.1807,-2.1807,-2.1807,-2.1807,-2.1807,-2.2172,-2.2564,-2.3001,-2.3374,-2.3755,-2.412,-2.4933,-2.5312,-2.5347,-2.6129,0.0,-2.6499,0.0,0.0,-2.6499,-2.6499,-2.6499,0.0,0.0,-2.6499,-2.6499,-2.6499,-2.6499,-2.6499,-2.6499,-2.6499,0.0,0.0,0.0,0.0,0.0,-2.6399,0.0,-2.5467,-2.529,-2.4967,0.0,0.0,0.0,-2.2223,-2.2515,-2.2832,0.0,0.0,0.0,0.0,0.0,0.0,0.0,0.0,0.0,0.0,0.0,0.0,0.0,0.0,0.0,0.0,-2.3888,-2.4043,-2.4394,-2.4466,-2.4497,-2.4497,-2.4497,-2.4497,-2.4497,-2.4282,-2.4163,-2.4163,-2.3727,-2.3697,-2.3969,-2.3462,-2.3397,-2.3722,-2.332,-2.314,-2.3091,-2.3091,-2.3578,-2.4417,-2.4393,-2.4899,-2.5693,-2.5693,-2.5693,-2.5752,-2.625,-2.6647,-2.6992,0.0,0.0,-2.4239,-2.4239,-2.4239,-2.4188,-2.3919,-2.3919,-2.3743,-2.337,-2.2998,-2.2553,-2.2004,-2.1942,-2.1901,-2.1818,-2.1807,-2.1807,-2.1807,-2.1807,-2.1807,-2.1807,-2.1807,-2.1807,-2.1807,-2.2494,-2.2903,-2.3001,-2.3677,-2.4016,-2.412,-2.4933,-2.5312,-2.5347,-2.6129,-2.6499,-2.6499,0.0,0.0,-2.6499,-2.6499,0.0,-2.6499,-2.6499,-2.6499,-2.6499,-2.6499,-2.6499,-2.6499,-2.6499,-2.6499,-2.6499,0.0,0.0,0.0,0.0,0.0,0.0,0.0,0.0,0.0,0.0,0.0,0.0,-2.2663,-2.2994,-2.3221,0.0,0.0,0.0,0.0,0.0,0.0,0.0,0.0,0.0,0.0,0.0,0.0,0.0,0.0,0.0,0.0,-2.366,-2.3919,-2.4002,-2.4333,-2.4497,-2.4497,-2.4497,-2.4497,-2.4497,-2.41,-2.3884,-2.3884,-2.3806,-2.357,-2.3315,-2.3877,-2.3822,-2.3266,-2.3545,-2.3467,-2.3091,-2.3091,-2.3578,-2.4378,-2.4411,-2.4916,-2.5693,-2.5693,-2.5693,-2.5781,-2.6211,-2.6464,-2.6621,0.0,-2.4497,-2.4425,-2.425,-2.4209,-2.4053,-2.3598,-2.3536,-2.337,-2.2904,-2.2439,-2.2066,-2.1828,-2.1807,-2.1807,-2.1807,-2.1807,-2.1807,-2.1807,-2.1807,-2.1807,-2.1807,-2.1807,-2.1807,-2.1807,-2.259,-2.3001,-2.3001,-2.3386,-2.3559,-2.3559,-2.4348,-2.4707,-2.4743,-2.5943,-2.6499,-2.6499,0.0,-2.6499,-2.6499,-2.6499,0.0,-2.6499,-2.6499,-2.6499,-2.6499,-2.6499,-2.6499,-2.6499,-2.6499,-2.6499,0.0,0.0,-2.6499,-2.6349,0.0,-2.5469,-2.5432,0.0,0.0,0.0,-2.3881,0.0,0.0,0.0,-2.3179,0.0,0.0,0.0,0.0,0.0,0.0,0.0,0.0,0.0,0.0,0.0,0.0,0.0,0.0,0.0,0.0,0.0,-2.3049,-2.3381,-2.3836,-2.4291,-2.4497,-2.4497,-2.4497,-2.4454,-2.4325,-2.398,-2.3754,-2.3667,-2.3536,-2.3467,-2.3467,-2.3896,-2.3977,-2.3715,-2.3281,-2.3188,-2.3402,-2.2713,-2.3051,-2.4121,-2.4336,-2.4466,-2.4629,-2.4837,-2.4913,-2.4892,-2.4594,-2.4565,-2.4821,-2.4239,-2.4239,-2.4167,-2.3805,-2.3784,-2.3588,-2.3122,-2.306,-2.2884,-2.2418,-2.2035,-2.1807,-2.1807,-2.1807,-2.1807,-2.1807,-2.1807,-2.1807,-2.1807,-2.1807,-2.1807,-2.1807,-2.1807,-2.1807,-2.1807,-2.244,-2.2777,-2.2777,-2.2777,-2.2777,-2.2777,-2.3694,-2.4108,-2.4192,-2.5791,-2.6499,-2.6499,0.0,0.0,-2.6499,0.0,-2.6499,-2.6499,-2.6499,-2.6499,-2.6499,-2.6499,-2.6499,-2.6499,-2.6499,0.0,-2.6314,-2.6465,-2.6383,0.0,0.0,0.0,0.0,0.0,0.0,0.0,0.0,0.0,-2.3432,0.0,0.0,0.0,0.0,0.0,0.0,0.0,0.0,0.0,0.0,0.0,0.0,0.0,0.0,0.0,0.0,0.0,0.0,0.0,-2.2573,-2.2977,-2.3857,-2.4291,-2.4497,-2.4497,-2.4454,-2.4378,-2.4206,-2.3894,-2.3667,-2.3503,-2.3232,-2.3276,-2.3662,-2.375,-2.3973,-2.422,-2.2954,-2.2793,-2.3434,-2.2076,-2.2184,-2.3257,-2.3677,-2.356,-2.3296,-2.3883,-2.3989,-2.3692,-2.2835,-2.2731,-2.2997,-2.3339,-2.3339,-2.3318,-2.3277,-2.3267,-2.3111,-2.2646,-2.2573,-2.2408,-2.1942,-2.1838,-2.1807,-2.1807,-2.1807,-2.1807,-2.1807,-2.1807,-2.1807,-2.1807,0.0,-2.1807,-2.1807,-2.1807,-2.1807,-2.1807,-2.1883,-2.1959,-2.1959,-2.1959,-2.1959,-2.1959,-2.3427,-2.4108,-2.4192,-2.5791,0.0,0.0,0.0,-2.6499,0.0,-2.6499,-2.6499,0.0,-2.6499,-2.6499,-2.6499,-2.6499,-2.6499,-2.6499,0.0,-2.6025,-2.5558,0.0,-2.6025,-2.5264,0.0,0.0,0.0,0.0,0.0,0.0,0.0,-2.4095,0.0,0.0,0.0,0.0,0.0,0.0,0.0,0.0,0.0,0.0,0.0,0.0,0.0,0.0,0.0,0.0,0.0,0.0,0.0,0.0,0.0,-2.3329,-2.3836,-2.4291,-2.4497,-2.4497,-2.4325,-2.4196,-2.4206,-2.3764,-2.3503,-2.3503,-2.3232,-2.312,-2.3169,-2.3603,-2.3812,-2.3829,-2.3076,-2.2646,-2.2419,-2.1293,-2.0985,-2.1249,-2.1587,-2.1922,-2.2304,-2.3579,-2.3543,-2.2693,-2.2534,-2.2509,-2.2595,-2.308,-2.3184,-2.3101,-2.2832,-2.278,-2.2635,-2.217,-2.2097,-2.2025,-2.1828,-2.1807,-2.1807,-2.1807,0.0,0.0,0.0,0.0,-2.1807,0.0,0.0,-2.1807,-2.1807,-2.1807,-2.1807,-2.1807,-2.1807,-2.1807,-2.1807,-2.1807,-2.2025,-2.2515,-2.3585,-2.4108,-2.4192,-2.5791,0.0,-2.5851,0.0,-2.6499,0.0,0.0,0.0,0.0,-2.6314,-2.6499,-2.643,-2.5955,-2.5804,-2.5734,0.0,-2.5182,0.0,0.0,0.0,0.0,0.0,0.0,0.0,0.0,0.0,0.0,0.0,0.0,0.0,-2.3919,0.0,-2.4136,0.0,0.0,0.0,0.0,0.0,0.0,0.0,0.0,0.0,0.0,0.0,0.0,0.0,0.0,0.0,0.0,0.0,0.0,0.0,0.0,-2.4048,-2.4315,-2.411,-2.3894,-2.3807,-2.359,-2.3416,-2.3276,-2.3144,-2.2828,-2.229,-2.274,-2.2665,-2.2117,-2.1442,-2.1237,-2.1437,-2.0357,-2.0117,-2.056,-2.1135,-2.1151,-2.0843,-2.1862,-2.1988,-2.1489,-2.0885,-2.0637,-2.0652,-2.2677,-2.2811,-2.2708,-2.2366,-2.2304,-2.219,-2.1859,-2.1807,-2.1807,-2.1807,-2.1807,0.0,-2.1807,-2.1807,0.0,0.0,-2.1807,-2.1807,0.0,0.0,-2.1807,0.0,0.0,0.0,0.0,-2.1807,-2.1807,-2.1807,-2.1807,-2.2164,-2.2859,-2.3638,-2.4065,-2.4226,0.0,-2.6171,-2.5564,0.0,0.0,-2.6129,-2.5523,-2.5158,-2.5052,-2.5873,-2.6176,-2.6094,-2.5523,-2.5158,-2.4898,-2.4301,-2.4348,0.0,-2.4228,0.0,0.0,0.0,0.0,0.0,-2.2443,0.0,0.0,0.0,0.0,0.0,0.0,0.0,0.0,0.0,0.0,0.0,0.0,0.0,0.0,0.0,0.0,0.0,0.0,0.0,0.0,0.0,0.0,0.0,0.0,0.0,0.0,-2.2715,-2.3072,-2.3454,-2.3992,-2.3823,-2.3667,-2.3503,-2.3416,-2.3319,-2.3091,-2.2828,-2.2369,-2.1695,-2.1708,-2.1431,-2.0861,-2.0172,-2.0149,-2.0575,-1.9487,-1.9241,-1.9611,-2.025,-2.0095,-1.9483,-2.0167,-2.0483,-2.0388,-1.9583,-1.9279,-1.9279,-2.1849,-2.1849,-2.1849,0.0,0.0,0.0,0.0,0.0,0.0,0.0,0.0,0.0,0.0,0.0,0.0,0.0,0.0,-2.1807,-2.1807,0.0,-2.1807,0.0,0.0,-2.1807,0.0,0.0,-2.1807,-2.1807,-2.1807,-2.2035,-2.2509,-2.3332,-2.3935,-2.4373,-2.6025,-2.6489,-2.6045,-2.6923,-2.6542,-2.5347,-2.5312,-2.4826,-2.4228,0.0,-2.5347,-2.5347,-2.5312,0.0,0.0,-2.4108,-2.3632,0.0,0.0,0.0,0.0,0.0,0.0,0.0,0.0,0.0,0.0,-2.2511,0.0,0.0,0.0,0.0,-2.394,0.0,0.0,0.0,0.0,0.0,0.0,0.0,0.0,0.0,0.0,0.0,0.0,0.0,0.0,0.0,0.0,0.0,0.0,-2.1521,-2.2209,-2.2881,-2.3501,-2.3523,-2.3503,-2.3503,-2.3232,-2.3101,-2.3091,-2.2192,-2.1739,-2.1695,-2.0746,-2.0492,-2.0898,-2.0143,-1.9846,-1.9845,-1.8809,-1.8175,-1.7919,-1.8258,-1.8397,-1.8414,-1.9074,-1.9324,-1.9331,-1.9324,-1.9279,-1.9279,0.0,-2.1807,-2.1807,0.0,0.0,0.0,0.0,-2.1807,0.0,0.0,0.0,0.0,0.0,-2.1807,-2.1807,0.0,0.0,-2.1807,-2.1807,-2.1807,0.0,0.0,0.0,-2.1807,0.0,0.0,0.0,0.0,-2.2263,-2.2754,-2.3688,-2.3952,-2.4185,-2.4338,0.0,-2.5849,0.0,0.0,0.0,0.0,0.0,-2.3925,-2.412,0.0,0.0,-2.4456,-2.3961,-2.3607,0.0,-2.2756,-2.2756,-2.2964,-2.2681,-2.2756,-2.2889,-2.2365,-2.2214,0.0,0.0,0.0,-2.2035,-2.2035,0.0,0.0,0.0,0.0,0.0,0.0,0.0,0.0,0.0,0.0,0.0,0.0,0.0,0.0,0.0,0.0,0.0,0.0,0.0,0.0,0.0,0.0,0.0,-2.1292,-2.2076,-2.2709,-2.3092,-2.3179,-2.3232,-2.3232,-2.3144,-2.3091,-2.3091,-2.2148,-2.1373,-2.0692,-1.9741,-1.9036,-1.8512,-1.8693,-1.871,-1.8524,-1.8612,-1.8331,-1.7819,-1.8398,-1.8513,-1.8364,-1.9023,-1.9279,-1.9279,-1.9279,-1.9279,-1.9338,-2.1464,0.0,0.0,0.0,0.0,0.0,0.0,0.0,0.0,0.0,-2.1807,0.0,-2.1807,0.0,-2.1807,0.0,-2.1807,-2.1807,-2.1807,-2.1807,0.0,-2.1807,-2.1807,0.0,0.0,0.0,0.0,0.0,0.0,-2.3236,-2.4151,-2.4151,-2.4151,-2.4191,0.0,-2.5356,-2.536,0.0,-2.5868,0.0,0.0,-2.2868,0.0,0.0,-2.361,-2.4011,0.0,-2.2815,-2.2478,-2.1949,-2.2138,-2.2478,-2.1949,-2.2138,-2.2478,-2.1959,-2.1807,-2.1807,-2.1807,-2.1807,0.0,-2.1807,-2.2035,0.0,-2.2252,0.0,0.0,0.0,0.0,0.0,0.0,0.0,0.0,0.0,0.0,0.0,0.0,0.0,0.0,0.0,0.0,0.0,0.0,0.0,-2.04,-2.0838,-2.1686,-2.2272,0.0,0.0,-2.2775,-2.3101,-2.2413,-2.2413,-2.3091,-2.1463,-2.0512,-2.0187,-1.8872,-1.7924,-1.734,-1.7845,-1.8048,-1.7983,-1.8454,-1.8376,-1.7987,-1.8434,-1.8506,-1.8357,-1.8891,-1.9177,-1.9279,-1.9279,-1.9279,-1.9367,0.0,0.0,0.0,0.0,-2.1807,0.0,0.0,0.0,-2.1807,0.0,-2.1807,-2.1807,-2.1807,-2.1807,-2.1807,-2.1807,-2.1807,0.0,-2.1807,-2.1807,0.0,0.0,-2.1838,-2.1849,-2.188,0.0,0.0,0.0,0.0,0.0,-2.3919,-2.3919,-2.3909,-2.3888,-2.4742,0.0,-2.48,-2.4935,-2.4636,-2.3961,-2.2429,-2.1807,-2.1845,-2.1807,-2.2745,-2.3938,-2.3202,-2.244,-2.1807,-2.1807,-2.1807,-2.1807,-2.1807,-2.1807,-2.1807,-2.1807,-2.1807,-2.1807,-2.1807,-2.1807,-2.1807,-2.1807,0.0,0.0,0.0,0.0,-2.2459,0.0,0.0,0.0,0.0,0.0,0.0,0.0,0.0,0.0,0.0,0.0,0.0,0.0,0.0,0.0,0.0,-1.8851,-1.935,-2.0147,-2.0974,-2.1661,0.0,0.0,-2.2031,-2.3003,-2.1186,-2.1096,-2.296,-2.0195,-1.9239,-2.0096,-1.8187,-1.7279,-1.7333,-1.7658,-1.7967,-1.8326,-1.8304,-1.8323,-1.8328,-1.8328,-1.8328,-1.8357,-1.8664,-1.8986,-1.9279,-1.9279,-1.9279,-1.9367,-2.1051,-2.1205,-2.1244,0.0,-2.1617,-2.1807,0.0,0.0,0.0,0.0,-2.1807,-2.1807,-2.1807,-2.1807,-2.1807,-2.1807,-2.1807,0.0,0.0,0.0,0.0,-2.2304,-2.2325,-2.248,-2.2822,-2.2946,0.0,-2.3525,0.0,0.0,-2.3919,-2.3919,-2.3691,-2.3401,0.0,0.0,-2.4565,-2.4604,-2.4353,-2.3751,-2.2379,-2.2138,0.0,0.0,-2.2429,-2.3165,-2.2402,-2.1997,-2.1807,-2.1807,-2.1807,-2.1807,-2.1807,-2.1807,-2.1807,-2.1807,-2.1807,-2.1807,-2.1807,-2.1807,-2.1807,-2.1807,-2.1807,-2.1807,0.0,0.0,0.0,0.0,0.0,0.0,0.0,0.0,0.0,0.0,0.0,0.0,0.0,0.0,0.0,0.0,0.0,0.0,0.0,-1.8505,-1.9015,-1.9103,-1.9993,-2.0964,0.0,0.0,0.0,-2.2006,-2.0872,-2.0458,-2.0962,-1.9513,-1.891,-1.9144,-1.7902,-1.7279,-1.7333,-1.7658,-1.797,-1.8302,-1.8585,-1.8678,-1.8664,-1.8664,-1.8664,-1.8672,-1.876,-1.8986,-1.9279,-1.9279,-1.9279,-1.9367,-2.0809,0.0,0.0,-2.1061,0.0,0.0,-2.1655,0.0,0.0,-2.1807,-2.1807,0.0,-2.1807,-2.1807,-2.1807,-2.1807,-2.1807,0.0,-2.1807,0.0,0.0,-2.218,-2.219,-2.2315,-2.2573,-2.278,0.0,-2.3277,0.0,0.0,-2.3577,0.0,0.0,0.0,0.0,-2.3263,0.0,-2.3826,-2.3471,-2.2857,-2.2091,0.0,0.0,-2.1959,-2.2063,-2.2402,-2.1949,-2.1807,-2.1807,-2.1807,-2.1807,-2.1807,-2.1807,-2.1807,-2.1849,-2.2056,-2.2108,-2.2149,-2.2356,-2.2408,-2.2356,-2.2159,-2.2108,-2.2056,-2.1849,-2.1655,-2.1502,0.0,0.0,0.0,0.0,0.0,0.0,0.0,0.0,0.0,0.0,0.0,0.0,0.0,0.0,0.0,0.0,-1.7813,-1.8407,-1.8407,-1.9156,-2.0136,0.0,0.0,0.0,-2.1686,-2.0331,-1.9786,-2.0187,-1.8834,-1.8357,-1.8808,-1.7762,-1.7279,-1.7333,-1.7495,-1.7745,-1.8097,-1.8455,-1.8591,-1.8577,-1.8577,-1.8657,-1.8803,-1.895,-1.9111,-1.9279,-1.9279,-1.9279,-1.9367,0.0,0.0,0.0,0.0,0.0,0.0,0.0,-2.1655,0.0,-2.1807,0.0,-2.1769,-2.1807,-2.1769,-2.1769,-2.1807,0.0,-2.1807,-2.1807,-2.1807,-2.1828,-2.189,-2.189,-2.1921,-2.1983,-2.2387,0.0,0.0,0.0,0.0,0.0,0.0,0.0,0.0,0.0,0.0,0.0,-2.2852,-2.2472,0.0,-2.189,-2.1932,-2.1983,-2.1983,-2.1983,-2.1983,-2.1921,-2.1859,-2.1807,-2.1807,-2.1807,-2.1807,-2.1807,-2.1849,-2.1973,-2.2377,-2.2542,-2.2677,-2.308,-2.3184,-2.3091,-2.2687,-2.2584,-2.248,-2.2076,-2.175,-2.1555,-2.1555,-2.1322,-2.1099,0.0,0.0,0.0,0.0,0.0,0.0,0.0,0.0,0.0,0.0,0.0,0.0,0.0,0.0,-1.7691,-1.7836,-1.8321,-1.9197,0.0,0.0,0.0,-2.1454,-1.9604,-1.9018,-1.9824,0.0,-1.7723,-1.8586,-1.7723,-1.7279,-1.7279,-1.7279,-1.7495,-1.7834,-1.8153,-1.8339,-1.8373,-1.8379,-1.8533,-1.8818,-1.9103,-1.9242,-1.9279,-1.9279,-1.9279,-1.9367,0.0,0.0,0.0,0.0,0.0,-2.1061,-2.1244,-2.154,-2.1807,-2.1807,-2.1655,-2.1617,-2.1769,-2.1655,-2.1617,-2.1807,-2.1807,0.0,0.0,0.0,0.0,-2.2356,-2.2377,-2.2553,-2.2936,-2.3029,-2.307,0.0,0.0,0.0,0.0,0.0,0.0,0.0,0.0,0.0,-2.1987,-2.1987,0.0,-2.2377,-2.2377,-2.2604,-2.2946,-2.2946,-2.2946,-2.2894,-2.2511,-2.2128,-2.1807,-2.1807,-2.1807,-2.1807,-2.1807,-2.2066,-2.2387,-2.247,-2.277,-2.3091,-2.3163,-2.3184,-2.3163,-2.3091,-2.307,-2.3049,-2.2956,-2.2379,-2.1837,-2.1837,-2.135,-2.0945,-2.0906,0.0,0.0,0.0,0.0,0.0,0.0,0.0,0.0,0.0,0.0,0.0,0.0,0.0,0.0,0.0,0.0,0.0,0.0,0.0,0.0,0.0,-1.8557,0.0,0.0,0.0,-1.7372,-1.7544,-1.7372,-1.7279,-1.7279,-1.7279,-1.7495,-1.7819,-1.8145,-1.8477,-1.8722,-1.8695,-1.8738,-1.8796,-1.8855,-1.9038,-1.9279,-1.9279,-1.9279,-1.9367,0.0,0.0,0.0,0.0,0.0,0.0,0.0,-2.1282,0.0,-2.1617,-2.1474,-2.1397,-2.1464,-2.1397,-2.1397,-2.1464,-2.1512,-2.154,-2.1655,-2.1655,-2.1796,-2.2128,-2.2139,0.0,-2.247,-2.247,-2.247,-2.247,0.0,0.0,0.0,0.0,0.0,0.0,0.0,-2.1942,0.0,0.0,0.0,-2.2853,-2.2853,-2.2987,-2.3184,-2.3184,-2.3184,-2.3122,-2.2656,-2.2511,-2.2449,-2.1963,-2.1963,-2.2159,-2.2159,-2.248,-2.2904,-2.3143,-2.337,-2.3598,-2.3826,-2.3888,-2.3794,-2.3423,-2.3371,-2.3268,-2.291,-2.2453,-2.2059,-2.2059,-2.1501,-2.0938,-2.0469,-2.0225,0.0,0.0,0.0,0.0,0.0,0.0,0.0,0.0,0.0,0.0,0.0,0.0,0.0,0.0,0.0,0.0,0.0,0.0,0.0,0.0,0.0,0.0,0.0,0.0,0.0,-1.7279,-1.7279,-1.7279,-1.7279,-1.7279,-1.7387,-1.7586,-1.8077,-1.8375,-1.857,-1.8709,-1.8789,-1.8789,-1.8789,-1.8986,-1.9279,-1.9279,-1.9279,-1.9345,0.0,-1.9183,0.0,0.0,-2.0731,0.0,-2.0906,-2.1063,-2.1277,-2.1407,-2.1244,-2.1167,-2.1205,-2.1257,-2.1268,-2.1307,-2.1436,-2.1526,-2.172,-2.1619,-2.1645,-2.1865,-2.1783,-2.1769,-2.1807,-2.1807,-2.1807,0.0,0.0,0.0,0.0,0.0,0.0,0.0,0.0,0.0,0.0,0.0,-2.2915,-2.3329,-2.3329,-2.3391,-2.3474,-2.3474,-2.3474,-2.3412,-2.2956,-2.3029,-2.3205,-2.2377,-2.2335,-2.2646,-2.2646,-2.2956,-2.3412,-2.3774,-2.395,-2.4095,-2.4404,-2.4497,-2.4372,-2.38,-2.3665,-2.349,-2.2926,-2.2569,-2.2344,-2.2344,-2.1724,-2.1003,-2.0299,-2.0126,0.0,0.0,0.0,0.0,0.0,0.0,0.0,0.0,0.0,0.0,0.0,0.0,0.0,0.0,0.0,0.0,0.0,0.0,0.0,0.0,0.0,-1.811,-1.7333,0.0,-1.7279,-1.7279,-1.7279,-1.7279,-1.7279,-1.7279,-1.7279,-1.7315,-1.8021,-1.836,-1.8528,-1.8723,-1.8789,-1.8789,-1.8789,-1.895,-1.9184,-1.925,-1.9279,-1.9368,0.0,0.0,0.0,0.0,0.0,0.0,0.0,-2.1086,-2.1194,-2.1217,-2.1061,-2.0984,-2.1167,-2.1371,-2.1561,-2.1719,-2.212,-2.2402,-2.2402,-2.202,-2.1868,-2.2055,-2.1716,-2.1617,-2.1807,-2.1807,-2.1807,0.0,0.0,0.0,0.0,0.0,0.0,0.0,0.0,0.0,0.0,-2.3122,-2.3391,-2.3815,-2.3815,-2.4053,-2.4373,-2.4373,-2.4373,-2.4311,-2.3908,-2.3815,-2.3774,-2.3225,-2.3091,-2.3122,-2.3122,-2.3443,-2.3826,-2.3909,-2.4167,-2.4445,-2.4487,-2.4497,-2.4444,-2.4198,-2.4145,-2.4039,-2.373,-2.3248,-2.2852,-2.2852,-2.1971,-2.1181,-2.1102,-2.0761,-2.0527,0.0,0.0,0.0,0.0,0.0,0.0,0.0,0.0,0.0,0.0,0.0,0.0,0.0,0.0,0.0,0.0,0.0,0.0,-1.8746,0.0,-1.7419,-1.7279,-1.7279,-1.7279,-1.7279,-1.7279,-1.7279,-1.7279,-1.7279,-1.7279,-1.7315,-1.8021,-1.865,-1.9191,-1.8906,-1.8789,-1.8789,-1.8789,-1.8811,-1.8869,-1.9169,-1.9279,-1.9279,0.0,0.0,0.0,0.0,0.0,0.0,0.0,-2.1388,-2.1603,-2.1629,-2.1528,-2.1528,-2.1609,-2.1676,-2.1784,-2.1856,-2.2024,-2.2205,-2.2328,-2.2159,-2.214,-2.2332,-2.221,-2.2159,-2.2229,-2.2229,-2.2268,0.0,0.0,0.0,0.0,0.0,0.0,0.0,0.0,-2.3163,-2.3598,-2.3598,-2.3867,-2.4281,-2.4281,-2.4342,-2.4497,-2.4497,-2.4497,-2.4435,-2.3865,-2.3833,-2.3997,-2.341,-2.3392,-2.3598,-2.3598,-2.3908,-2.4281,-2.4281,-2.4363,-2.4497,-2.4497,-2.4411,-2.4239,-2.4024,-2.3851,-2.3721,-2.345,-2.3181,-2.302,-2.302,-2.2464,-2.1924,-2.167,-2.1269,-2.0798,0.0,0.0,0.0,0.0,0.0,0.0,0.0,0.0,0.0,0.0,0.0,0.0,0.0,0.0,0.0,0.0,0.0,0.0,-1.7879,0.0,-1.7279,-1.7279,-1.7279,-1.7279,-1.7279,-1.7279,-1.7279,-1.7279,-1.7279,-1.7545,-1.7947,-1.8426,-1.8854,-1.925,-1.8921,-1.8789,-1.8789,-1.8789,-1.8789,-1.8833,-1.9155,-1.9279,-1.9279,-1.9328,0.0,-2.008,0.0,-2.1221,-2.1426,-2.1426,-2.1797,-2.207,-2.207,-2.2178,-2.2158,-2.1914,-2.1992,-2.207,-2.207,-2.2178,-2.2298,-2.2456,-2.2338,-2.2393,-2.259,-2.247,0.0,-2.2482,-2.2482,-2.2564,-2.2727,-2.2727,0.0,0.0,0.0,0.0,0.0,-2.3391,-2.365,-2.4074,-2.4074,-2.425,-2.4497,-2.4497,-2.4497,-2.4497,-2.4411,-2.4411,-2.4327,-2.3786,-2.3793,-2.4016,-2.3531,-2.36,-2.3853,-2.3853,-2.4122,-2.4411,-2.4325,-2.4368,-2.4368,-2.4325,-2.4196,-2.4024,-2.3754,-2.3634,-2.3416,-2.3144,-2.3091,-2.3091,-2.3091,-2.276,-2.2422,-2.2129,-2.1719,-2.1084,-2.0079,0.0,0.0,0.0,0.0,0.0,0.0,-1.5631,-1.5665,-1.5431,0.0,0.0,0.0,0.0,0.0,0.0,0.0,0.0,0.0,0.0,0.0,0.0,-1.7279,-1.7279,-1.7279,-1.7279,-1.7279,-1.7279,-1.7387,-1.7738,-1.8318,-1.8656,-1.8975,-1.9257,-1.903,-1.8877,-1.8789,-1.8789,-1.8789,-1.8818,-1.9052,-1.9199,-1.9272,-1.9806,-2.0597,-2.1327,-2.1797,-2.1875,-2.1875,-2.1875,-2.2236,-2.251,-2.251,-2.2818,-2.2769,-2.1982,-2.2256,-2.251,-2.251,-2.2838,-2.3081,-2.3081,-2.2734,-2.2585,0.0,0.0,-2.2287,-2.2482,-2.2482,-2.2482,-2.2482,0.0,0.0,-2.2798,0.0,-2.3432,-2.3867,-2.3867,-2.4115,-2.4487,-2.4487,-2.4497,-2.4497,-2.4497,-2.4497,-2.4497,-2.4292,-2.4206,-2.4153,-2.3884,-2.3787,-2.3797,-2.3787,-2.3787,-2.3787,-2.3787,-2.398,-2.4153,-2.3894,-2.398,-2.4163,-2.3884,-2.3797,-2.3754,-2.3537,-2.3503,-2.3416,-2.3144,-2.3091,-2.3091,-2.3091,-2.276,-2.251,-2.251,-2.2158,-2.1431,-2.0125,0.0,0.0,0.0,0.0,0.0,0.0,-1.6139,-1.6337,-1.5465,0.0,0.0,0.0,0.0,0.0,0.0,0.0,0.0,-1.7264,-1.7279,0.0,-1.7279,-1.7279,-1.7279,-1.7279,-1.7279,-1.7279,-1.7333,-1.7658,-1.7979,-1.8303,-1.8665,-1.8975,-1.9279,-1.9324,-1.9081,-1.8789,-1.8789,-1.8789,-1.8789,-1.8789,-1.9001,-1.9279,-2.1173,-2.1506,-2.1719,-2.1865,-2.2129,-2.2314,-2.2314,-2.2676,-2.2896,-2.2896,-2.3013,-2.2994,-2.2773,-2.2818,-2.2896,0.0,-2.3013,-2.3091,0.0,-2.2974,-2.2939,-2.2983,-2.2889,-2.282,-2.2906,-2.2906,-2.2992,-2.3172,0.0,0.0,0.0,-2.3768,-2.3976,-2.4077,-2.4077,-2.4245,-2.4497,-2.4497,-2.4411,-2.4292,-2.4292,-2.4196,-2.4013,-2.3927,-2.3937,-2.3884,-2.3677,-2.359,-2.358,-2.3406,-2.3309,-2.3309,-2.3309,-2.358,-2.3927,-2.3841,-2.3841,-2.3894,-2.3841,-2.3711,-2.359,-2.3503,-2.3363,-2.3188,-2.3135,-2.3091,-2.2916,-2.228,-2.2538,-2.2495,-2.1184,-2.1181,-2.0784,-1.9081,-1.8166,0.0,0.0,0.0,0.0,0.0,-1.5624,-1.5707,0.0,-1.5389,0.0,0.0,0.0,0.0,0.0,0.0,0.0,0.0,-1.7279,0.0,-1.7279,-1.7279,-1.7279,-1.7279,-1.7279,-1.7279,-1.7308,-1.7901,-1.8196,-1.8317,-1.8904,-1.9212,-1.9279,-1.9279,-1.9081,-1.8811,-1.903,-1.8847,-1.8482,-1.8708,-1.8855,-1.8891,-2.2041,-2.2119,-2.2168,-2.2324,-2.2578,-2.2744,-2.2744,-2.2925,-2.3091,-2.3091,-2.3091,-2.3091,-2.3091,-2.3091,0.0,-2.3091,-2.3091,-2.3091,-2.3091,-2.3091,-2.3091,-2.3091,-2.3091,-2.3091,-2.3091,0.0,0.0,-2.3373,-2.345,-2.3547,-2.3667,-2.3937,-2.4067,-2.4067,-2.4067,-2.411,-2.4239,-2.4239,-2.4153,-2.4067,-2.4067,-2.3937,-2.3797,-2.3711,-2.3677,-2.3667,-2.3406,-2.3373,-2.3319,-2.3144,-2.3091,-2.3091,-2.3091,-2.3319,-2.3537,-2.3537,-2.3624,-2.3667,-2.358,-2.345,-2.3373,-2.3373,-2.3232,-2.3091,-2.3091,-2.2828,-2.2422,-2.1828,-2.1872,-2.1641,-2.0413,-2.0499,-2.0201,-1.8548,-1.7898,-1.7188,-1.6072,0.0,0.0,0.0,0.0,0.0,0.0,-1.5498,0.0,0.0,0.0,0.0,0.0,0.0,0.0,-1.7271,-1.7279,0.0,-1.7279,-1.7279,-1.7279,-1.7279,-1.7279,-1.737,-1.7519,-1.8069,-1.8346,-1.8527,-1.9037,-1.9279,-1.9279,-1.9279,-1.9155,-1.8979,-1.8964,-1.8695,-1.8346,-1.8326,-1.8354,-1.8268,-2.2298,-2.2448,0.0,0.0,-2.3081,0.0,-2.3091,-2.3091,-2.3091,-2.3091,-2.3091,-2.3091,-2.3091,-2.3091,-2.3091,-2.3091,0.0,0.0,0.0,-2.3091,-2.3091,-2.3091,-2.3091,-2.3091,-2.3091,-2.3091,-2.3091,-2.3091,-2.3373,-2.3503,-2.3503,-2.3667,-2.3797,-2.3797,-2.3797,-2.3797,-2.3797,-2.3797,-2.3797,-2.3797,-2.3797,-2.3754,-2.3711,-2.3547,-2.346,-2.346,-2.3188,-2.3091,-2.3091,-2.3091,-2.3091,-2.3091,-2.3091,-2.3091,-2.3091,-2.3091,-2.3276,-2.3416,-2.3188,-2.3091,-2.3091,-2.3091,-2.3091,-2.3091,-2.3003,-2.2325,-2.165,-2.1516,-2.0827,-2.0141,-2.0005,-2.0051,-1.9669,-1.8441,-1.819,-1.7687,-1.616,0.0,0.0,0.0,0.0,0.0,0.0,-1.5738,-1.6052,0.0,0.0,0.0,0.0,0.0,-1.7026,-1.7271,-1.7279,-1.7279,-1.7279,-1.7279,-1.7279,-1.7279,-1.7319,-1.7512,-1.7829,-1.8171,-1.848,-1.8821,-1.9146,-1.9279,-1.9279,-1.9279,-1.9272,-1.919,-1.8642,-1.8418,-1.831,-1.7645,-1.742,-1.7348,0.0,0.0,-2.2549,-2.2646,-2.2886,-2.3091,-2.3091,-2.3091,-2.3091,-2.3091,-2.3091,-2.3091,-2.3091,-2.3091,-2.3091,-2.3091,-2.3091,-2.3091,-2.3091,-2.3091,-2.3091,-2.3091,-2.3091,-2.3091,-2.3091,-2.3091,-2.3091,-2.3091,-2.3373,-2.3406,-2.3188,-2.345,-2.358,-2.358,-2.358,-2.3677,-2.3797,-2.3797,-2.3711,-2.358,-2.358,-2.345,-2.3276,-2.3232,-2.3188,-2.3188,-2.3135,-2.3091,-2.3091,-2.3091,-2.3091,-2.3091,-2.3091,-2.3091,-2.3091,-2.3091,-2.3144,-2.3188,-2.3135,-2.3091,-2.3091,-2.3091,-2.3091,-2.2916,-2.2192,-2.1872,-2.1284,-1.9786,-1.9877,-1.9733,-1.8241,-1.8603,-1.8764,-1.7726,-1.737,-1.7026,-1.636,-1.606,0.0,0.0,-1.5389,-1.5484,-1.5782,-1.587,-1.6148,0.0,0.0,0.0,0.0,-1.726,-1.7252,-1.7279,-1.7279,-1.7279,-1.7279,-1.7279,-1.7279,-1.7293,-1.7541,-1.7721,-1.7796,-1.8393,-1.8713,-1.8804,-1.9162,-1.9279,-1.9279,-1.9078,-1.8974,-1.8966,-1.8561,-1.8281,-1.796,-1.6888,-1.6469,-1.6199,-2.0457,-2.1151,-2.1744,-2.2142,-2.2412,-2.2568,-2.2568,-2.2734,-2.2808,-2.2808,-2.2974,-2.3091,-2.3091,-2.3091,-2.3091,-2.3091,-2.3091,-2.3091,-2.3091,-2.3091,-2.3091,-2.3091,-2.3091,-2.3091,-2.3091,-2.3091,-2.3091,-2.3091,-2.3232,-2.3232,-2.3091,-2.3232,-2.3319,-2.3319,-2.3319,-2.3363,-2.3484,-2.3484,-2.3406,-2.3319,-2.3319,-2.3232,-2.3091,-2.3091,-2.3091,-2.3091,-2.3091,-2.3091,-2.3091,-2.3091,-2.2818,-2.2545,-2.296,-2.2501,-2.1863,-2.2325,-2.2467,-2.2467,-2.2467,-2.2138,-2.1774,-2.1774,-2.1774,-2.1641,-2.1141,-2.0692,-2.0059,-1.9018,-1.8834,-1.8557,-1.7512,-1.7738,-1.7924,-1.7372,-1.7179,-1.6908,-1.6477,-1.6228,0.0,-1.5687,-1.5608,-1.5774,-1.6096,-1.6257,-1.6491,-1.6873,-1.6989,0.0,-1.7271,-1.7279,-1.7279,-1.7279,-1.7279,-1.7279,-1.7279,-1.7279,-1.7387,-1.7517,-1.7715,-1.796,-1.8289,-1.8633,-1.8874,-1.9023,-1.9102,-1.9123,-1.9071,-1.8803,-1.8653,-1.8646,-1.8325,-1.7714,-1.6922,-1.613,-1.539,-1.4558,-1.9892,-2.0147,-2.0536,-2.1263,-2.1454,-2.1534,-2.1668,-2.201,-2.2242,-2.237,-2.2734,-2.2925,-2.2994,-2.3003,-2.3023,-2.3091,-2.3091,-2.3091,-2.3091,-2.3091,-2.3091,-2.3091,-2.3091,-2.3091,-2.3091,-2.3091,-2.3091,-2.3091,-2.3091,-2.3091,-2.3091,-2.3091,-2.3091,-2.3091,-2.3091,-2.3091,-2.3091,-2.296,-2.2872,-2.2872,-2.2731,-2.2643,-2.2643,-2.2643,-2.2643,-2.2643,-2.2643,-2.2643,-2.2643,-2.2643,-2.2148,-2.1606,-2.2413,-2.1552,-2.0367,-2.1239,-2.1373,-2.1284,-2.1418,-2.0827,-2.0187,-2.0187,-2.0187,-2.0141,-2.0005,-1.9376,-1.8742,-1.8603,-1.7878,-1.7279,-1.7279,-1.7279,-1.7279,-1.7279,-1.7279,-1.7106,-1.6462,0.0,-1.6309,-1.5957,-1.5957,-1.6104,-1.6455,-1.6734,-1.6917,-1.6969,-1.7172,-1.7279,-1.7279,-1.7279,-1.7279,-1.7279,-1.7279,-1.7279,-1.7279,-1.7279,-1.7482,-1.7805,-1.7864,-1.8192,-1.879,-1.885,-1.9034,-1.9227,-1.9026,-1.8869,-1.8817,-1.8482,-1.8318,-1.8318,-1.8069,-1.7056,-1.579,-1.5361,-1.4314,-1.2977,-1.7269,-1.8169,-1.8931,-1.9097,-1.9452,-1.9936,-2.0671,-2.0852,-2.116,-2.1899,-2.2041,-2.2217,-2.2568,-2.2607,-2.2711,-2.3062,-2.3091,-2.3091,-2.3091,-2.3091,-2.3091,-2.3091,-2.3091,-2.3091,-2.3091,-2.3091,-2.3091,-2.3091,-2.3091,-2.3091,-2.3091,-2.3091,-2.3091,-2.3091,-2.3091,-2.3091,-2.3047,-2.2236,-2.1917,-2.1828,-2.1006,-2.0638,-2.0638,-2.0638,-2.0638,-2.0638,-2.0638,-2.0638,-2.0638,-2.0638,-2.0548,-2.0458,-2.0593,-2.0458,-2.0232,-2.0367,-1.9877,-1.943,-2.024,-2.0322,-2.0187,-2.0187,-2.0187,-2.0005,-1.9193,-1.888,-1.8565,-1.7692,-1.7419,-1.7279,-1.7279,-1.7279,-1.7279,-1.7279,-1.7279,-1.7106,-1.6462,0.0,-1.6609,-1.5987,-1.614,-1.647,-1.6793,-1.6873,-1.7013,-1.723,-1.7304,-1.7279,-1.7279,-1.7279,-1.7279,-1.7279,-1.7279,-1.7279,-1.7279,-1.7279,-1.7486,-1.7791,-1.8095,-1.8428,-1.879,-1.9094,-1.9116,-1.8974,-1.8921,-1.8757,-1.8482,-1.8174,-1.8069,-1.8016,-1.7747,-1.6909,-1.5742,-1.4672,-1.346,-1.2178,-1.6617,-1.7188,-1.7713,-1.8213,-1.8482,-1.8718,-1.9138,-1.9779,-2.0379,-2.0768,-2.1049,-2.1434,-2.2107,-2.1494,-2.1302,-2.1985,-2.1743,-2.1543,-2.1543,-2.2501,-2.3091,-2.3091,-2.3091,-2.3091,-2.3091,-2.3091,-2.3091,-2.3091,-2.2599,-2.2325,-2.2325,-2.1784,-2.1543,-2.1543,-2.1543,-2.1543,-2.1507,-2.1105,-2.0872,-2.0827,-2.0367,-2.0187,-2.0187,-2.0187,-2.0187,-2.0187,-2.0187,-2.0187,-2.0187,-2.0187,-1.9869,-1.9513,-2.0051,-1.9459,-1.8734,-1.9285,-1.9155,-1.8788,-1.8696,-1.8642,-1.8642,-1.8642,-1.8642,-1.8511,-1.8102,-1.7971,-1.7878,-1.7419,-1.7279,-1.7279,-1.7279,-1.7279,-1.7279,-1.7279,-1.7279,0.0,0.0,-1.6807,-1.6793,-1.6499,-1.6587,-1.68,-1.7077,-1.7113,-1.7172,-1.7271,-1.7279,-1.7279,-1.7279,-1.7279,-1.7279,-1.7279,-1.7279,-1.7279,-1.7279,-1.7464,-1.7754,-1.8074,-1.8428,-1.8731,-1.9086,-1.9063,-1.9026,-1.8876,-1.8548,-1.8338,-1.8167,-1.7905,-1.7799,-1.7694,-1.6988,-1.5962,-1.4781,-1.3599,-1.241,-1.1311,-1.6263,-1.6419,-1.6624,-1.7277,-1.7399,-1.748,-1.7674,-1.8531,-1.9213,-1.9417,-1.977,-2.0297,-2.103,-2.0155,-1.9887,-2.0734,-2.035,-2.0138,-2.0187,-2.1596,-2.2413,-2.2413,-2.2413,-2.2545,-2.2784,-2.2555,-2.2413,-2.2413,-2.1695,-2.1329,-2.1329,-2.0548,-2.0187,-2.0187,-2.0187,-2.0187,-2.0187,-1.9968,-1.9869,-1.9869,-1.9596,-1.9513,-1.9513,-1.9513,-1.9513,-1.9513,-1.9513,-1.9513,-1.9513,-1.9513,-1.9055,-1.8557,-1.9285,-1.8511,-1.7466,-1.8241,-1.8473,-1.8288,-1.7512,-1.7279,-1.7279,-1.7279,-1.7279,-1.7279,-1.7279,-1.7279,-1.7279,-1.7279,-1.7279,-1.7257,-1.723,-1.7216,-1.7216,-1.7216,0.0,0.0,0.0,-1.6961,-1.6983,-1.691,-1.6969,-1.7062,-1.7257,-1.7279,-1.7279,-1.7279,-1.7279,-1.7279,-1.7279,-1.7279,-1.7279,-1.7279,-1.7279,-1.7279,-1.7279,-1.7647,-1.7953,-1.8288,-1.8577,-1.8871,-1.9175,-1.8914,-1.8764,-1.866,-1.8181,-1.7964,-1.7911,-1.7687,-1.7424,-1.7094,-1.6234,-1.4995,-1.3599,-1.2738,-1.166,-1.0672,-1.5465,-1.5506,-1.5506,-1.559,-1.559,-1.5865,-1.6657,-1.6886,-1.7221,-1.804,-1.8187,-1.8374,-1.8802,-1.8738,-1.8998,-1.9843,-1.9842,-1.9908,-2.0161,-2.0322,-2.0413,-2.0413,-2.0413,-2.0872,-2.1784,-2.0872,-2.0413,-2.0413,-2.0322,-2.0322,-2.0322,-2.0232,-2.0187,-2.0187,-2.0187,-2.0187,-2.0141,-1.9285,-1.888,-1.8834,-1.7878,-1.7512,-1.7512,-1.7512,-1.7512,-1.7512,-1.7512,-1.7512,-1.7512,-1.7512,-1.7466,-1.7419,-1.7512,-1.7419,-1.7326,-1.7372,-1.7419,-1.7372,-1.7326,-1.7279,-1.7279,-1.7279,-1.7279,-1.7279,-1.7279,-1.7279,-1.7279,-1.7279,-1.7279,-1.7238,-1.6991,-1.6939,-1.6939,-1.6939,0.0,0.0,-1.6903,-1.7106,-1.7186,-1.6939,-1.7113,-1.7304,-1.7279,-1.7279,-1.7279,-1.7279,-1.7279,-1.7279,-1.7279,-1.7279,-1.7279,-1.7279,-1.7279,-1.7279,-1.7279,-1.7613,-1.795,-1.8326,-1.8412,-1.8624,-1.8921,-1.8593,-1.8325,-1.8069,-1.8016,-1.7859,-1.7635,-1.7635,-1.6988,-1.6021,-1.5914,-1.4513,-1.2526,-1.2413,-1.166,-1.0688,-1.5389,-1.5389,-1.5389,-1.5389,-1.5389,-1.5506,-1.5824,-1.6337,-1.6821,-1.7139,-1.718,-1.7481,-1.8145,-1.7438,-1.7257,-1.8112,-1.8061,-1.8057,-1.8145,-1.8302,-1.8918,-2.0141,-2.0187,-2.0376,-2.0782,-2.0421,-2.0187,-2.0187,-1.9604,-1.933,-1.933,-1.8688,-1.8419,-1.8419,-1.8419,-1.8419,-1.8373,-1.801,-1.7878,-1.7831,-1.7466,-1.7279,-1.7279,-1.7279,-1.7279,-1.7279,-1.7279,-1.7279,-1.7279,-1.7279,-1.7279,-1.7279,-1.7279,-1.7279,-1.7279,-1.7279,-1.7279,-1.7279,-1.7279,-1.7279,-1.7279,-1.7279,-1.7279,-1.7279,-1.7279,-1.7279,-1.7274,-1.7077,-1.7033,-1.6996,-1.6925,-1.6903,-1.6961,-1.7113,0.0,-1.715,-1.715,-1.7252,-1.7235,-1.7165,-1.7252,-1.7279,-1.7279,-1.7279,-1.7279,-1.7279,-1.7279,-1.7279,-1.7279,-1.7279,-1.7279,-1.7279,-1.7279,-1.7279,-1.7279,-1.7636,-1.7864,-1.8038,-1.8286,-1.8455,-1.8593,-1.8272,-1.8122,-1.7964,-1.7799,-1.7312,-1.6558,-1.6558,-1.5861,-1.4728,-1.403,-1.3171,-1.2309,-1.161,-1.1067,-1.0692,-1.5389,-1.5389,-1.5389,-1.5389,-1.5389,-1.5389,-1.5389,-1.5906,-1.6304,-1.6304,-1.6304,-1.6501,-1.7115,-1.632,-1.6052,-1.6723,-1.6689,-1.669,-1.6888,-1.715,-1.8056,-1.9687,-1.9467,-1.9422,-1.9733,-1.9459,-1.9285,-1.9285,-1.865,-1.8334,-1.8288,-1.7598,-1.7279,-1.7279,-1.7279,-1.7279,-1.7279,-1.7279,-1.7279,-1.7279,-1.7279,-1.7279,-1.7279,-1.7279,-1.7279,-1.7279,-1.7279,-1.7279,-1.7279,-1.7279,-1.7279,-1.7279,-1.7279,-1.7279,-1.7279,-1.7279,-1.7279,-1.7279,-1.7279,-1.7279,-1.7279,-1.7279,-1.7279,-1.7279,-1.7279,-1.7252,-1.7121,-1.6947,-1.6903,-1.6866,-1.6763,-1.6829,-1.6969,-1.7143,-1.7179,-1.7216,-1.7311,-1.7279,-1.7279,-1.7279,-1.7279,-1.7279,-1.7279,-1.7279,-1.7279,-1.7279,-1.7279,-1.7279,-1.7279,-1.7279,-1.7279,-1.7279,-1.7279,-1.7279,-1.7279,-1.7655,-1.7896,-1.8053,-1.8195,-1.8341,-1.837,-1.7687,-1.7318,-1.7318,-1.6776,-1.6068,-1.5322,-1.5322,-1.462,-1.3491,-1.2684,-1.22,-1.1769,-1.1017,-1.0692,-1.0692,-1.5389,-1.5389,-1.5389,-1.5389,-1.5389,-1.5389,-1.5389,-1.5389,-1.5389,-1.5389,-1.5389,-1.5389,-1.5389,-1.5389,-1.5513,-1.5884,-1.5913,-1.6184,-1.6859,-1.715,-1.7738,-1.875,-1.7831,-1.7785,-1.8796,-1.7831,-1.7279,-1.7279,-1.7279,-1.7279,-1.7279,-1.7279,-1.7279,-1.7279,-1.7279,-1.7279,-1.7279,-1.7279,-1.7279,-1.7279,-1.7279,-1.7279,-1.7279,-1.7279,-1.7279,-1.7279,-1.7279,-1.7279,-1.7279,-1.7279,-1.7279,-1.7279,-1.7279,-1.7279,-1.7279,-1.7279,-1.7279,-1.7279,-1.7279,-1.7279,-1.7279,-1.7279,-1.7279,-1.7279,-1.7279,-1.7077,-1.6903,-1.6895,-1.6895,-1.68,-1.6477,-1.6683,-1.6903,-1.6903,-1.6903,-1.7013,-1.7235,-1.7279,-1.7279,-1.7279,-1.7279,-1.7279,-1.7279,-1.7279,-1.7279,-1.7279,-1.7279,-1.7279,-1.7279,-1.7279,-1.7279,-1.7279,-1.7279,-1.7279,-1.7279,-1.7647,-1.7977,-1.8306,-1.8073,-1.8128,-1.8311,-1.6658,-1.5914,-1.5808,-1.462,-1.4078,-1.4078,-1.4078,-1.3437,-1.2413,-1.2413,-1.1719,-1.0692,-1.0692,-1.0692,-1.0692,-1.5173,-1.5298,-1.5389,-1.5389,-1.5389,-1.5389,-1.5389,-1.5389,-1.5389,-1.5389,-1.5389,-1.5389,-1.5389,-1.5389,-1.5425,-1.5528,-1.5739,-1.6184,-1.6859,-1.715,-1.7419,-1.7738,-1.7466,-1.7419,-1.7738,-1.7466,-1.7279,-1.7279,-1.7279,-1.7279,-1.7279,-1.7279,-1.7279,-1.7279,-1.7279,-1.7279,-1.7279,-1.7279,-1.7279,-1.7279,-1.7279,-1.7279,-1.7279,-1.7279,-1.7279,-1.7279,-1.7279,-1.7279,-1.7279,-1.7279,-1.7279,-1.7279,-1.7279,-1.7279,-1.7279,-1.7279,-1.7279,-1.7279,-1.7279,-1.7279,-1.7279,-1.7279,-1.7279,-1.7267,-1.7047,-1.6969,-1.6837,-1.6602,-1.6558,-1.6602,-1.6734,-1.6837,-1.6969,-1.715,-1.7186,-1.7223,-1.7271,-1.7279,-1.7279,-1.7279,-1.7279,-1.7279,-1.7279,-1.7279,-1.7279,-1.7279,-1.7279,-1.7279,-1.7279,-1.7279,-1.7279,-1.7279,-1.7279,-1.7279,-1.7279,-1.7247,-1.7266,-1.7379,-1.7349,-1.6987,-1.6268,-1.6041,-1.5429,-1.462,-1.4245,-1.3652,-1.2901,-1.2901,-1.2254,-1.1232,-1.1232,-1.1017,-1.0692,-1.0692,-1.0692,-1.0692,-1.4957,-1.5131,-1.5257,-1.5257,-1.5347,-1.5389,-1.5389,-1.5389,-1.5389,-1.5389,-1.5389,-1.5389,-1.5389,-1.5389,-1.5389,-1.5389,-1.584,-1.6257,-1.6683,-1.7084,-1.7279,-1.7279,-1.7279,-1.7279,-1.7279,-1.7279,-1.7279,-1.7279,-1.7279,-1.7279,-1.7279,-1.7279,-1.7279,-1.7279,-1.7279,-1.7279,-1.7279,-1.7279,-1.7279,-1.7279,-1.7279,-1.7279,-1.7279,-1.7279,-1.7279,-1.7279,-1.7279,-1.7279,-1.7279,-1.7279,-1.7279,-1.7279,-1.7279,-1.7279,-1.7279,-1.7279,-1.7279,-1.7279,-1.7279,-1.7279,-1.725,-1.7172,-1.7143,-1.7091,-1.6947,-1.68,-1.6653,-1.6455,-1.6514,-1.6668,-1.6866,-1.7005,-1.7106,-1.725,-1.7279,-1.7279,-1.7279,-1.7279,-1.7279,-1.7279,-1.7279,-1.7279,-1.7279,-1.7279,-1.7279,-1.7279,-1.7279,-1.7279,-1.7279,-1.7279,-1.7185,-1.685,-1.7138,-1.7138,-1.6857,-1.6433,-1.6545,-1.7147,-1.6659,-1.6138,-1.5527,-1.4828,-1.4137,-1.3383,-1.2955,-1.2363,-1.1719,-1.1719,-1.1341,-1.0692,-1.0692,-1.0692,-1.0692,-1.0692,-1.0692,-1.0692,-1.465,-1.4866,-1.5048,-1.5048,-1.5215,-1.5347,-1.5347,-1.5347,-1.5389,-1.5389,-1.5389,-1.5389,-1.5389,-1.5389,-1.5389,-1.5389,-1.6001,-1.6411,-1.6411,-1.6974,-1.7279,-1.7279,-1.7279,-1.7279,-1.7279,-1.7279,-1.7279,-1.7279,-1.7279,-1.7279,-1.7279,-1.7279,-1.7279,-1.7279,-1.7279,-1.7279,-1.7279,-1.7279,-1.7279,-1.7279,-1.7279,-1.7279,-1.7279,-1.7279,-1.7279,-1.7279,-1.7279,-1.7279,-1.7279,-1.7279,-1.7279,-1.7279,-1.7279,-1.7279,-1.7279,-1.7279,-1.7279,-1.7279,-1.7279,-1.7264,-1.7223,-1.7005,-1.6903,-1.6859,-1.6859,-1.6646,-1.6455,-1.6455,-1.669,-1.691,-1.6939,-1.7135,-1.7279,-1.7279,-1.7279,-1.7279,-1.7279,-1.7279,-1.7279,-1.7279,-1.7279,-1.7279,-1.7279,-1.7279,-1.7279,-1.7279,-1.7279,-1.7279,-1.7279,-1.7232,-1.685,-1.6143,-1.6709,-1.6709,-1.5947,-1.5235,-1.561,-1.716,-1.5818,-1.5281,-1.5335,-1.3309,-1.2344,-1.22,-1.1122,-1.0692,-1.0692,-1.0692,-1.0692,-1.0692,-1.0692,-1.0692,-1.0692,-1.0692,-1.0692,-1.0692,-1.4482,-1.465,-1.4783,-1.4783,-1.4824,-1.4866,-1.4866,-1.5041,-1.5173,-1.5173,-1.5298,-1.5389,-1.5389,-1.5264,-1.5215,-1.5389,-1.6001,-1.6411,-1.6411,-1.6974,-1.7279,-1.7279,-1.7279,-1.7279,-1.7279,-1.7279,-1.7279,-1.7279,-1.7279,-1.7279,-1.7279,-1.7279,-1.7279,-1.7279,-1.7279,-1.7279,-1.7279,-1.7279,-1.7279,-1.7279,-1.7279,-1.7279,-1.7279,-1.7279,-1.7279,-1.7279,-1.7279,-1.7279,-1.7279,-1.7279,-1.7279,-1.7279,-1.7279,-1.7279,-1.7279,-1.7279,-1.7279,-1.7279,-1.7279,-1.715,-1.7004,-1.7179,-1.6843,-1.6521,-1.6521,-1.6661,-1.6793,-1.6793,-1.6851,-1.6976,-1.7179,-1.7282,-1.7279,-1.7279,-1.7279,-1.7279,-1.7279,-1.7279,-1.7279,-1.7279,-1.7279,-1.7279,-1.7279,-1.7279,-1.7279,-1.7279,-1.7279,-1.7279,-1.7279,-1.6763,-1.6183,-1.5602,-1.5175,-1.4692,-1.4112,-1.3692,-1.4208,-1.5523,-1.4286,-1.3287,-1.26,-1.2351,-1.1792,-1.1072,-1.0802,-1.0692,-1.0692,-1.0692,-1.0692,-1.0692,-1.0692,-1.0692,-1.0692,-1.0692,-1.0692,-1.0692,-1.4243,-1.4405,-1.4566,-1.4566,-1.465,-1.4692,-1.4692,-1.4824,-1.4957,-1.5082,-1.5082,-1.5124,-1.5257,-1.5041,-1.4999,-1.5257,-1.5836,-1.6242,-1.6411,-1.6974,-1.7279,-1.7279,-1.7279,-1.726,-1.7106,-1.7106,-1.7179,-1.7279,-1.7279,-1.7279,-1.7279,-1.7279,-1.7279,-1.7279,-1.7279,-1.7279,-1.7279,-1.7279,-1.7279,-1.7279,-1.7279,-1.7279,-1.7279,-1.7279,-1.7279,-1.7279,-1.7279,-1.7279,-1.7279,-1.7279,-1.7279,-1.7279,-1.7279,-1.7279,-1.7279,-1.7279,-1.7223,-1.7106,-1.7106,-1.7027,-1.6903,-1.6872,-1.685,-1.6784,-1.6683,-1.6778,-1.6903,-1.6903,-1.702,-1.7128,-1.725,-1.7279,-1.7279,-1.7279,-1.7279,-1.7279,-1.7279,-1.7279,-1.7279,-1.7279,-1.7279,-1.7279,-1.7279,-1.7279,-1.7279,-1.7279,-1.6951,-1.6763,-1.6763,-1.5852,-1.4984,-1.431,-1.407,-1.3584,-1.2909,-1.2581,-1.2727,-1.3355,-1.2673,-1.2107,-1.1714,-1.145,-1.1115,-1.0692,-1.0692,-1.0692,-1.0692,-1.0692,-1.0692,-1.0692,-1.0692,-1.0692,-1.0692,-1.0692,-1.0692,-1.0692,-1.4088,-1.4243,-1.4356,-1.4356,-1.4489,-1.4615,-1.4615,-1.4608,-1.4741,-1.4957,-1.4824,-1.4783,-1.4999,-1.4824,-1.4804,-1.5042,-1.5611,-1.6093,-1.641,-1.6958,-1.7257,-1.7252,-1.7245,-1.7099,-1.6822,-1.6815,-1.6901,-1.7165,-1.7165,-1.7165,-1.7165,-1.7165,-1.7165,-1.7165,-1.7223,-1.7216,-1.7165,-1.7223,-1.7216,-1.7165,-1.7165,-1.7165,-1.7165,-1.7165,-1.7165,-1.7165,-1.7165,-1.7165,-1.7165,-1.7165,-1.7165,-1.7165,-1.7165,-1.7165,-1.7165,-1.7165,-1.6982,-1.6829,-1.6881,-1.6859,-1.6778,-1.6617,-1.6894,-1.7194,-1.7027,-1.6983,-1.6983,-1.6983,-1.715,-1.7279,-1.7279,-1.7279,-1.7279,-1.7279,-1.7279,-1.7279,-1.7279,-1.7279,-1.7279,-1.7279,-1.7279,-1.7279,-1.7279,-1.7185,-1.7091,-1.7091,-1.6332,-1.59,-1.59,-1.4651,-1.3644,-1.2877,-1.2915,-1.2624,-1.1853,-1.1468,-1.1272,-1.1277,-1.1155,-1.1194,-1.1353,-1.0672,-1.0481,-1.0647,-1.068,-1.0692,-1.0692,-1.0692,-1.0692,-1.0692,-1.0692,-1.0692,-1.0692,-1.0637,-1.0637,-1.0637,-1.4088,-1.413,-1.4124,-1.4124,-1.4166,-1.4166,-1.4166,-1.4321,-1.444,-1.4482,-1.4608,-1.4692,-1.4741,-1.4734,-1.4768,-1.4924,-1.5432,-1.5963,-1.6466,-1.6825,-1.699,-1.6976,-1.6961,-1.6815,-1.6485,-1.6477,-1.6499,-1.6543,-1.6543,-1.6543,-1.6543,-1.6543,-1.6543,-1.6506,-1.6837,-1.6807,-1.6558,-1.6844,-1.68,-1.6543,-1.6543,-1.6543,-1.6543,-1.6543,-1.6543,-1.6543,-1.6543,-1.6543,-1.6543,-1.6543,-1.6543,-1.6543,-1.6543,-1.6543,-1.6543,-1.6543,-1.6514,-1.6536,-1.6822,-1.669,-1.6602,-1.7069,-1.7062,-1.7027,-1.7208,-1.7267,-1.7267,-1.7267,-1.725,-1.7279,-1.7279,-1.7279,-1.7279,-1.7279,-1.7279,-1.7279,-1.7279,-1.7279,-1.7279,-1.7279,-1.7279,-1.7279,-1.7279,-1.6709,-1.6332,-1.6332,-1.5229,-1.4555,-1.4555,-1.3301,-1.2339,-1.1804,-1.1179,-1.0551,-0.9965,-0.992,-0.9871,-0.9871,-0.9846,-0.995,-1.0128,-1.0215,-1.0298,-1.0423,-1.0627,-1.0692,-1.0692,-1.0692,-1.0692,-1.0692,-1.0692,-1.0692,-1.0692,-1.0421,-1.0366,-1.0366,-1.4088,-1.4088,-1.4088,-1.4088,-1.4088,-1.4088,-1.4088,-1.4166,-1.4279,-1.4398,-1.4363,-1.4412,-1.4524,-1.4555,-1.4677,-1.487,-1.5435,-1.5826,-1.6055,-1.649,-1.6617,-1.6429,-1.6542,-1.6477,-1.6118,-1.6118,-1.603,-1.5848,-1.6242,-1.6411,-1.6411,-1.6411,-1.6411,-1.6419,-1.6565,-1.6551,-1.6419,-1.6565,-1.6543,-1.6411,-1.6411,-1.6411,-1.6411,-1.6411,-1.6411,-1.6411,-1.6411,-1.6411,-1.6411,-1.6411,-1.6411,-1.6411,-1.6411,-1.6411,-1.6411,-1.6411,-1.6411,-1.6448,-1.6587,-1.6653,-1.6756,-1.6989,-1.7091,-1.7157,-1.725,-1.7279,-1.7279,-1.7279,-1.7279,-1.7279,-1.7279,-1.7279,-1.7279,-1.7279,-1.7279,-1.7279,-1.7279,-1.7279,-1.7279,-1.7279,-1.6951,-1.6709,-1.6709,-1.5751,-1.5134,-1.5134,-1.3926,-1.3156,-1.3156,-1.1955,-1.1135,-1.0939,-1.031,-0.9821,-0.9579,-0.9579,-0.9579,-0.9579,-0.9579,-0.9717,-0.9888,-0.9969,-1.0164,-1.0387,-1.0517,-1.0603,-1.0692,-1.0692,-1.0692,-1.0692,-1.0527,-1.0363,-1.0202,-1.0033,-1.0036,-1.0036]}]]